Observation Tools

Flowering dogwood Photo courtesy of Plant & Pest Diagnostic Laboratory, PurdueUniversity.

Flowering dogwood (Cornus florida)


Also Known As: Eastern dogwood
Plant Family: Dogwood (Cornaceae)
Project BudBurst Plant Group: Deciduous Trees and Shrubs

Identification Hints: One of the showiest dogwoods in the East due to its large, white, rounded bracts that look like petals. Dogwoodshave prominent leaf veins which curve parallel to the margins of the leaves. They are unusual in having flower parts in fours.

Did you Know? Flowering dogwood is a very popular treeoften used as an ornamental. You might find non native cultivars with different colored flowers (red and pink). Many species of birds and mammals browse the fruits, leaves, and twigs. The white wood is hard, tough, close-grained, and goodfor making tool handles.


Live Map for Flowering dogwood

Other years available for viewing:

Below you can view all observations that have been reported in for Flowering dogwood (If the map below is empty then there have not been any observations reported.)

Use the navigation buttons on the left to zoom in/out and pan around. Click on each place marker to get detail information about that observation.

Leaf/Needles/Stalk = Leaf/Needles/Stalk Flower = Flower Pollen = Pollen Fruiting = Fruiting Color = Color

--Back to Top--

close help window button

The table below displays all the data that has been submitted to Project BudBurst. By default, the data is sorted by the date on which the phenophase occurred. Clicking the up and down arrows next to each column name allows you to sort on any value. If there have been more than 10 observations submitted, you can choose how many to display at a time using the "Show __ entries" control. You can also page through the data using the previous and next buttons at the bottom right of the table.

The Search box allows you to search all of the data. Searching by date, species, phenophase, etc. is easy—just start typing and the table will immediately change to contain only observations that contain your search phrase. Do you want to see only 2012 observations? Just type "2012" in the search box. Only want to see maples? Enter "Acer." You can combine searches, too! Searching for "acer 2012" will narrow your results to only the maples that were observed in 2012 (assuming that any observations exist, of course).

Once you have your results in the order desired, you can use any of the buttons above the search box to copy the results to the clipboard; save them as a text, or spreadsheet; or even print them from your browser!

Observational data for Flowering dogwood:

help button
Date Contributor Common Name Species Phenophase Latitude Longitude Obs#
Mon Feb 18 00:00:00 GMT 2008 schoen Flowering dogwood Cornus florida First Leaf 39.072300000000000 -77.096100000000000 70
Sat Mar 01 00:00:00 GMT 2008 anonymous Flowering dogwood Cornus florida First Leaf 30.268700000000000 -97.745200000000000 391
Wed Mar 12 00:00:00 GMT 2008 DRogers@iglou.com Flowering dogwood Cornus florida First Leaf 38.336100000000000 -85.627500000000000 496
Wed Mar 05 00:00:00 GMT 2008 manatees2 Flowering dogwood Cornus florida First Leaf 28.991100000000000 -82.637900000000000 590
Mon Mar 10 00:00:00 GMT 2008 manatees2 Flowering dogwood Cornus florida First Flower 28.991100000000000 -82.637900000000000 591
Fri Mar 14 00:00:00 GMT 2008 jlraby Flowering dogwood Cornus florida First Flower 30.570700000000000 -87.882700000000000 633
Wed Mar 19 00:00:00 GMT 2008 naullain Flowering dogwood Cornus florida First Leaf 35.551000000000000 -86.136900000000000 661
Sun Mar 23 00:00:00 GMT 2008 jdcasey Flowering dogwood Cornus florida End of Flowering 29.651000000000000 -82.325000000000000 862
Sun Mar 23 00:00:00 GMT 2008 naturalist Flowering dogwood Cornus florida First Flower 35.220000000000000 -80.800000000000000 863
Sat Mar 22 00:00:00 GMT 2008 BioPatriot Flowering dogwood Cornus florida Full Flower 30.458600000000000 -84.290300000000000 894
Wed May 21 00:00:00 GMT 2008 j9l2g@juno.com Flowering dogwood Cornus florida First Leaf 33.472300000000000 -84.173600000000000 896
Tue Mar 18 00:00:00 GMT 2008 anonymous Flowering dogwood Cornus florida First Leaf 38.500000000000000 -121.400000000000000 933
Mon Mar 17 00:00:00 GMT 2008 jlraby Flowering dogwood Cornus florida First Leaf 30.570700000000000 -87.882700000000000 970
Sun Mar 23 00:00:00 GMT 2008 jlraby Flowering dogwood Cornus florida Full Flower 30.570700000000000 -87.882700000000000 971
Sun Mar 30 00:00:00 GMT 2008 drhartel Flowering dogwood Cornus florida First Leaf 34.053600000000000 -83.123100000000000 1022
Fri Mar 28 00:00:00 GMT 2008 selu Flowering dogwood Cornus florida First Leaf 39.016800000000000 -77.023800000000000 1023
Sat Mar 29 00:00:00 GMT 2008 Patti Bayard Flowering dogwood Cornus florida First Flower 38.755300000000000 -120.615000000000000 1075
Mon Mar 31 00:00:00 GMT 2008 aboddie Flowering dogwood Cornus florida First Flower 35.098600000000000 -89.783700000000000 1078
Mon Mar 31 00:00:00 GMT 2008 wvtroutbum Flowering dogwood Cornus florida Full Flower 38.402700000000000 -81.747800000000000 1165
Thu Mar 20 00:00:00 GMT 2008 smkerwin2 Flowering dogwood Cornus florida First Leaf 40.727100000000000 -89.593100000000000 1166
Fri Apr 04 00:00:00 GMT 2008 Meg & Mom Flowering dogwood Cornus florida First Flower 34.495300000000000 -84.353400000000000 1273
Mon Apr 07 00:00:00 GMT 2008 Meg & Mom Flowering dogwood Cornus florida Full Flower 34.495300000000000 -84.353400000000000 1274
Tue Apr 01 00:00:00 GMT 2008 j9l2g@juno.com Flowering dogwood Cornus florida Full Flower 33.472300000000000 -84.173600000000000 1295
Thu Mar 20 00:00:00 GMT 2008 rosecottageltd Flowering dogwood Cornus florida First Leaf 35.666100000000000 -79.430800000000000 1307
Tue Mar 25 00:00:00 GMT 2008 rosecottageltd Flowering dogwood Cornus florida All Leaves Unfolded 35.666100000000000 -79.430800000000000 1308
Sat Apr 05 00:00:00 GMT 2008 rosecottageltd Flowering dogwood Cornus florida First Flower 35.666100000000000 -79.430800000000000 1309
Mon Mar 31 00:00:00 GMT 2008 anonymous Flowering dogwood Cornus florida Full Flower 36.702500000000000 -76.231300000000000 1345
Thu Apr 03 00:00:00 GMT 2008 anonymous Flowering dogwood Cornus florida First Leaf 34.666800000000000 -83.725500000000000 1355
Sat Apr 05 00:00:00 GMT 2008 anonymous Flowering dogwood Cornus florida First Flower 34.666800000000000 -83.725500000000000 1356
Tue Apr 08 00:00:00 GMT 2008 anonymous Flowering dogwood Cornus florida Full Flower 34.666800000000000 -83.725500000000000 1357
Mon Apr 07 00:00:00 GMT 2008 Hillersouth Flowering dogwood Cornus florida First Leaf 34.666800000000000 -83.725500000000000 1358
Mon Apr 07 00:00:00 GMT 2008 Hillersouth Flowering dogwood Cornus florida First Leaf 34.785200000000000 -83.933300000000000 1362
Tue Apr 08 00:00:00 GMT 2008 naturalist Flowering dogwood Cornus florida Full Flower 35.220000000000000 -80.800000000000000 1380
Wed Apr 02 00:00:00 GMT 2008 otter19 Flowering dogwood Cornus florida First Flower 35.760900000000000 -81.332400000000000 1449
Tue Apr 08 00:00:00 GMT 2008 otter19 Flowering dogwood Cornus florida Full Flower 35.760900000000000 -81.332400000000000 1450
Fri May 23 00:00:00 GMT 2008 j9l2g@juno.com Flowering dogwood Cornus florida First Flower 33.472300000000000 -84.173600000000000 1503
Mon Apr 07 00:00:00 GMT 2008 anonymous Flowering dogwood Cornus florida First Flower 36.015500000000000 -84.220200000000000 1506
Wed Apr 09 00:00:00 GMT 2008 jenulsh@northhempstead.com Flowering dogwood Cornus florida First Leaf 40.705500000000000 -73.448900000000000 1641
Fri Mar 21 00:00:00 GMT 2008 anonymous Flowering dogwood Cornus florida First Leaf 32.423900000000000 -81.779300000000000 1700
Tue Mar 25 00:00:00 GMT 2008 anonymous Flowering dogwood Cornus florida All Leaves Unfolded 32.423900000000000 -81.779300000000000 1701
Sun Mar 16 00:00:00 GMT 2008 anonymous Flowering dogwood Cornus florida First Flower 32.423900000000000 -81.779300000000000 1702
Wed Mar 26 00:00:00 GMT 2008 anonymous Flowering dogwood Cornus florida Full Flower 32.423900000000000 -81.779300000000000 1703
Thu Apr 10 00:00:00 GMT 2008 anonymous Flowering dogwood Cornus florida End of Flowering 32.423900000000000 -81.779300000000000 1704
Tue Apr 15 00:00:00 GMT 2008 engle-hills Flowering dogwood Cornus florida Full Flower 37.122100000000000 -76.448600000000000 1731
Wed Apr 16 00:00:00 GMT 2008 elasil Flowering dogwood Cornus florida First Leaf 40.953500000000000 -74.138500000000000 1789
Tue Apr 08 00:00:00 GMT 2008 jlraby Flowering dogwood Cornus florida All Leaves Unfolded 30.570700000000000 -87.882700000000000 1793
Fri Apr 18 00:00:00 GMT 2008 mszalega Flowering dogwood Cornus florida First Leaf 42.410000000000000 -83.270000000000000 1860
Sat Apr 19 00:00:00 GMT 2008 Jingles Flowering dogwood Cornus florida First Flower 39.826100000000000 -75.615600000000000 1871
Mon Apr 14 00:00:00 GMT 2008 selu Flowering dogwood Cornus florida First Flower 39.016800000000000 -77.023800000000000 1935
Mon Apr 21 00:00:00 GMT 2008 selu Flowering dogwood Cornus florida Full Flower 39.016800000000000 -77.023800000000000 1936
Mon Apr 21 00:00:00 GMT 2008 shopgirl12545 Flowering dogwood Cornus florida First Flower 41.782600000000000 -73.690000000000000 2012
Fri Mar 14 00:00:00 GMT 2008 anonymous Flowering dogwood Cornus florida First Leaf 32.613900000000000 -81.921700000000000 2104
Thu Apr 03 00:00:00 GMT 2008 anonymous Flowering dogwood Cornus florida All Leaves Unfolded 32.613900000000000 -81.921700000000000 2105
Tue Mar 11 00:00:00 GMT 2008 anonymous Flowering dogwood Cornus florida First Flower 32.613900000000000 -81.921700000000000 2106
Sun Mar 23 00:00:00 GMT 2008 anonymous Flowering dogwood Cornus florida Full Flower 32.613900000000000 -81.921700000000000 2107
Wed Apr 16 00:00:00 GMT 2008 anonymous Flowering dogwood Cornus florida End of Flowering 32.613900000000000 -81.921700000000000 2108
Tue Mar 11 00:00:00 GMT 2008 anonymous Flowering dogwood Cornus florida First Leaf 32.586700000000000 -81.982800000000000 2109
Fri Mar 28 00:00:00 GMT 2008 anonymous Flowering dogwood Cornus florida All Leaves Unfolded 32.586700000000000 -81.982800000000000 2110
Sat Mar 08 00:00:00 GMT 2008 anonymous Flowering dogwood Cornus florida First Flower 32.586700000000000 -81.982800000000000 2111
Mon Mar 17 00:00:00 GMT 2008 anonymous Flowering dogwood Cornus florida Full Flower 32.586700000000000 -81.982800000000000 2112
Wed Apr 09 00:00:00 GMT 2008 anonymous Flowering dogwood Cornus florida End of Flowering 32.586700000000000 -81.982800000000000 2113
Fri Mar 14 00:00:00 GMT 2008 anonymous Flowering dogwood Cornus florida First Leaf 32.589700000000000 -81.995000000000000 2116
Thu Apr 03 00:00:00 GMT 2008 anonymous Flowering dogwood Cornus florida All Leaves Unfolded 32.589700000000000 -81.995000000000000 2117
Tue Mar 11 00:00:00 GMT 2008 anonymous Flowering dogwood Cornus florida First Flower 32.589700000000000 -81.995000000000000 2118
Sun Mar 23 00:00:00 GMT 2008 anonymous Flowering dogwood Cornus florida Full Flower 32.589700000000000 -81.995000000000000 2119
Tue Apr 15 00:00:00 GMT 2008 anonymous Flowering dogwood Cornus florida End of Flowering 32.589700000000000 -81.995000000000000 2120
Mon Mar 03 00:00:00 GMT 2008 leege Flowering dogwood Cornus florida First Leaf 32.000000000000000 -81.000000000000000 2130
Tue Mar 18 00:00:00 GMT 2008 leege Flowering dogwood Cornus florida All Leaves Unfolded 32.000000000000000 -81.000000000000000 2131
Mon Mar 03 00:00:00 GMT 2008 leege Flowering dogwood Cornus florida First Flower 32.000000000000000 -81.000000000000000 2132
Tue Mar 18 00:00:00 GMT 2008 leege Flowering dogwood Cornus florida Full Flower 32.000000000000000 -81.000000000000000 2133
Sat Apr 05 00:00:00 GMT 2008 leege Flowering dogwood Cornus florida End of Flowering 32.000000000000000 -81.000000000000000 2134
Tue Mar 11 00:00:00 GMT 2008 clowerpower86 Flowering dogwood Cornus florida First Leaf 31.559400000000000 -81.595700000000000 2135
Tue Apr 22 00:00:00 GMT 2008 clowerpower86 Flowering dogwood Cornus florida All Leaves Unfolded 31.559400000000000 -81.595700000000000 2136
Wed Mar 26 00:00:00 GMT 2008 clowerpower86 Flowering dogwood Cornus florida First Flower 31.559400000000000 -81.595700000000000 2137
Sun Apr 13 00:00:00 GMT 2008 clowerpower86 Flowering dogwood Cornus florida Full Flower 31.559400000000000 -81.595700000000000 2138
Sun Apr 20 00:00:00 GMT 2008 clowerpower86 Flowering dogwood Cornus florida End of Flowering 31.559400000000000 -81.595700000000000 2139
Wed Apr 23 00:00:00 GMT 2008 Charles_Sullivan Flowering dogwood Cornus florida Full Flower 39.300000000000000 -78.180000000000000 2155
Sun Mar 16 00:00:00 GMT 2008 anonymous Flowering dogwood Cornus florida First Leaf 32.253100000000000 -81.466100000000000 2196
Tue Mar 18 00:00:00 GMT 2008 anonymous Flowering dogwood Cornus florida All Leaves Unfolded 32.253100000000000 -81.466100000000000 2197
Thu Feb 28 00:00:00 GMT 2008 anonymous Flowering dogwood Cornus florida First Flower 32.253100000000000 -81.466100000000000 2198
Mon Mar 03 00:00:00 GMT 2008 anonymous Flowering dogwood Cornus florida Full Flower 32.253100000000000 -81.466100000000000 2199
Sat Mar 22 00:00:00 GMT 2008 anonymous Flowering dogwood Cornus florida End of Flowering 32.253100000000000 -81.466100000000000 2200
Tue Apr 08 00:00:00 GMT 2008 anonymous Flowering dogwood Cornus florida First Ripe Fruit 32.253100000000000 -81.466100000000000 2201
Mon Apr 21 00:00:00 GMT 2008 budburst Flowering dogwood Cornus florida First Flower 39.425100000000000 -82.259600000000000 2280
Thu Apr 24 00:00:00 GMT 2008 budburst Flowering dogwood Cornus florida Full Flower 39.425100000000000 -82.259600000000000 2281
Thu Apr 24 00:00:00 GMT 2008 Jingles Flowering dogwood Cornus florida First Leaf 39.826100000000000 -75.615600000000000 2302
Fri Apr 25 00:00:00 GMT 2008 Patti Bayard Flowering dogwood Cornus florida Full Flower 38.755300000000000 -120.615000000000000 2386
Sun Apr 20 00:00:00 GMT 2008 Patti Bayard Flowering dogwood Cornus florida First Leaf 38.755300000000000 -120.615000000000000 2392
Sat Apr 26 00:00:00 GMT 2008 elasil Flowering dogwood Cornus florida First Flower 40.953500000000000 -74.138500000000000 2404
Sun Apr 27 00:00:00 GMT 2008 Ilse Flowering dogwood Cornus florida Full Flower 41.582400000000000 -73.901800000000000 2432
Tue May 27 00:00:00 GMT 2008 naturalist Flowering dogwood Cornus florida End of Flowering 35.220000000000000 -80.800000000000000 2438
Sun Apr 27 00:00:00 GMT 2008 shopgirl12545 Flowering dogwood Cornus florida All Leaves Unfolded 41.782600000000000 -73.690000000000000 2533
Fri Apr 25 00:00:00 GMT 2008 shopgirl12545 Flowering dogwood Cornus florida Full Flower 41.782600000000000 -73.690000000000000 2534
Tue Apr 22 00:00:00 GMT 2008 Jodie Flowering dogwood Cornus florida Full Flower 41.025600000000000 -74.331000000000000 2541
Mon Apr 28 00:00:00 GMT 2008 jenulsh@northhempstead.com Flowering dogwood Cornus florida Full Flower 40.705500000000000 -73.448900000000000 2592
Fri Apr 25 00:00:00 GMT 2008 IlexAcer Flowering dogwood Cornus florida First Flower 42.414800000000000 -71.215700000000000 2609
Fri Apr 18 00:00:00 GMT 2008 lswerdloff Flowering dogwood Cornus florida First Flower 38.940800000000000 -77.045300000000000 2616
Tue Apr 22 00:00:00 GMT 2008 lswerdloff Flowering dogwood Cornus florida Full Flower 38.940800000000000 -77.045300000000000 2617
Thu Apr 24 00:00:00 GMT 2008 greemedogs Flowering dogwood Cornus florida First Flower 41.812100000000000 -72.844100000000000 2658
Wed Apr 23 00:00:00 GMT 2008 greemedogs Flowering dogwood Cornus florida First Flower 41.785700000000000 -72.502300000000000 2663
Fri Apr 04 00:00:00 GMT 2008 cpartain Flowering dogwood Cornus florida First Flower 34.766600000000000 -92.369600000000000 2674
Tue Apr 22 00:00:00 GMT 2008 naturalistg Flowering dogwood Cornus florida Full Flower 39.658700000000000 -79.987300000000000 2698
Mon Apr 28 00:00:00 GMT 2008 elasil Flowering dogwood Cornus florida All Leaves Unfolded 40.953500000000000 -74.138500000000000 2711
Sun May 04 00:00:00 GMT 2008 elasil Flowering dogwood Cornus florida Full Flower 40.953500000000000 -74.138500000000000 2813
Tue Apr 15 00:00:00 GMT 2008 forevergardener Flowering dogwood Cornus florida First Leaf 39.945100000000000 -74.814200000000000 3135
Tue Apr 22 00:00:00 GMT 2008 forevergardener Flowering dogwood Cornus florida All Leaves Unfolded 39.945100000000000 -74.814200000000000 3136
Sun Apr 27 00:00:00 GMT 2008 forevergardener Flowering dogwood Cornus florida First Flower 39.945100000000000 -74.814200000000000 3137
Sat May 17 00:00:00 GMT 2008 forevergardener Flowering dogwood Cornus florida Full Flower 39.945100000000000 -74.814200000000000 3138
Wed Apr 30 00:00:00 GMT 2008 selu Flowering dogwood Cornus florida All Leaves Unfolded 39.016800000000000 -77.023800000000000 3147
Mon May 05 00:00:00 GMT 2008 selu Flowering dogwood Cornus florida End of Flowering 39.016800000000000 -77.023800000000000 3148
Sat May 10 00:00:00 GMT 2008 naturalist Flowering dogwood Cornus florida All Leaves Unfolded 35.220000000000000 -80.800000000000000 3180
Thu May 08 00:00:00 GMT 2008 anonymous Flowering dogwood Cornus florida Full Flower 41.021600000000000 -81.739900000000000 3250
Thu May 08 00:00:00 GMT 2008 anonymous Flowering dogwood Cornus florida Full Flower 41.021000000000000 -81.739400000000000 3259
Thu May 08 00:00:00 GMT 2008 anonymous Flowering dogwood Cornus florida Full Flower 41.011600000000000 -81.442400000000000 3366
Thu May 08 00:00:00 GMT 2008 anonymous Flowering dogwood Cornus florida Full Flower 41.021400000000000 -81.739100000000000 3372
Thu May 08 00:00:00 GMT 2008 anonymous Flowering dogwood Cornus florida First Leaf 41.021400000000000 -81.739100000000000 3389
Thu May 08 00:00:00 GMT 2008 anonymous Flowering dogwood Cornus florida All Leaves Unfolded 41.021400000000000 -81.739100000000000 3390
Thu May 08 00:00:00 GMT 2008 anonymous Flowering dogwood Cornus florida Full Flower 41.021400000000000 -81.739100000000000 3391
Mon May 12 00:00:00 GMT 2008 elasil Flowering dogwood Cornus florida End of Flowering 40.953500000000000 -74.138500000000000 3484
Sun May 11 00:00:00 GMT 2008 robs57 Flowering dogwood Cornus florida End of Flowering 39.186300000000000 -76.838500000000000 3525
Fri Apr 11 00:00:00 GMT 2008 anonymous Flowering dogwood Cornus florida First Leaf 38.926500000000000 -77.339500000000000 3576
Fri May 09 00:00:00 GMT 2008 Patti Bayard Flowering dogwood Cornus florida All Leaves Unfolded 38.755300000000000 -120.615000000000000 3685
Tue May 20 00:00:00 GMT 2008 shopgirl12545 Flowering dogwood Cornus florida End of Flowering 41.782600000000000 -73.690000000000000 3793
Thu Apr 24 00:00:00 GMT 2008 Jingles Flowering dogwood Cornus florida Full Flower 39.826100000000000 -75.615600000000000 3853
Tue May 20 00:00:00 GMT 2008 Jingles Flowering dogwood Cornus florida End of Flowering 39.826100000000000 -75.615600000000000 3854
Sun Apr 20 00:00:00 GMT 2008 volunteerton Flowering dogwood Cornus florida First Leaf 36.401300000000000 -86.440600000000000 3906
Thu Apr 10 00:00:00 GMT 2008 volunteerton Flowering dogwood Cornus florida First Flower 36.401300000000000 -86.440600000000000 3907
Sun Apr 20 00:00:00 GMT 2008 vanndawn Flowering dogwood Cornus florida First Leaf 38.996400000000000 -92.613100000000000 4363
Fri Apr 25 00:00:00 GMT 2008 vanndawn Flowering dogwood Cornus florida First Flower 38.996400000000000 -92.613100000000000 4364
Thu May 01 00:00:00 GMT 2008 vanndawn Flowering dogwood Cornus florida Full Flower 38.996400000000000 -92.613100000000000 4365
Wed Apr 23 00:00:00 GMT 2008 rg Flowering dogwood Cornus florida First Flower 39.671500000000000 -82.541200000000000 4634
Thu Sep 18 00:00:00 GMT 2008 Jingles Flowering dogwood Cornus florida First Ripe Fruit 39.826100000000000 -75.615600000000000 4684
Tue Apr 22 00:00:00 GMT 2008 BioBarb Flowering dogwood Cornus florida First Leaf 40.177800000000000 -74.219000000000000 4727
Sat Apr 26 00:00:00 GMT 2008 BioBarb Flowering dogwood Cornus florida All Leaves Unfolded 40.177800000000000 -74.219000000000000 4728
Tue Apr 08 00:00:00 GMT 2008 BioBarb Flowering dogwood Cornus florida First Flower 40.177800000000000 -74.219000000000000 4729
Tue Apr 22 00:00:00 GMT 2008 BioBarb Flowering dogwood Cornus florida Full Flower 40.177800000000000 -74.219000000000000 4730
Wed May 14 00:00:00 GMT 2008 BioBarb Flowering dogwood Cornus florida End of Flowering 40.177800000000000 -74.219000000000000 4731
Sun Sep 07 00:00:00 GMT 2008 BioBarb Flowering dogwood Cornus florida First Ripe Fruit 40.177800000000000 -74.219000000000000 4732
Wed Apr 30 00:00:00 GMT 2008 plantwatchers Flowering dogwood Cornus florida First Leaf 40.436600000000000 -86.912800000000000 4746
Sat May 03 00:00:00 GMT 2008 plantwatchers Flowering dogwood Cornus florida First Flower 40.436600000000000 -86.912800000000000 4747
Tue Mar 17 00:00:00 GMT 2009 anonymous Flowering dogwood Cornus florida First Leaf 35.120000000000000 -80.810000000000000 5217
Mon Mar 23 00:00:00 GMT 2009 anonymous Flowering dogwood Cornus florida All Leaves Unfolded 35.120000000000000 -80.810000000000000 5218
Tue Mar 17 00:00:00 GMT 2009 anonymous Flowering dogwood Cornus florida First Flower 35.042100000000000 -80.735800000000000 5229
Fri Mar 20 00:00:00 GMT 2009 anonymous Flowering dogwood Cornus florida Full Flower 35.042100000000000 -80.735800000000000 5230
Tue Mar 10 00:00:00 GMT 2009 anonymous Flowering dogwood Cornus florida First Leaf 35.839100000000000 -78.655900000000000 5311
Wed Mar 25 00:00:00 GMT 2009 debeagle1 Flowering dogwood Cornus florida All Leaves Unfolded 35.860500000000000 -83.953400000000000 5306
Sat Mar 14 00:00:00 GMT 2009 anonymous Flowering dogwood Cornus florida First Leaf 35.151400000000000 -80.819300000000000 5333
Tue Mar 31 00:00:00 GMT 2009 gmuenchow Flowering dogwood Cornus florida End of Flowering 30.359200000000000 -84.271500000000000 5347
Sat Mar 28 00:00:00 GMT 2009 International School of Chapel Hill Flowering dogwood Cornus florida First Leaf 35.933900000000000 -79.009200000000000 5354
Tue Mar 03 00:00:00 GMT 2009 anonymous Flowering dogwood Cornus florida First Leaf 38.433500000000000 -77.424300000000000 5374
Fri Mar 20 00:00:00 GMT 2009 anonymous Flowering dogwood Cornus florida All Leaves Unfolded 38.433500000000000 -77.424300000000000 5375
Sat Mar 28 00:00:00 GMT 2009 anonymous Flowering dogwood Cornus florida First Flower 38.433500000000000 -77.424300000000000 5376
Wed Apr 01 00:00:00 GMT 2009 anonymous Flowering dogwood Cornus florida Full Flower 38.433500000000000 -77.424300000000000 5377
Fri Apr 03 00:00:00 GMT 2009 mdunn Flowering dogwood Cornus florida First Leaf 35.757100000000000 -79.107000000000000 5445
Wed Apr 01 00:00:00 GMT 2009 International School of Chapel Hill Flowering dogwood Cornus florida First Flower 35.933900000000000 -79.009200000000000 5464
Wed Mar 25 00:00:00 GMT 2009 Tasha.Berg Flowering dogwood Cornus florida First Leaf 37.541100000000000 -77.536400000000000 5507
Sat Apr 04 00:00:00 GMT 2009 Tasha.Berg Flowering dogwood Cornus florida All Leaves Unfolded 37.541100000000000 -77.536400000000000 5508
Wed Apr 08 00:00:00 GMT 2009 Tasha.Berg Flowering dogwood Cornus florida First Flower 37.541100000000000 -77.536400000000000 5509
Sun Apr 12 00:00:00 GMT 2009 MSuddeth Flowering dogwood Cornus florida First Flower 38.972700000000000 -76.732000000000000 5595
Sun Apr 12 00:00:00 GMT 2009 debeagle1 Flowering dogwood Cornus florida Full Flower 35.860500000000000 -83.953400000000000 5596
Sat Apr 11 00:00:00 GMT 2009 Wildegenes Flowering dogwood Cornus florida First Flower 38.899100000000000 -77.098400000000000 5670
Wed Apr 08 00:00:00 GMT 2009 klanderson Flowering dogwood Cornus florida First Flower 38.636800000000000 -76.606500000000000 5609
Mon Apr 13 00:00:00 GMT 2009 sheltonirisd Flowering dogwood Cornus florida Full Flower 35.796400000000000 -84.687000000000000 5617
Fri Apr 10 00:00:00 GMT 2009 fsanford Flowering dogwood Cornus florida First Flower 38.946800000000000 -77.070500000000000 5677
Sun Mar 08 00:00:00 GMT 2009 Littlehorse7650 Flowering dogwood Cornus florida First Leaf 35.825200000000000 -84.560000000000000 5760
Fri Mar 20 00:00:00 GMT 2009 Littlehorse7650 Flowering dogwood Cornus florida All Leaves Unfolded 35.825200000000000 -84.560000000000000 5761
Tue Mar 31 00:00:00 GMT 2009 Littlehorse7650 Flowering dogwood Cornus florida First Flower 35.825200000000000 -84.560000000000000 5762
Sun Apr 12 00:00:00 GMT 2009 Littlehorse7650 Flowering dogwood Cornus florida Full Flower 35.825200000000000 -84.560000000000000 5763
Fri Mar 27 00:00:00 GMT 2009 ekesmode Flowering dogwood Cornus florida First Leaf 39.160000000000000 -86.490000000000000 5781
Tue Mar 10 00:00:00 GMT 2009 anonymous Flowering dogwood Cornus florida First Flower 39.164300000000000 -86.526900000000000 5879
Thu Mar 26 00:00:00 GMT 2009 anonymous Flowering dogwood Cornus florida Full Flower 39.164300000000000 -86.526900000000000 5880
Tue Apr 07 00:00:00 GMT 2009 anonymous Flowering dogwood Cornus florida End of Flowering 39.164300000000000 -86.526900000000000 5881
Fri Mar 06 00:00:00 GMT 2009 anonymous Flowering dogwood Cornus florida First Flower 39.160000000000000 -86.490000000000000 5904
Sat Mar 28 00:00:00 GMT 2009 anonymous Flowering dogwood Cornus florida Full Flower 39.160000000000000 -86.490000000000000 5905
Tue Apr 14 00:00:00 GMT 2009 birdfoot Flowering dogwood Cornus florida First Flower 38.920800000000000 -77.325000000000000 5900
Fri Apr 17 00:00:00 GMT 2009 anonymous Flowering dogwood Cornus florida First Leaf 38.990000000000000 -77.080000000000000 5940
Fri Mar 27 00:00:00 GMT 2009 anonymous Flowering dogwood Cornus florida First Flower 39.160000000000000 -86.490000000000000 5936
Sun Apr 19 00:00:00 GMT 2009 ty5734mullen@yahoo.com Flowering dogwood Cornus florida First Flower 39.461400000000000 -77.309400000000000 5833
Fri Mar 06 00:00:00 GMT 2009 anonymous Flowering dogwood Cornus florida First Leaf 39.140000000000000 -86.620000000000000 6025
Fri Mar 27 00:00:00 GMT 2009 anonymous Flowering dogwood Cornus florida All Leaves Unfolded 39.140000000000000 -86.620000000000000 6026
Fri Mar 06 00:00:00 GMT 2009 anonymous Flowering dogwood Cornus florida First Flower 39.160000000000000 -86.490000000000000 6047
Fri Mar 27 00:00:00 GMT 2009 anonymous Flowering dogwood Cornus florida Full Flower 39.160000000000000 -86.490000000000000 6048
Fri Mar 06 00:00:00 GMT 2009 anonymous Flowering dogwood Cornus florida First Flower 39.160000000000000 -86.490000000000000 6049
Fri Mar 27 00:00:00 GMT 2009 anonymous Flowering dogwood Cornus florida Full Flower 39.160000000000000 -86.490000000000000 6050
Sun Apr 19 00:00:00 GMT 2009 jmchris Flowering dogwood Cornus florida First Flower 39.252800000000000 -75.914300000000000 6127
Thu Mar 12 00:00:00 GMT 2009 anonymous Flowering dogwood Cornus florida First Leaf 39.160000000000000 -86.490000000000000 6132
Mon Mar 23 00:00:00 GMT 2009 anonymous Flowering dogwood Cornus florida All Leaves Unfolded 39.160000000000000 -86.490000000000000 6133
Sat Feb 28 00:00:00 GMT 2009 anonymous Flowering dogwood Cornus florida First Leaf 39.164300000000000 -86.526900000000000 6192
Sat Apr 04 00:00:00 GMT 2009 anonymous Flowering dogwood Cornus florida All Leaves Unfolded 39.164300000000000 -86.526900000000000 6193
Sun Mar 15 00:00:00 GMT 2009 anonymous Flowering dogwood Cornus florida First Flower 39.164300000000000 -86.526900000000000 6194
Sat Apr 04 00:00:00 GMT 2009 anonymous Flowering dogwood Cornus florida Full Flower 39.164300000000000 -86.526900000000000 6195
Sat Mar 28 00:00:00 GMT 2009 anonymous Flowering dogwood Cornus florida First Ripe Fruit 39.164300000000000 -86.526900000000000 6196
Sat Mar 28 00:00:00 GMT 2009 anonymous Flowering dogwood Cornus florida 50% Color 39.164300000000000 -86.526900000000000 6197
Fri Apr 17 00:00:00 GMT 2009 cory Flowering dogwood Cornus florida First Leaf 38.990000000000000 -77.080000000000000 6265
Sun Mar 22 00:00:00 GMT 2009 anonymous Flowering dogwood Cornus florida First Leaf 39.170600000000000 -86.512500000000000 6096
Sun Mar 29 00:00:00 GMT 2009 anonymous Flowering dogwood Cornus florida All Leaves Unfolded 39.170600000000000 -86.512500000000000 6097
Sun Mar 01 00:00:00 GMT 2009 anonymous Flowering dogwood Cornus florida First Flower 39.170600000000000 -86.512500000000000 6098
Fri Apr 17 00:00:00 GMT 2009 jenulsh@northhempstead.com Flowering dogwood Cornus florida First Leaf 40.705500000000000 -73.448900000000000 6382
Fri Apr 17 00:00:00 GMT 2009 jenulsh@northhempstead.com Flowering dogwood Cornus florida First Leaf 40.705500000000000 -73.448900000000000 6383
Fri Apr 17 00:00:00 GMT 2009 anonymous Flowering dogwood Cornus florida First Flower 39.000000000000000 -86.000000000000000 6369
Tue Apr 07 00:00:00 GMT 2009 davisse Flowering dogwood Cornus florida First Leaf 39.160000000000000 -86.490000000000000 6301
Fri Apr 17 00:00:00 GMT 2009 International School of Chapel Hill Flowering dogwood Cornus florida Full Flower 35.933900000000000 -79.009200000000000 6371
Mon Mar 16 00:00:00 GMT 2009 maryfryan Flowering dogwood Cornus florida First Leaf 32.586500000000000 -96.756300000000000 6502
Thu Apr 02 00:00:00 GMT 2009 maryfryan Flowering dogwood Cornus florida All Leaves Unfolded 32.586500000000000 -96.756300000000000 6503
Sun Apr 19 00:00:00 GMT 2009 anonymous Flowering dogwood Cornus florida Full Flower 39.012800000000000 -121.069000000000000 6508
Wed Apr 22 00:00:00 GMT 2009 szurolo Flowering dogwood Cornus florida First Leaf 41.262500000000000 -73.073900000000000 6520
Mon Apr 20 00:00:00 GMT 2009 chagen Flowering dogwood Cornus florida First Flower 40.165600000000000 -75.227200000000000 6480
Fri Apr 24 00:00:00 GMT 2009 KELLEYS ISLAND Flowering dogwood Cornus florida First Flower 41.473400000000000 -81.802500000000000 6662
Thu Apr 16 00:00:00 GMT 2009 kathyfell Flowering dogwood Cornus florida First Leaf 36.765900000000000 -79.965800000000000 6669
Fri Apr 24 00:00:00 GMT 2009 kathyfell Flowering dogwood Cornus florida All Leaves Unfolded 36.765900000000000 -79.965800000000000 6670
Sun Apr 26 00:00:00 GMT 2009 kathyfell Flowering dogwood Cornus florida First Flower 36.765900000000000 -79.965800000000000 6671
Sat Apr 25 00:00:00 GMT 2009 szurolo Flowering dogwood Cornus florida All Leaves Unfolded 41.262500000000000 -73.073900000000000 6647
Mon Mar 09 00:00:00 GMT 2009 anonymous Flowering dogwood Cornus florida First Leaf 39.180000000000000 -86.550000000000000 6733
Mon Mar 23 00:00:00 GMT 2009 anonymous Flowering dogwood Cornus florida All Leaves Unfolded 39.180000000000000 -86.550000000000000 6734
Mon Mar 23 00:00:00 GMT 2009 anonymous Flowering dogwood Cornus florida First Flower 39.180000000000000 -86.550000000000000 6735
Mon Mar 30 00:00:00 GMT 2009 anonymous Flowering dogwood Cornus florida Full Flower 39.180000000000000 -86.550000000000000 6736
Mon Mar 30 00:00:00 GMT 2009 anonymous Flowering dogwood Cornus florida End of Flowering 39.180000000000000 -86.550000000000000 6737
Mon Mar 30 00:00:00 GMT 2009 anonymous Flowering dogwood Cornus florida First Ripe Fruit 39.180000000000000 -86.550000000000000 6738
Tue Apr 28 00:00:00 GMT 2009 kathyfell Flowering dogwood Cornus florida Full Flower 36.765900000000000 -79.965800000000000 6721
Tue Apr 28 00:00:00 GMT 2009 szurolo Flowering dogwood Cornus florida First Flower 41.262500000000000 -73.073900000000000 6757
Sat Apr 25 00:00:00 GMT 2009 leeandbarbara@verizon.net Flowering dogwood Cornus florida First Leaf 40.230800000000000 -74.017800000000000 6801
Wed Apr 29 00:00:00 GMT 2009 leeandbarbara@verizon.net Flowering dogwood Cornus florida All Leaves Unfolded 40.230800000000000 -74.017800000000000 6802
Fri Apr 24 00:00:00 GMT 2009 leeandbarbara@verizon.net Flowering dogwood Cornus florida First Flower 40.230800000000000 -74.017800000000000 6803
Mon Apr 27 00:00:00 GMT 2009 leeandbarbara@verizon.net Flowering dogwood Cornus florida Full Flower 40.230800000000000 -74.017800000000000 6804
Sat Apr 25 00:00:00 GMT 2009 leeandbarbara@verizon.net Flowering dogwood Cornus florida First Leaf 40.230800000000000 -74.017800000000000 6797
Wed Apr 29 00:00:00 GMT 2009 leeandbarbara@verizon.net Flowering dogwood Cornus florida All Leaves Unfolded 40.230800000000000 -74.017800000000000 6798
Fri Apr 24 00:00:00 GMT 2009 leeandbarbara@verizon.net Flowering dogwood Cornus florida First Flower 40.230800000000000 -74.017800000000000 6799
Mon Apr 27 00:00:00 GMT 2009 leeandbarbara@verizon.net Flowering dogwood Cornus florida Full Flower 40.230800000000000 -74.017800000000000 6800
Wed Apr 29 00:00:00 GMT 2009 szurolo Flowering dogwood Cornus florida Full Flower 41.262500000000000 -73.073900000000000 6805
Sun Apr 26 00:00:00 GMT 2009 momck Flowering dogwood Cornus florida First Flower 40.064400000000000 -80.717900000000000 6761
Tue Apr 28 00:00:00 GMT 2009 anonymous Flowering dogwood Cornus florida First Leaf 42.969800000000000 -85.692500000000000 6903
Fri May 01 00:00:00 GMT 2009 debeagle1 Flowering dogwood Cornus florida 50% Leaf Fall 35.860500000000000 -83.953400000000000 6906
Fri May 01 00:00:00 GMT 2009 compobs Flowering dogwood Cornus florida First Leaf 45.379400000000000 -93.076700000000000 6932
Mon May 04 00:00:00 GMT 2009 kathyfell Flowering dogwood Cornus florida End of Flowering 36.765900000000000 -79.965800000000000 6937
Sun Apr 19 00:00:00 GMT 2009 anonymous Flowering dogwood Cornus florida First Flower 38.863500000000000 -77.299300000000000 7134
Tue Apr 14 00:00:00 GMT 2009 anonymous Flowering dogwood Cornus florida First Leaf 39.827000000000000 -75.614600000000000 7208
Sat Apr 18 00:00:00 GMT 2009 anonymous Flowering dogwood Cornus florida All Leaves Unfolded 39.827000000000000 -75.614600000000000 7209
Fri Apr 24 00:00:00 GMT 2009 anonymous Flowering dogwood Cornus florida First Flower 39.827000000000000 -75.614600000000000 7210
Fri May 01 00:00:00 GMT 2009 anonymous Flowering dogwood Cornus florida Full Flower 39.827000000000000 -75.614600000000000 7211
Thu Feb 26 00:00:00 GMT 2009 Schulz yard Flowering dogwood Cornus florida First Leaf 34.788400000000000 -92.405400000000000 7265
Sat Mar 07 00:00:00 GMT 2009 Schulz yard Flowering dogwood Cornus florida All Leaves Unfolded 34.788400000000000 -92.405400000000000 7266
Sun Mar 15 00:00:00 GMT 2009 Schulz yard Flowering dogwood Cornus florida First Flower 34.788400000000000 -92.405400000000000 7267
Thu Apr 23 00:00:00 GMT 2009 Schulz yard Flowering dogwood Cornus florida Full Flower 34.788400000000000 -92.405400000000000 7268
Fri May 01 00:00:00 GMT 2009 Schulz yard Flowering dogwood Cornus florida End of Flowering 34.788400000000000 -92.405400000000000 7269
Mon Mar 16 00:00:00 GMT 2009 N R Gates Flowering dogwood Cornus florida First Leaf 31.983800000000000 -95.334300000000000 7383
Mon Mar 09 00:00:00 GMT 2009 N R Gates Flowering dogwood Cornus florida First Flower 31.983800000000000 -95.334300000000000 7384
Wed Mar 11 00:00:00 GMT 2009 N R Gates Flowering dogwood Cornus florida Full Flower 31.983800000000000 -95.334300000000000 7385
Sat Mar 14 00:00:00 GMT 2009 anonymous Flowering dogwood Cornus florida First Leaf 35.150000000000000 -80.800000000000000 7413
Mon Mar 16 00:00:00 GMT 2009 anonymous Flowering dogwood Cornus florida All Leaves Unfolded 35.150000000000000 -80.800000000000000 7414
Tue Mar 17 00:00:00 GMT 2009 anonymous Flowering dogwood Cornus florida First Flower 35.150000000000000 -80.800000000000000 7415
Wed Mar 18 00:00:00 GMT 2009 anonymous Flowering dogwood Cornus florida Full Flower 35.150000000000000 -80.800000000000000 7416
Fri Mar 20 00:00:00 GMT 2009 anonymous Flowering dogwood Cornus florida End of Flowering 35.150000000000000 -80.800000000000000 7417
Thu Mar 26 00:00:00 GMT 2009 anonymous Flowering dogwood Cornus florida First Ripe Fruit 35.150000000000000 -80.800000000000000 7418
Mon Mar 30 00:00:00 GMT 2009 anonymous Flowering dogwood Cornus florida 50% Color 35.150000000000000 -80.800000000000000 7419
Mon Apr 06 00:00:00 GMT 2009 anonymous Flowering dogwood Cornus florida 50% Leaf Fall 35.150000000000000 -80.800000000000000 7420
Tue May 12 00:00:00 GMT 2009 jimmyallen Flowering dogwood Cornus florida First Flower 42.969800000000000 -85.692500000000000 7435
Sat Apr 04 00:00:00 GMT 2009 anonymous Flowering dogwood Cornus florida First Leaf 35.092500000000000 -80.484100000000000 7441
Tue Apr 14 00:00:00 GMT 2009 anonymous Flowering dogwood Cornus florida All Leaves Unfolded 35.092500000000000 -80.484100000000000 7442
Sat Mar 14 00:00:00 GMT 2009 anonymous Flowering dogwood Cornus florida First Flower 35.092500000000000 -80.484100000000000 7443
Fri Mar 20 00:00:00 GMT 2009 anonymous Flowering dogwood Cornus florida Full Flower 35.092500000000000 -80.484100000000000 7444
Mon Mar 30 00:00:00 GMT 2009 anonymous Flowering dogwood Cornus florida End of Flowering 35.092500000000000 -80.484100000000000 7445
Mon May 04 00:00:00 GMT 2009 clehn Flowering dogwood Cornus florida All Leaves Unfolded 41.512000000000000 -81.610400000000000 7461
Wed May 06 00:00:00 GMT 2009 clehn Flowering dogwood Cornus florida First Flower 41.512000000000000 -81.610400000000000 7462
Sat May 16 00:00:00 GMT 2009 robs57 Flowering dogwood Cornus florida End of Flowering 39.186300000000000 -76.838500000000000 7578
Fri May 01 00:00:00 GMT 2009 momck Flowering dogwood Cornus florida First Leaf 40.064400000000000 -80.717900000000000 7612
Wed May 13 00:00:00 GMT 2009 momck Flowering dogwood Cornus florida All Leaves Unfolded 40.064400000000000 -80.717900000000000 7613
Sun May 03 00:00:00 GMT 2009 klanderson Flowering dogwood Cornus florida End of Flowering 38.636800000000000 -76.606500000000000 7643
Mon May 18 00:00:00 GMT 2009 jimmyallen Flowering dogwood Cornus florida All Leaves Unfolded 42.969800000000000 -85.692500000000000 7919
Tue May 05 00:00:00 GMT 2009 jimmyallen Flowering dogwood Cornus florida Full Flower 42.969800000000000 -85.692500000000000 7920
Thu May 14 00:00:00 GMT 2009 jimmyallen Flowering dogwood Cornus florida End of Flowering 42.969800000000000 -85.692500000000000 7921
Tue May 26 00:00:00 GMT 2009 anonymous Flowering dogwood Cornus florida First Leaf 43.238700000000000 -70.814000000000000 8033
Tue Apr 14 00:00:00 GMT 2009 KShaw Flowering dogwood Cornus florida First Leaf 38.926500000000000 -77.339500000000000 8057
Mon Apr 20 00:00:00 GMT 2009 KShaw Flowering dogwood Cornus florida All Leaves Unfolded 38.926500000000000 -77.339500000000000 8058
Sat Apr 25 00:00:00 GMT 2009 KShaw Flowering dogwood Cornus florida First Flower 38.926500000000000 -77.339500000000000 8059
Mon Apr 27 00:00:00 GMT 2009 KShaw Flowering dogwood Cornus florida Full Flower 38.926500000000000 -77.339500000000000 8060
Wed May 06 00:00:00 GMT 2009 KShaw Flowering dogwood Cornus florida End of Flowering 38.926500000000000 -77.339500000000000 8061
Fri May 01 00:00:00 GMT 2009 jwiley Flowering dogwood Cornus florida First Leaf 42.052200000000000 -76.064500000000000 8115
Fri May 15 00:00:00 GMT 2009 jwiley Flowering dogwood Cornus florida All Leaves Unfolded 42.052200000000000 -76.064500000000000 8116
Sun Apr 26 00:00:00 GMT 2009 jwiley Flowering dogwood Cornus florida First Flower 42.052200000000000 -76.064500000000000 8117
Wed May 20 00:00:00 GMT 2009 jwiley Flowering dogwood Cornus florida Full Flower 42.052200000000000 -76.064500000000000 8118
Sun May 24 00:00:00 GMT 2009 jwiley Flowering dogwood Cornus florida End of Flowering 42.052200000000000 -76.064500000000000 8119
Fri May 29 00:00:00 GMT 2009 blynnj Flowering dogwood Cornus florida First Leaf 43.236500000000000 -70.811700000000000 8137
Tue Jun 02 00:00:00 GMT 2009 blynnj Flowering dogwood Cornus florida All Leaves Unfolded 43.236500000000000 -70.811700000000000 8138
Sat May 30 00:00:00 GMT 2009 compobs Flowering dogwood Cornus florida First Flower 45.379400000000000 -93.076700000000000 8257
Mon Jun 01 00:00:00 GMT 2009 compobs Flowering dogwood Cornus florida Full Flower 45.379400000000000 -93.076700000000000 8258
Tue Sep 01 00:00:00 GMT 2009 momck Flowering dogwood Cornus florida 50% Color 40.064400000000000 -80.717900000000000 8593
Sun Apr 19 00:00:00 GMT 2009 plants Flowering dogwood Cornus florida First Leaf 38.883800000000000 -77.241900000000000 8595
Wed Apr 22 00:00:00 GMT 2009 plants Flowering dogwood Cornus florida All Leaves Unfolded 38.883800000000000 -77.241900000000000 8596
Thu Apr 09 00:00:00 GMT 2009 plants Flowering dogwood Cornus florida First Flower 38.883800000000000 -77.241900000000000 8597
Fri Apr 17 00:00:00 GMT 2009 plants Flowering dogwood Cornus florida Full Flower 38.883800000000000 -77.241900000000000 8598
Wed Sep 09 00:00:00 GMT 2009 plants Flowering dogwood Cornus florida 50% Color 38.883800000000000 -77.241900000000000 8599
Thu Sep 10 00:00:00 GMT 2009 jwiley Flowering dogwood Cornus florida First Ripe Fruit 42.052200000000000 -76.064500000000000 8604
Sat Oct 10 00:00:00 GMT 2009 spaceshiprepairman Flowering dogwood Cornus florida 50% Leaf Fall 36.976200000000000 -85.572900000000000 8767
Wed Apr 22 00:00:00 GMT 2009 anonymous Flowering dogwood Cornus florida First Leaf 39.066800000000000 -76.996900000000000 9016
Thu Sep 17 00:00:00 GMT 2009 anonymous Flowering dogwood Cornus florida First Ripe Fruit 39.066800000000000 -76.996900000000000 9017
Sat Mar 27 00:00:00 GMT 2010 Tasha.Berg Flowering dogwood Cornus florida First Leaf 37.541100000000000 -77.536400000000000 9322
Wed Mar 31 00:00:00 GMT 2010 Georgiaberry Flowering dogwood Cornus florida Full Flower 33.153700000000000 -93.504100000000000 9344
Fri Mar 05 00:00:00 GMT 2010 leelee2j Flowering dogwood Cornus florida First Leaf 39.106600000000000 -86.582000000000000 9422
Fri Mar 19 00:00:00 GMT 2010 leelee2j Flowering dogwood Cornus florida All Leaves Unfolded 39.106600000000000 -86.582000000000000 9423
Fri Apr 02 00:00:00 GMT 2010 leelee2j Flowering dogwood Cornus florida First Flower 39.106600000000000 -86.582000000000000 9424
Sun Apr 04 00:00:00 GMT 2010 cory Flowering dogwood Cornus florida First Leaf 38.990000000000000 -77.080000000000000 9419
Mon Apr 05 00:00:00 GMT 2010 anonymous Flowering dogwood Cornus florida First Flower 37.778800000000000 -87.151300000000000 9460
Mon Apr 05 00:00:00 GMT 2010 maryannbryant1@gmail.com Flowering dogwood Cornus florida First Flower 34.427100000000000 -84.299400000000000 9491
Thu Apr 01 00:00:00 GMT 2010 lamingtons Flowering dogwood Cornus florida First Leaf 33.991500000000000 -83.445300000000000 9547
Mon Apr 12 00:00:00 GMT 2010 lamingtons Flowering dogwood Cornus florida All Leaves Unfolded 33.991500000000000 -83.445300000000000 9548
Sat Apr 03 00:00:00 GMT 2010 lamingtons Flowering dogwood Cornus florida First Flower 33.991500000000000 -83.445300000000000 9549
Mon Apr 05 00:00:00 GMT 2010 lamingtons Flowering dogwood Cornus florida Full Flower 33.991500000000000 -83.445300000000000 9550
Wed Mar 24 00:00:00 GMT 2010 anonymous Flowering dogwood Cornus florida First Leaf 39.164200000000000 -86.522500000000000 9571
Tue Apr 13 00:00:00 GMT 2010 anonymous Flowering dogwood Cornus florida All Leaves Unfolded 39.164200000000000 -86.522500000000000 9572
Wed Mar 24 00:00:00 GMT 2010 anonymous Flowering dogwood Cornus florida First Flower 39.164200000000000 -86.522500000000000 9573
Tue Apr 13 00:00:00 GMT 2010 anonymous Flowering dogwood Cornus florida Full Flower 39.164200000000000 -86.522500000000000 9574
Fri Mar 26 00:00:00 GMT 2010 esrodon Flowering dogwood Cornus florida First Leaf 39.168100000000000 -86.516100000000000 9615
Tue Mar 30 00:00:00 GMT 2010 esrodon Flowering dogwood Cornus florida All Leaves Unfolded 39.168100000000000 -86.516100000000000 9616
Thu Apr 01 00:00:00 GMT 2010 esrodon Flowering dogwood Cornus florida First Flower 39.168100000000000 -86.516100000000000 9617
Mon Apr 05 00:00:00 GMT 2010 esrodon Flowering dogwood Cornus florida Full Flower 39.168100000000000 -86.516100000000000 9618
Sat Apr 10 00:00:00 GMT 2010 esrodon Flowering dogwood Cornus florida End of Flowering 39.168100000000000 -86.516100000000000 9619
Fri Mar 26 00:00:00 GMT 2010 cndonoghue Flowering dogwood Cornus florida First Leaf 39.168100000000000 -86.516100000000000 9610
Tue Mar 30 00:00:00 GMT 2010 cndonoghue Flowering dogwood Cornus florida All Leaves Unfolded 39.168100000000000 -86.516100000000000 9611
Thu Apr 01 00:00:00 GMT 2010 cndonoghue Flowering dogwood Cornus florida First Flower 39.168100000000000 -86.516100000000000 9612
Mon Apr 05 00:00:00 GMT 2010 cndonoghue Flowering dogwood Cornus florida Full Flower 39.168100000000000 -86.516100000000000 9613
Sat Apr 10 00:00:00 GMT 2010 cndonoghue Flowering dogwood Cornus florida End of Flowering 39.168100000000000 -86.516100000000000 9614
Fri Mar 12 00:00:00 GMT 2010 anonymous Flowering dogwood Cornus florida First Leaf 39.800000000000000 -86.370000000000000 9629
Wed Mar 31 00:00:00 GMT 2010 anonymous Flowering dogwood Cornus florida All Leaves Unfolded 39.800000000000000 -86.370000000000000 9630
Tue Apr 13 00:00:00 GMT 2010 anonymous Flowering dogwood Cornus florida Full Flower 39.800000000000000 -86.370000000000000 9631
Wed Mar 31 00:00:00 GMT 2010 anonymous Flowering dogwood Cornus florida All Leaves Unfolded 39.800000000000000 -86.370000000000000 9632
Tue Apr 13 00:00:00 GMT 2010 anonymous Flowering dogwood Cornus florida Full Flower 39.800000000000000 -86.370000000000000 9633
Wed Mar 10 00:00:00 GMT 2010 anonymous Flowering dogwood Cornus florida First Leaf 39.100000000000000 -86.500000000000000 9661
Thu Mar 18 00:00:00 GMT 2010 anonymous Flowering dogwood Cornus florida All Leaves Unfolded 39.100000000000000 -86.500000000000000 9662
Tue Mar 30 00:00:00 GMT 2010 anonymous Flowering dogwood Cornus florida First Flower 39.100000000000000 -86.500000000000000 9663
Wed Mar 10 00:00:00 GMT 2010 anonymous Flowering dogwood Cornus florida First Leaf 39.100000000000000 -86.500000000000000 9658
Thu Mar 18 00:00:00 GMT 2010 anonymous Flowering dogwood Cornus florida All Leaves Unfolded 39.100000000000000 -86.500000000000000 9659
Tue Mar 30 00:00:00 GMT 2010 anonymous Flowering dogwood Cornus florida First Flower 39.100000000000000 -86.500000000000000 9660
Tue Mar 16 00:00:00 GMT 2010 anonymous Flowering dogwood Cornus florida First Leaf 39.168100000000000 -86.516100000000000 9740
Fri Mar 19 00:00:00 GMT 2010 anonymous Flowering dogwood Cornus florida All Leaves Unfolded 39.168100000000000 -86.516100000000000 9741
Sun Apr 04 00:00:00 GMT 2010 anonymous Flowering dogwood Cornus florida First Flower 39.168100000000000 -86.516100000000000 9742
Mon Apr 05 00:00:00 GMT 2010 anonymous Flowering dogwood Cornus florida Full Flower 39.168100000000000 -86.516100000000000 9743
Mon Apr 12 00:00:00 GMT 2010 anonymous Flowering dogwood Cornus florida End of Flowering 39.168100000000000 -86.516100000000000 9744
Thu Mar 11 00:00:00 GMT 2010 anonymous Flowering dogwood Cornus florida First Leaf 39.172600000000000 -86.530900000000000 9753
Tue Apr 06 00:00:00 GMT 2010 anonymous Flowering dogwood Cornus florida All Leaves Unfolded 39.172600000000000 -86.530900000000000 9754
Thu Mar 11 00:00:00 GMT 2010 anonymous Flowering dogwood Cornus florida First Flower 39.172600000000000 -86.530900000000000 9755
Tue Apr 06 00:00:00 GMT 2010 anonymous Flowering dogwood Cornus florida Full Flower 39.172600000000000 -86.530900000000000 9756
Tue Apr 06 00:00:00 GMT 2010 anonymous Flowering dogwood Cornus florida First Ripe Fruit 39.172600000000000 -86.530900000000000 9757
Tue Apr 06 00:00:00 GMT 2010 anonymous Flowering dogwood Cornus florida 50% Color 39.172600000000000 -86.530900000000000 9758
Fri Mar 12 00:00:00 GMT 2010 cndonoghue Flowering dogwood Cornus florida First Leaf 39.168100000000000 -86.516100000000000 9780
Fri Apr 02 00:00:00 GMT 2010 cndonoghue Flowering dogwood Cornus florida All Leaves Unfolded 39.168100000000000 -86.516100000000000 9781
Sun Apr 04 00:00:00 GMT 2010 cndonoghue Flowering dogwood Cornus florida First Flower 39.168100000000000 -86.516100000000000 9782
Thu Apr 08 00:00:00 GMT 2010 cndonoghue Flowering dogwood Cornus florida Full Flower 39.168100000000000 -86.516100000000000 9783
Wed Apr 14 00:00:00 GMT 2010 cndonoghue Flowering dogwood Cornus florida End of Flowering 39.168100000000000 -86.516100000000000 9784
Sun Mar 07 00:00:00 GMT 2010 anonymous Flowering dogwood Cornus florida First Leaf 39.187900000000000 -86.534000000000000 9785
Sun Mar 21 00:00:00 GMT 2010 anonymous Flowering dogwood Cornus florida All Leaves Unfolded 39.187900000000000 -86.534000000000000 9786
Sun Mar 21 00:00:00 GMT 2010 anonymous Flowering dogwood Cornus florida First Flower 39.187900000000000 -86.534000000000000 9787
Sun Apr 04 00:00:00 GMT 2010 anonymous Flowering dogwood Cornus florida Full Flower 39.187900000000000 -86.534000000000000 9788
Mon Mar 15 00:00:00 GMT 2010 anonymous Flowering dogwood Cornus florida First Leaf 39.184000000000000 -86.516900000000000 9805
Fri Mar 19 00:00:00 GMT 2010 anonymous Flowering dogwood Cornus florida All Leaves Unfolded 39.184000000000000 -86.516900000000000 9806
Fri Apr 02 00:00:00 GMT 2010 anonymous Flowering dogwood Cornus florida First Flower 39.184000000000000 -86.516900000000000 9807
Fri Apr 02 00:00:00 GMT 2010 anonymous Flowering dogwood Cornus florida Full Flower 39.184000000000000 -86.516900000000000 9808
Tue Apr 13 00:00:00 GMT 2010 anonymous Flowering dogwood Cornus florida End of Flowering 39.184000000000000 -86.516900000000000 9809
Fri Apr 02 00:00:00 GMT 2010 anonymous Flowering dogwood Cornus florida 50% Color 39.184000000000000 -86.516900000000000 9810
Tue Mar 16 00:00:00 GMT 2010 anonymous Flowering dogwood Cornus florida First Leaf 39.168100000000000 -86.516100000000000 9793
Fri Mar 19 00:00:00 GMT 2010 anonymous Flowering dogwood Cornus florida All Leaves Unfolded 39.168100000000000 -86.516100000000000 9794
Wed Apr 07 00:00:00 GMT 2010 anonymous Flowering dogwood Cornus florida First Flower 39.168100000000000 -86.516100000000000 9795
Fri Apr 09 00:00:00 GMT 2010 anonymous Flowering dogwood Cornus florida Full Flower 39.168100000000000 -86.516100000000000 9796
Mon Apr 12 00:00:00 GMT 2010 anonymous Flowering dogwood Cornus florida End of Flowering 39.168100000000000 -86.516100000000000 9797
Fri Mar 05 00:00:00 GMT 2010 anonymous Flowering dogwood Cornus florida First Leaf 39.183800000000000 -86.516900000000000 9811
Fri Mar 19 00:00:00 GMT 2010 anonymous Flowering dogwood Cornus florida All Leaves Unfolded 39.183800000000000 -86.516900000000000 9812
Fri Apr 02 00:00:00 GMT 2010 anonymous Flowering dogwood Cornus florida First Flower 39.183800000000000 -86.516900000000000 9813
Fri Apr 02 00:00:00 GMT 2010 anonymous Flowering dogwood Cornus florida Full Flower 39.183800000000000 -86.516900000000000 9814
Tue Apr 13 00:00:00 GMT 2010 anonymous Flowering dogwood Cornus florida End of Flowering 39.183800000000000 -86.516900000000000 9815
Fri Apr 02 00:00:00 GMT 2010 anonymous Flowering dogwood Cornus florida 50% Color 39.183800000000000 -86.516900000000000 9816
Mon Mar 08 00:00:00 GMT 2010 anonymous Flowering dogwood Cornus florida First Leaf 39.165300000000000 -86.526400000000000 9838
Mon Mar 22 00:00:00 GMT 2010 anonymous Flowering dogwood Cornus florida All Leaves Unfolded 39.165300000000000 -86.526400000000000 9839
Mon Apr 05 00:00:00 GMT 2010 anonymous Flowering dogwood Cornus florida First Flower 39.165300000000000 -86.526400000000000 9840
Thu Mar 11 00:00:00 GMT 2010 anonymous Flowering dogwood Cornus florida First Leaf 39.172600000000000 -86.530900000000000 9862
Tue Apr 06 00:00:00 GMT 2010 anonymous Flowering dogwood Cornus florida All Leaves Unfolded 39.172600000000000 -86.530900000000000 9863
Tue Apr 06 00:00:00 GMT 2010 anonymous Flowering dogwood Cornus florida First Flower 39.172600000000000 -86.530900000000000 9864
Tue Apr 06 00:00:00 GMT 2010 anonymous Flowering dogwood Cornus florida Full Flower 39.172600000000000 -86.530900000000000 9865
Tue Apr 06 00:00:00 GMT 2010 anonymous Flowering dogwood Cornus florida First Ripe Fruit 39.172600000000000 -86.530900000000000 9866
Tue Apr 06 00:00:00 GMT 2010 anonymous Flowering dogwood Cornus florida 50% Color 39.172600000000000 -86.530900000000000 9867
Mon Mar 08 00:00:00 GMT 2010 anonymous Flowering dogwood Cornus florida First Leaf 39.165300000000000 -86.526400000000000 9858
Thu Apr 08 00:00:00 GMT 2010 anonymous Flowering dogwood Cornus florida All Leaves Unfolded 39.165300000000000 -86.526400000000000 9859
Mon Mar 01 00:00:00 GMT 2010 anonymous Flowering dogwood Cornus florida First Flower 39.165300000000000 -86.526400000000000 9860
Mon Mar 08 00:00:00 GMT 2010 anonymous Flowering dogwood Cornus florida Full Flower 39.165300000000000 -86.526400000000000 9861
Tue Apr 06 00:00:00 GMT 2010 Jingles Flowering dogwood Cornus florida First Leaf 39.826100000000000 -75.615600000000000 9956
Sat Apr 10 00:00:00 GMT 2010 Jingles Flowering dogwood Cornus florida All Leaves Unfolded 39.826100000000000 -75.615600000000000 9957
Thu Apr 08 00:00:00 GMT 2010 Jingles Flowering dogwood Cornus florida First Flower 39.826100000000000 -75.615600000000000 9958
Fri Apr 09 00:00:00 GMT 2010 Jingles Flowering dogwood Cornus florida Full Flower 39.826100000000000 -75.615600000000000 9959
Sat Mar 13 00:00:00 GMT 2010 lenoremartin Flowering dogwood Cornus florida First Leaf 35.913200000000000 -79.055800000000000 9983
Sat Mar 27 00:00:00 GMT 2010 lenoremartin Flowering dogwood Cornus florida All Leaves Unfolded 35.913200000000000 -79.055800000000000 9984
Mon Apr 05 00:00:00 GMT 2010 lenoremartin Flowering dogwood Cornus florida First Flower 35.913200000000000 -79.055800000000000 9985
Mon Apr 12 00:00:00 GMT 2010 lenoremartin Flowering dogwood Cornus florida Full Flower 35.913200000000000 -79.055800000000000 9986
Tue Apr 20 00:00:00 GMT 2010 lenoremartin Flowering dogwood Cornus florida End of Flowering 35.913200000000000 -79.055800000000000 9987
Mon Apr 12 00:00:00 GMT 2010 cory Flowering dogwood Cornus florida First Flower 38.990000000000000 -77.080000000000000 10016
Mon Apr 12 00:00:00 GMT 2010 cory Flowering dogwood Cornus florida First Flower 38.990000000000000 -77.080000000000000 10019
Sat Mar 27 00:00:00 GMT 2010 boggs11 Flowering dogwood Cornus florida First Leaf 37.559100000000000 -79.084300000000000 10036
Tue Apr 13 00:00:00 GMT 2010 boggs11 Flowering dogwood Cornus florida All Leaves Unfolded 37.559100000000000 -79.084300000000000 10037
Mon Mar 29 00:00:00 GMT 2010 boggs11 Flowering dogwood Cornus florida First Flower 37.559100000000000 -79.084300000000000 10038
Wed Apr 21 00:00:00 GMT 2010 lleavell Flowering dogwood Cornus florida End of Flowering 33.933600000000000 -83.377600000000000 10066
Thu Mar 25 00:00:00 GMT 2010 anonymous Flowering dogwood Cornus florida First Leaf 36.924800000000000 -80.020900000000000 10508
Fri Apr 02 00:00:00 GMT 2010 anonymous Flowering dogwood Cornus florida First Flower 36.924800000000000 -80.020900000000000 10509
Mon Apr 19 00:00:00 GMT 2010 anonymous Flowering dogwood Cornus florida Full Flower 36.924800000000000 -80.020900000000000 10510
Mon Mar 29 00:00:00 GMT 2010 anonymous Flowering dogwood Cornus florida First Flower 36.925000000000000 -80.021400000000000 10502
Sat Apr 03 00:00:00 GMT 2010 anonymous Flowering dogwood Cornus florida Full Flower 36.925000000000000 -80.021400000000000 10503
Thu Apr 08 00:00:00 GMT 2010 anonymous Flowering dogwood Cornus florida End of Flowering 36.925000000000000 -80.021400000000000 10504
Sat Mar 27 00:00:00 GMT 2010 anonymous Flowering dogwood Cornus florida First Leaf 35.078700000000000 -80.783000000000000 10582
Tue Mar 30 00:00:00 GMT 2010 anonymous Flowering dogwood Cornus florida All Leaves Unfolded 35.078700000000000 -80.783000000000000 10583
Sun Apr 04 00:00:00 GMT 2010 Jingles Flowering dogwood Cornus florida First Leaf 39.826100000000000 -75.615600000000000 10796
Sat Apr 17 00:00:00 GMT 2010 Jingles Flowering dogwood Cornus florida All Leaves Unfolded 39.826100000000000 -75.615600000000000 10797
Sun Apr 25 00:00:00 GMT 2010 Jingles Flowering dogwood Cornus florida First Flower 39.826100000000000 -75.615600000000000 10798
Sat May 15 00:00:00 GMT 2010 Jingles Flowering dogwood Cornus florida End of Flowering 39.826100000000000 -75.615600000000000 10799
Wed Apr 07 00:00:00 GMT 2010 KShaw Flowering dogwood Cornus florida First Leaf 38.926500000000000 -77.339500000000000 10996
Sat Apr 10 00:00:00 GMT 2010 KShaw Flowering dogwood Cornus florida All Leaves Unfolded 38.926500000000000 -77.339500000000000 10997
Fri Apr 02 00:00:00 GMT 2010 SusannahPrindle Flowering dogwood Cornus florida First Leaf 39.096700000000000 -77.023900000000000 11080
Mon Apr 12 00:00:00 GMT 2010 SusannahPrindle Flowering dogwood Cornus florida All Leaves Unfolded 39.096700000000000 -77.023900000000000 11081
Tue Apr 06 00:00:00 GMT 2010 SusannahPrindle Flowering dogwood Cornus florida Full Flower 39.096700000000000 -77.023900000000000 11082
Mon Apr 26 00:00:00 GMT 2010 SusannahPrindle Flowering dogwood Cornus florida End of Flowering 39.096700000000000 -77.023900000000000 11083
Sat Apr 17 00:00:00 GMT 2010 vanndawn Flowering dogwood Cornus florida First Flower 38.996400000000000 -92.613100000000000 11306
Mon May 03 00:00:00 GMT 2010 vanndawn Flowering dogwood Cornus florida End of Flowering 38.996400000000000 -92.613100000000000 11307
Sun Apr 26 00:00:00 GMT 2009 vanndawn Flowering dogwood Cornus florida First Leaf 38.996400000000000 -92.613100000000000 11302
Thu Apr 23 00:00:00 GMT 2009 vanndawn Flowering dogwood Cornus florida First Flower 38.996400000000000 -92.613100000000000 11303
Sat May 09 00:00:00 GMT 2009 vanndawn Flowering dogwood Cornus florida End of Flowering 38.996400000000000 -92.613100000000000 11304
Sun Sep 06 00:00:00 GMT 2009 vanndawn Flowering dogwood Cornus florida First Ripe Fruit 38.996400000000000 -92.613100000000000 11305
Sun Apr 11 00:00:00 GMT 2010 anonymous Flowering dogwood Cornus florida First Leaf 41.423800000000000 -81.421300000000000 11345
Mon May 03 00:00:00 GMT 2010 anonymous Flowering dogwood Cornus florida All Leaves Unfolded 41.423800000000000 -81.421300000000000 11346
Wed Apr 28 00:00:00 GMT 2010 anonymous Flowering dogwood Cornus florida First Flower 41.423800000000000 -81.421300000000000 11347
Mon May 10 00:00:00 GMT 2010 anonymous Flowering dogwood Cornus florida Full Flower 41.423800000000000 -81.421300000000000 11348
Sun May 16 00:00:00 GMT 2010 anonymous Flowering dogwood Cornus florida End of Flowering 41.423800000000000 -81.421300000000000 11349
Tue Aug 17 00:00:00 GMT 2010 anonymous Flowering dogwood Cornus florida First Ripe Fruit 41.423800000000000 -81.421300000000000 11350
Thu Sep 16 00:00:00 GMT 2010 anonymous Flowering dogwood Cornus florida 50% Color 41.423800000000000 -81.421300000000000 11351
Tue Oct 12 00:00:00 GMT 2010 anonymous Flowering dogwood Cornus florida 50% Leaf Fall 41.423800000000000 -81.421300000000000 11352
Fri Apr 02 00:00:00 GMT 2010 SusannahPrindle Flowering dogwood Cornus florida First Leaf 39.096700000000000 -77.023900000000000 11633
Mon Apr 12 00:00:00 GMT 2010 SusannahPrindle Flowering dogwood Cornus florida All Leaves Unfolded 39.096700000000000 -77.023900000000000 11634
Tue Apr 06 00:00:00 GMT 2010 SusannahPrindle Flowering dogwood Cornus florida Full Flower 39.096700000000000 -77.023900000000000 11635
Mon Apr 26 00:00:00 GMT 2010 SusannahPrindle Flowering dogwood Cornus florida End of Flowering 39.096700000000000 -77.023900000000000 11636
Sun Oct 10 00:00:00 GMT 2010 SusannahPrindle Flowering dogwood Cornus florida 50% Color 39.096700000000000 -77.023900000000000 11637
Wed Nov 17 00:00:00 GMT 2010 SusannahPrindle Flowering dogwood Cornus florida 50% Leaf Fall 39.096700000000000 -77.023900000000000 11638
Mon Feb 21 00:00:00 GMT 2011 wieb0031 Flowering dogwood Cornus florida First Leaf 39.100000000000000 -86.300000000000000 11704
Tue Mar 01 00:00:00 GMT 2011 Tasha.Berg Flowering dogwood Cornus florida First Leaf 37.541100000000000 -77.536400000000000 11712
Thu Mar 03 00:00:00 GMT 2011 conraftery Flowering dogwood Cornus florida First Leaf 39.165300000000000 -86.526400000000000 11752
Tue Mar 22 00:00:00 GMT 2011 moranev Flowering dogwood Cornus florida First Flower 35.951300000000000 -83.948200000000000 11771
Tue Mar 15 00:00:00 GMT 2011 Tasha.Berg Flowering dogwood Cornus florida All Leaves Unfolded 37.541100000000000 -77.536400000000000 11756
Tue Mar 22 00:00:00 GMT 2011 Tasha.Berg Flowering dogwood Cornus florida First Flower 37.541100000000000 -77.536400000000000 11757
Tue Mar 22 00:00:00 GMT 2011 emarieqt315 Flowering dogwood Cornus florida First Leaf 35.167200000000000 -85.242100000000000 11775
Fri Mar 25 00:00:00 GMT 2011 Tasha.Berg Flowering dogwood Cornus florida Full Flower 37.541100000000000 -77.536400000000000 11810
Sat Apr 02 00:00:00 GMT 2011 Tasha.Berg Flowering dogwood Cornus florida Full Flower 37.541100000000000 -77.536400000000000 11848
Sun Apr 10 00:00:00 GMT 2011 beckyerick Flowering dogwood Cornus florida First Flower 38.745100000000000 -92.222600000000000 11873
Fri Mar 25 00:00:00 GMT 2011 carolmiserlian@yahoo.com Flowering dogwood Cornus florida First Leaf 30.946300000000000 -95.242900000000000 11881
Mon Apr 11 00:00:00 GMT 2011 carolmiserlian@yahoo.com Flowering dogwood Cornus florida All Leaves Unfolded 30.946300000000000 -95.242900000000000 11882
Tue Mar 15 00:00:00 GMT 2011 carolmiserlian@yahoo.com Flowering dogwood Cornus florida First Flower 30.946300000000000 -95.242900000000000 11883
Mon Mar 14 00:00:00 GMT 2011 carolmiserlian@yahoo.com Flowering dogwood Cornus florida Full Flower 30.946300000000000 -95.242900000000000 11884
Mon Apr 11 00:00:00 GMT 2011 msharasty Flowering dogwood Cornus florida First Flower 40.181400000000000 -74.219900000000000 11889
Sat Apr 02 00:00:00 GMT 2011 cummingl Flowering dogwood Cornus florida First Leaf 39.170700000000000 -86.520600000000000 11919
Sun Apr 10 00:00:00 GMT 2011 cummingl Flowering dogwood Cornus florida All Leaves Unfolded 39.170700000000000 -86.520600000000000 11920
Tue Mar 01 00:00:00 GMT 2011 ccdmrd Flowering dogwood Cornus florida First Leaf 39.168100000000000 -86.509500000000000 11939
Mon Mar 07 00:00:00 GMT 2011 ccdmrd Flowering dogwood Cornus florida All Leaves Unfolded 39.168100000000000 -86.509500000000000 11940
Mon Mar 21 00:00:00 GMT 2011 ccdmrd Flowering dogwood Cornus florida First Flower 39.168100000000000 -86.509500000000000 11941
Fri Apr 01 00:00:00 GMT 2011 ccdmrd Flowering dogwood Cornus florida Full Flower 39.168100000000000 -86.509500000000000 11942
Sat Apr 02 00:00:00 GMT 2011 cummingl Flowering dogwood Cornus florida 50% Color 39.170700000000000 -86.520600000000000 11969
Mon Feb 28 00:00:00 GMT 2011 mechoice Flowering dogwood Cornus florida First Leaf 39.170000000000000 -86.510000000000000 11993
Wed Mar 23 00:00:00 GMT 2011 mechoice Flowering dogwood Cornus florida First Flower 39.170000000000000 -86.510000000000000 11994
Tue Apr 12 00:00:00 GMT 2011 mechoice Flowering dogwood Cornus florida Full Flower 39.170000000000000 -86.510000000000000 11995
Wed Mar 30 00:00:00 GMT 2011 mechoice Flowering dogwood Cornus florida 50% Color 39.170000000000000 -86.510000000000000 11996
Mon Apr 11 00:00:00 GMT 2011 plants Flowering dogwood Cornus florida First Flower 38.883800000000000 -77.241900000000000 12049
Tue Apr 12 00:00:00 GMT 2011 plants Flowering dogwood Cornus florida Full Flower 38.883800000000000 -77.241900000000000 12050
Mon Apr 11 00:00:00 GMT 2011 sarepott Flowering dogwood Cornus florida First Leaf 39.171100000000000 -86.520400000000000 12045
Sun Apr 17 00:00:00 GMT 2011 mglade Flowering dogwood Cornus florida First Leaf 39.168200000000000 -86.493600000000000 12121
Tue Apr 12 00:00:00 GMT 2011 mglade Flowering dogwood Cornus florida First Flower 39.168200000000000 -86.493600000000000 12122
Sun Apr 17 00:00:00 GMT 2011 mglade Flowering dogwood Cornus florida Full Flower 39.168200000000000 -86.493600000000000 12123
Thu Apr 07 00:00:00 GMT 2011 wieb0031 Flowering dogwood Cornus florida First Leaf 39.100000000000000 -86.300000000000000 12120
Fri Apr 08 00:00:00 GMT 2011 brummela Flowering dogwood Cornus florida First Leaf 39.166800000000000 -86.526200000000000 12125
Mon Feb 28 00:00:00 GMT 2011 brummela Flowering dogwood Cornus florida 50% Leaf Fall 39.166800000000000 -86.526200000000000 12126
Thu Apr 15 00:00:00 GMT 2010 jdwhitfi Flowering dogwood Cornus florida First Flower 38.629200000000000 -86.458500000000000 12144
Fri Apr 01 00:00:00 GMT 2011 ausima Flowering dogwood Cornus florida First Leaf 39.018800000000000 -77.072500000000000 12149
Tue Apr 12 00:00:00 GMT 2011 ausima Flowering dogwood Cornus florida All Leaves Unfolded 39.018800000000000 -77.072500000000000 12150
Mon Apr 18 00:00:00 GMT 2011 ausima Flowering dogwood Cornus florida Full Flower 39.018800000000000 -77.072500000000000 12151
Mon Apr 04 00:00:00 GMT 2011 cory Flowering dogwood Cornus florida First Leaf 38.990000000000000 -77.080000000000000 12155
Sat Apr 16 00:00:00 GMT 2011 cory Flowering dogwood Cornus florida All Leaves Unfolded 38.990000000000000 -77.080000000000000 12156
Tue Apr 12 00:00:00 GMT 2011 ausima Flowering dogwood Cornus florida First Flower 39.018800000000000 -77.072500000000000 12226
Mon May 02 00:00:00 GMT 2011 HulaHoop Flowering dogwood Cornus florida First Leaf 41.701600000000000 -72.598200000000000 12273
Wed Apr 27 00:00:00 GMT 2011 HulaHoop Flowering dogwood Cornus florida First Flower 41.701600000000000 -72.598200000000000 12274
Sun May 01 00:00:00 GMT 2011 HulaHoop Flowering dogwood Cornus florida Full Flower 41.701600000000000 -72.598200000000000 12275
Sun Apr 24 00:00:00 GMT 2011 vstanley Flowering dogwood Cornus florida Full Flower 41.456400000000000 -72.811100000000000 12296
Sun Apr 10 00:00:00 GMT 2011 moranev Flowering dogwood Cornus florida Full Flower 35.951300000000000 -83.948200000000000 12392
Sun Apr 10 00:00:00 GMT 2011 moranev Flowering dogwood Cornus florida Full Flower 35.910200000000000 -83.971300000000000 12391
Sun Apr 17 00:00:00 GMT 2011 tommy craft Flowering dogwood Cornus florida First Leaf 41.395800000000000 -72.897200000000000 12455
Wed Apr 27 00:00:00 GMT 2011 tommy craft Flowering dogwood Cornus florida All Leaves Unfolded 41.395800000000000 -72.897200000000000 12456
Thu May 05 00:00:00 GMT 2011 tommy craft Flowering dogwood Cornus florida First Flower 41.395800000000000 -72.897200000000000 12457
Thu Apr 07 00:00:00 GMT 2011 KShaw Flowering dogwood Cornus florida First Leaf 38.926500000000000 -77.339500000000000 12982
Mon Apr 11 00:00:00 GMT 2011 KShaw Flowering dogwood Cornus florida All Leaves Unfolded 38.926500000000000 -77.339500000000000 12983
Fri Apr 15 00:00:00 GMT 2011 KShaw Flowering dogwood Cornus florida First Flower 38.926500000000000 -77.339500000000000 12984
Mon Apr 18 00:00:00 GMT 2011 KShaw Flowering dogwood Cornus florida Full Flower 38.926500000000000 -77.339500000000000 12985
Fri Sep 16 00:00:00 GMT 2011 aswitzer Flowering dogwood Cornus florida Leaves Changing Color (Early) 38.905000000000000 -77.037500000000000 13251
Tue Sep 20 00:00:00 GMT 2011 jstrickler Flowering dogwood Cornus florida Leaves Dropping (Middle) 36.553100000000000 -80.011300000000000 13316
Tue Sep 20 00:00:00 GMT 2011 Khoekstra Flowering dogwood Cornus florida Leaves Changing Color (Middle) 36.550000000000000 -80.010000000000000 13315
Tue Sep 20 00:00:00 GMT 2011 rcrabtree Flowering dogwood Cornus florida All Leaves Unfolded 36.553400000000000 -80.010900000000000 13317
Tue Sep 20 00:00:00 GMT 2011 rcrabtree Flowering dogwood Cornus florida Full Fruiting 36.553400000000000 -80.010900000000000 13318
Tue Sep 20 00:00:00 GMT 2011 Caitibird Flowering dogwood Cornus florida Leaves Changing Color (Middle) 36.000000000000000 -80.000000000000000 13320
Tue Sep 20 00:00:00 GMT 2011 ehodges Flowering dogwood Cornus florida Leaves Changing Color (Early) 36.553500000000000 -80.011100000000000 13319
Tue Sep 20 00:00:00 GMT 2011 aktowt Flowering dogwood Cornus florida Leaves Changing Color (Early) 43.100000000000000 -77.497600000000000 13308
Wed Sep 21 00:00:00 GMT 2011 annieh Flowering dogwood Cornus florida Fruit (Late) 38.000000000000000 -77.048800000000000 13330
Thu Sep 22 00:00:00 GMT 2011 kimmunshower@hotmail.com Flowering dogwood Cornus florida Fruit (Late) 38.490000000000000 -77.140000000000000 13368
Wed Sep 21 00:00:00 GMT 2011 morgan.zwissler Flowering dogwood Cornus florida Leaves Changing Color (Early) 39.444700000000000 -77.965600000000000 13347
Fri Sep 23 00:00:00 GMT 2011 cshipley Flowering dogwood Cornus florida Fruit (Early) 39.000000000000000 -77.000000000000000 13385
Fri Sep 23 00:00:00 GMT 2011 ccalhoun Flowering dogwood Cornus florida Leaves Changing Color (Early) 39.444700000000000 -77.965700000000000 13406
Thu Sep 15 00:00:00 GMT 2011 Carrie DeJaco Flowering dogwood Cornus florida First Ripe Fruit 35.216900000000000 -80.757200000000000 13473
Sat Oct 01 00:00:00 GMT 2011 Carrie DeJaco Flowering dogwood Cornus florida Full Fruiting 35.216900000000000 -80.757200000000000 13474
Sat Oct 01 00:00:00 GMT 2011 Carrie DeJaco Flowering dogwood Cornus florida Leaves Changing Color (Early) 35.216900000000000 -80.757200000000000 13471
Sat Oct 01 00:00:00 GMT 2011 Carrie DeJaco Flowering dogwood Cornus florida Leaves Changing Color (Early) 35.216900000000000 -80.757200000000000 13472
Tue Sep 27 00:00:00 GMT 2011 rsdutton Flowering dogwood Cornus florida Full Fruiting 33.918500000000000 -84.840900000000000 13478
Fri Sep 30 00:00:00 GMT 2011 ash Flowering dogwood Cornus florida 50% Color 38.833600000000000 -77.069800000000000 13496
Tue Sep 27 00:00:00 GMT 2011 cwmartin Flowering dogwood Cornus florida Leaves Changing Color (Late) 36.926000000000000 -80.019400000000000 13498
Tue Sep 20 00:00:00 GMT 2011 ehodges Flowering dogwood Cornus florida Leaves Changing Color (Early) 36.926300000000000 -80.019800000000000 13499
Wed Oct 05 00:00:00 GMT 2011 palaback Flowering dogwood Cornus florida Leaves Changing Color (Middle) 41.785300000000000 -73.730400000000000 13530
Sat May 14 00:00:00 GMT 2011 bholtz Flowering dogwood Cornus florida First Leaf 41.423400000000000 -81.419700000000000 13564
Wed May 18 00:00:00 GMT 2011 bholtz Flowering dogwood Cornus florida All Leaves Unfolded 41.423400000000000 -81.419700000000000 13565
Sun May 01 00:00:00 GMT 2011 bholtz Flowering dogwood Cornus florida First Flower 41.423400000000000 -81.419700000000000 13566
Tue May 10 00:00:00 GMT 2011 bholtz Flowering dogwood Cornus florida Full Flower 41.423400000000000 -81.419700000000000 13567
Thu Sep 08 00:00:00 GMT 2011 bholtz Flowering dogwood Cornus florida Full Fruiting 41.423400000000000 -81.419700000000000 13568
Sat Sep 17 00:00:00 GMT 2011 bholtz Flowering dogwood Cornus florida 50% Color 41.423400000000000 -81.419700000000000 13569
Sun Oct 09 00:00:00 GMT 2011 bholtz Flowering dogwood Cornus florida 50% Leaf Fall 41.423400000000000 -81.419700000000000 13570
Wed Sep 21 00:00:00 GMT 2011 kjminniti Flowering dogwood Cornus florida Leaves Changing Color (Early) 47.719400000000000 -117.393000000000000 13552
Sun Apr 17 00:00:00 GMT 2011 vanndawn Flowering dogwood Cornus florida First Flower 38.996400000000000 -92.613100000000000 13604
Tue Apr 19 00:00:00 GMT 2011 vanndawn Flowering dogwood Cornus florida Full Flower 38.996400000000000 -92.613100000000000 13605
Wed Oct 05 00:00:00 GMT 2011 vanndawn Flowering dogwood Cornus florida First Ripe Fruit 38.996400000000000 -92.613100000000000 13606
Sun Oct 09 00:00:00 GMT 2011 vanndawn Flowering dogwood Cornus florida Full Fruiting 38.996400000000000 -92.613100000000000 13607
Sat Oct 08 00:00:00 GMT 2011 vanndawn Flowering dogwood Cornus florida 50% Color 38.996400000000000 -92.613100000000000 13608
Wed Oct 12 00:00:00 GMT 2011 vanndawn Flowering dogwood Cornus florida 50% Leaf Fall 38.996400000000000 -92.613100000000000 13609
Mon Sep 26 00:00:00 GMT 2011 waverlybigmatt Flowering dogwood Cornus florida Full Fruiting 36.555200000000000 -80.121400000000000 13612
Fri Nov 04 00:00:00 GMT 2011 kjminniti Flowering dogwood Cornus florida 50% Color 47.719400000000000 -117.393000000000000 13804
Tue Apr 05 00:00:00 GMT 2011 SusannahPrindle Flowering dogwood Cornus florida First Leaf 39.096700000000000 -77.023900000000000 13934
Sat Apr 16 00:00:00 GMT 2011 SusannahPrindle Flowering dogwood Cornus florida All Leaves Unfolded 39.096700000000000 -77.023900000000000 13935
Wed Apr 13 00:00:00 GMT 2011 SusannahPrindle Flowering dogwood Cornus florida First Flower 39.096700000000000 -77.023900000000000 13936
Sun Sep 18 00:00:00 GMT 2011 SusannahPrindle Flowering dogwood Cornus florida First Ripe Fruit 39.096700000000000 -77.023900000000000 13937
Mon Oct 10 00:00:00 GMT 2011 SusannahPrindle Flowering dogwood Cornus florida 50% Color 39.096700000000000 -77.023900000000000 13938
Thu Nov 10 00:00:00 GMT 2011 SusannahPrindle Flowering dogwood Cornus florida 50% Leaf Fall 39.096700000000000 -77.023900000000000 13939
Mon Dec 12 00:00:00 GMT 2011 kjminniti Flowering dogwood Cornus florida 50% Leaf Fall 47.719400000000000 -117.393000000000000 13990
Wed Feb 22 00:00:00 GMT 2012 sonyaguidry@yahoo.com Flowering dogwood Cornus florida First Leaf 29.042400000000000 -80.939500000000000 14118
Sat Feb 25 00:00:00 GMT 2012 sonyaguidry@yahoo.com Flowering dogwood Cornus florida First Flower 29.042400000000000 -80.939500000000000 14119
Fri Feb 24 00:00:00 GMT 2012 sonyaguidry@yahoo.com Flowering dogwood Cornus florida All Leaves Unfolded 29.042400000000000 -80.939500000000000 14121
Fri Feb 24 00:00:00 GMT 2012 sonyaguidry@yahoo.com Flowering dogwood Cornus florida All Leaves Unfolded 29.042400000000000 -80.939500000000000 14122
Tue Feb 28 00:00:00 GMT 2012 cshadylane Flowering dogwood Cornus florida First Leaf 30.529700000000000 -95.151100000000000 14202
Tue Mar 06 00:00:00 GMT 2012 cshadylane Flowering dogwood Cornus florida All Leaves Unfolded 30.529700000000000 -95.151100000000000 14203
Fri Mar 09 00:00:00 GMT 2012 cshadylane Flowering dogwood Cornus florida First Flower 30.529700000000000 -95.151100000000000 14204
Thu Mar 08 00:00:00 GMT 2012 schmalbeck@ncssm.edu Flowering dogwood Cornus florida Flowers (Early) 36.007400000000000 -78.911300000000000 14253
Thu Mar 15 00:00:00 GMT 2012 schmalbeck@ncssm.edu Flowering dogwood Cornus florida Flowers (Early) 36.007400000000000 -78.911300000000000 14283
Mon Mar 19 00:00:00 GMT 2012 schmalbeck@ncssm.edu Flowering dogwood Cornus florida Flowers (Middle) 36.007400000000000 -78.911300000000000 14305
Wed Mar 21 00:00:00 GMT 2012 cory Flowering dogwood Cornus florida First Leaf 38.990000000000000 -77.080000000000000 14364
Tue Mar 20 00:00:00 GMT 2012 lsellman Flowering dogwood Cornus florida First Leaf 38.033600000000000 -78.472900000000000 14359
Sun Mar 18 00:00:00 GMT 2012 lsellman Flowering dogwood Cornus florida First Flower 38.033600000000000 -78.472900000000000 14360
Wed Mar 21 00:00:00 GMT 2012 lsellman Flowering dogwood Cornus florida Full Flower 38.033600000000000 -78.472900000000000 14361
Wed Mar 21 00:00:00 GMT 2012 rwh2411 Flowering dogwood Cornus florida First Flower 37.602300000000000 -77.475800000000000 14379
Fri Mar 23 00:00:00 GMT 2012 rwh2411 Flowering dogwood Cornus florida First Leaf 37.602300000000000 -77.475800000000000 14446
Fri Mar 02 00:00:00 GMT 2012 rsdutton Flowering dogwood Cornus florida First Leaf 33.918500000000000 -84.840900000000000 14432
Sun Mar 11 00:00:00 GMT 2012 rsdutton Flowering dogwood Cornus florida All Leaves Unfolded 33.918500000000000 -84.840900000000000 14433
Tue Mar 13 00:00:00 GMT 2012 rsdutton Flowering dogwood Cornus florida First Flower 33.918500000000000 -84.840900000000000 14434
Sat Mar 24 00:00:00 GMT 2012 cory Flowering dogwood Cornus florida All Leaves Unfolded 38.990000000000000 -77.080000000000000 14462
Thu Mar 15 00:00:00 GMT 2012 MikeB45 Flowering dogwood Cornus florida First Leaf 39.640700000000000 -78.089600000000000 14455
Wed Mar 21 00:00:00 GMT 2012 SandraPFry Flowering dogwood Cornus florida First Flower 37.506000000000000 -77.649000000000000 14483
Fri Mar 23 00:00:00 GMT 2012 SandraPFry Flowering dogwood Cornus florida Full Flower 37.506000000000000 -77.649000000000000 14484
Wed Mar 28 00:00:00 GMT 2012 srseavey Flowering dogwood Cornus florida Flowers (Middle) 36.866200000000000 -76.059600000000000 14544
Fri Mar 16 00:00:00 GMT 2012 sonyaguidry@yahoo.com Flowering dogwood Cornus florida Full Flower 29.042400000000000 -80.939500000000000 14589
Sun Mar 04 00:00:00 GMT 2012 Mary Ann Flowering dogwood Cornus florida First Leaf 41.610600000000000 -87.064200000000000 14646
Fri Mar 09 00:00:00 GMT 2012 Mary Ann Flowering dogwood Cornus florida All Leaves Unfolded 41.610600000000000 -87.064200000000000 14647
Mon Mar 26 00:00:00 GMT 2012 Mary Ann Flowering dogwood Cornus florida First Flower 41.610600000000000 -87.064200000000000 14648
Sun Apr 01 00:00:00 GMT 2012 Mary Ann Flowering dogwood Cornus florida Full Flower 41.610600000000000 -87.064200000000000 14649
Wed Mar 28 00:00:00 GMT 2012 tuckerasso Flowering dogwood Cornus florida First Flower 37.231600000000000 -76.663600000000000 14709
Fri Mar 30 00:00:00 GMT 2012 tuckerasso Flowering dogwood Cornus florida Full Flower 37.231600000000000 -76.663600000000000 14710
Thu Mar 22 00:00:00 GMT 2012 mebrown Flowering dogwood Cornus florida All Leaves Unfolded 36.085700000000000 -79.501200000000000 14723
Tue Apr 03 00:00:00 GMT 2012 mebrown Flowering dogwood Cornus florida Full Flower 36.085700000000000 -79.501200000000000 14724
Tue Mar 27 00:00:00 GMT 2012 Teachrva Flowering dogwood Cornus florida Full Flower 37.285800000000000 -80.051800000000000 14734
Sat Mar 31 00:00:00 GMT 2012 tuckerasso Flowering dogwood Cornus florida First Leaf 37.231600000000000 -76.663600000000000 14746
Tue Apr 03 00:00:00 GMT 2012 tuckerasso Flowering dogwood Cornus florida All Leaves Unfolded 37.231600000000000 -76.663600000000000 14747
Tue Apr 03 00:00:00 GMT 2012 eulera Flowering dogwood Cornus florida First Flower 40.459000000000000 -86.776300000000000 14808
Fri Apr 06 00:00:00 GMT 2012 eulera Flowering dogwood Cornus florida Full Flower 40.459000000000000 -86.776300000000000 14809
Tue Apr 10 00:00:00 GMT 2012 kbertamus Flowering dogwood Cornus florida Flowers (Late) 42.058000000000000 -87.681600000000000 14900
Thu Apr 12 00:00:00 GMT 2012 ledarling Flowering dogwood Cornus florida Leaves Unfolding (Middle) 41.978600000000000 -87.676300000000000 14936
Sat Apr 07 00:00:00 GMT 2012 suzanne@zoomeasy.com Flowering dogwood Cornus florida Flowers (Late) 35.990000000000000 -78.890000000000000 15004
Tue Apr 10 00:00:00 GMT 2012 tsao12a Flowering dogwood Cornus florida Flowers (Late) 36.017900000000000 -78.921200000000000 15010
Mon Apr 16 00:00:00 GMT 2012 navinav Flowering dogwood Cornus florida Flowers (Late) 36.000000000000000 -78.000000000000000 15011
Wed Mar 14 00:00:00 GMT 2012 jadeandcarla Flowering dogwood Cornus florida First Flower 36.018100000000000 -78.921500000000000 15050
Sat Mar 24 00:00:00 GMT 2012 jadeandcarla Flowering dogwood Cornus florida Full Flower 36.018100000000000 -78.921500000000000 15051
Wed Apr 18 00:00:00 GMT 2012 jacobpawlik Flowering dogwood Cornus florida Leaves Unfolding (Middle) 36.017900000000000 -78.921200000000000 15074
Mon Mar 19 00:00:00 GMT 2012 jacobpawlik Flowering dogwood Cornus florida Leaves Unfolding (Early) 36.017900000000000 -78.921200000000000 15075
Thu Apr 19 00:00:00 GMT 2012 Erin_VS Flowering dogwood Cornus florida Flowers (Middle) 41.815900000000000 -88.056900000000000 15109
Thu Apr 19 00:00:00 GMT 2012 ledarling Flowering dogwood Cornus florida Flowers (Middle) 41.952300000000000 -87.734700000000000 15111
Tue Apr 17 00:00:00 GMT 2012 lduncan Flowering dogwood Cornus florida Fruit (Early) 34.674700000000000 -82.822200000000000 15190
Tue Feb 07 00:00:00 GMT 2012 ghekko Flowering dogwood Cornus florida First Leaf 37.338700000000000 -92.907100000000000 15225
Sat Mar 10 00:00:00 GMT 2012 ghekko Flowering dogwood Cornus florida All Leaves Unfolded 37.338700000000000 -92.907100000000000 15226
Wed Mar 28 00:00:00 GMT 2012 ghekko Flowering dogwood Cornus florida First Flower 37.338700000000000 -92.907100000000000 15227
Sat Apr 07 00:00:00 GMT 2012 ghekko Flowering dogwood Cornus florida Full Flower 37.338700000000000 -92.907100000000000 15228
Thu Apr 05 00:00:00 GMT 2012 cdmaples Flowering dogwood Cornus florida Flowers (Early) 36.700000000000000 -83.290000000000000 15255
Thu Apr 05 00:00:00 GMT 2012 cdmaples Flowering dogwood Cornus florida Leaves Changing Color (Early) 36.700000000000000 -83.000000000000000 15251
Tue Mar 20 00:00:00 GMT 2012 cdmaples Flowering dogwood Cornus florida Leaves Unfolding (Early) 36.700000000000000 -83.290000000000000 15254
Sat Mar 17 00:00:00 GMT 2012 suhasbonthu@yahoo.com Flowering dogwood Cornus florida Flowers (Late) 36.018000000000000 -78.000000000000000 15259
Fri Apr 27 00:00:00 GMT 2012 Smcclennon Flowering dogwood Cornus florida Leaves Unfolding (Early) 44.001000000000000 -71.041400000000000 15330
Wed May 02 00:00:00 GMT 2012 centralNY Flowering dogwood Cornus florida Full Flower 43.041000000000000 -76.212900000000000 15426
Thu May 03 00:00:00 GMT 2012 ledarling Flowering dogwood Cornus florida Flowers (Late) 41.977700000000000 -87.676300000000000 15437
Thu May 10 00:00:00 GMT 2012 ledarling Flowering dogwood Cornus florida Flowers (Late) 41.977700000000000 -87.676300000000000 15554
Fri Mar 23 00:00:00 GMT 2012 rwh2411 Flowering dogwood Cornus florida All Leaves Unfolded 37.602300000000000 -77.475800000000000 16024
Mon Mar 26 00:00:00 GMT 2012 rwh2411 Flowering dogwood Cornus florida Full Flower 37.602300000000000 -77.475800000000000 16025
Wed Mar 21 00:00:00 GMT 2012 rwh2411 Flowering dogwood Cornus florida First Ripe Fruit 37.602300000000000 -77.475800000000000 16026
Sat Mar 24 00:00:00 GMT 2012 rwh2411 Flowering dogwood Cornus florida Full Fruiting 37.602300000000000 -77.475800000000000 16027
Wed Mar 21 00:00:00 GMT 2012 SusannahPrindle Flowering dogwood Cornus florida First Leaf 39.096700000000000 -77.023900000000000 16196
Sat Apr 14 00:00:00 GMT 2012 SusannahPrindle Flowering dogwood Cornus florida All Leaves Unfolded 39.096700000000000 -77.023900000000000 16197
Mon Mar 26 00:00:00 GMT 2012 SusannahPrindle Flowering dogwood Cornus florida First Flower 39.096700000000000 -77.023900000000000 16198
Fri Mar 30 00:00:00 GMT 2012 SusannahPrindle Flowering dogwood Cornus florida Full Flower 39.096700000000000 -77.023900000000000 16199
Sun Apr 17 00:00:00 GMT 2011 vanndawn Flowering dogwood Cornus florida Full Flower 38.996400000000000 -92.613100000000000 16388
Tue Apr 19 00:00:00 GMT 2011 vanndawn Flowering dogwood Cornus florida First Ripe Fruit 38.996400000000000 -92.613100000000000 16389
Tue Oct 11 00:00:00 GMT 2011 vanndawn Flowering dogwood Cornus florida 50% Color 38.996400000000000 -92.613100000000000 16390
Tue Oct 25 00:00:00 GMT 2011 vanndawn Flowering dogwood Cornus florida 50% Leaf Fall 38.996400000000000 -92.613100000000000 16391
Tue Mar 27 00:00:00 GMT 2012 vanndawn Flowering dogwood Cornus florida First Flower 38.996400000000000 -92.613100000000000 16392
Tue Sep 04 00:00:00 GMT 2012 mkjohns Flowering dogwood Cornus florida Fruit (Middle) 39.368200000000000 -76.604400000000000 16522
Wed Sep 05 00:00:00 GMT 2012 mari Flowering dogwood Cornus florida Fruit (Late) 35.592100000000000 -84.084200000000000 16528
Thu Sep 13 00:00:00 GMT 2012 mari Flowering dogwood Cornus florida Leaves Changing Color (Early) 35.592100000000000 -84.084200000000000 16595
Thu Sep 20 00:00:00 GMT 2012 mari Flowering dogwood Cornus florida Leaves Changing Color (Early) 35.592100000000000 -84.084200000000000 16732
Fri Sep 28 00:00:00 GMT 2012 mari Flowering dogwood Cornus florida Leaves Changing Color (Early) 35.592100000000000 -84.084200000000000 16757
Thu Oct 04 00:00:00 GMT 2012 mari Flowering dogwood Cornus florida Leaves Changing Color (Early) 35.592100000000000 -84.084200000000000 16781
Sun Oct 14 00:00:00 GMT 2012 owlclass Flowering dogwood Cornus florida Fruit (Middle) 37.300400000000000 -80.076200000000000 17009
Fri Oct 19 00:00:00 GMT 2012 mari Flowering dogwood Cornus florida Leaves Changing Color (Middle) 35.592100000000000 -84.084200000000000 17039
Thu Mar 22 00:00:00 GMT 2012 bholtz Flowering dogwood Cornus florida First Leaf 41.423400000000000 -81.419700000000000 17437
Tue Apr 17 00:00:00 GMT 2012 bholtz Flowering dogwood Cornus florida All Leaves Unfolded 41.423400000000000 -81.419700000000000 17438
Sun Apr 01 00:00:00 GMT 2012 bholtz Flowering dogwood Cornus florida First Flower 41.423400000000000 -81.419700000000000 17439
Mon Apr 30 00:00:00 GMT 2012 bholtz Flowering dogwood Cornus florida Full Flower 41.423400000000000 -81.419700000000000 17440
Wed Sep 05 00:00:00 GMT 2012 bholtz Flowering dogwood Cornus florida 50% Color 41.423400000000000 -81.419700000000000 17441
Wed Oct 10 00:00:00 GMT 2012 bholtz Flowering dogwood Cornus florida 50% Leaf Fall 41.423400000000000 -81.419700000000000 17442
Fri Nov 02 00:00:00 GMT 2012 mari Flowering dogwood Cornus florida Leaves Changing Color (Late) 35.592100000000000 -84.084200000000000 17450
Tue Sep 11 00:00:00 GMT 2012 tuckerasso Flowering dogwood Cornus florida First Ripe Fruit 37.231600000000000 -76.663600000000000 17649
Thu Oct 18 00:00:00 GMT 2012 tuckerasso Flowering dogwood Cornus florida Full Fruiting 37.231600000000000 -76.663600000000000 17650
Mon Sep 17 00:00:00 GMT 2012 tuckerasso Flowering dogwood Cornus florida 50% Color 37.231600000000000 -76.663600000000000 17651
Wed Mar 21 00:00:00 GMT 2012 SusannahPrindle Flowering dogwood Cornus florida First Leaf 39.096700000000000 -77.023900000000000 17692
Sat Apr 14 00:00:00 GMT 2012 SusannahPrindle Flowering dogwood Cornus florida All Leaves Unfolded 39.096700000000000 -77.023900000000000 17693
Mon Mar 26 00:00:00 GMT 2012 SusannahPrindle Flowering dogwood Cornus florida First Flower 39.096700000000000 -77.023900000000000 17694
Fri Mar 30 00:00:00 GMT 2012 SusannahPrindle Flowering dogwood Cornus florida Full Flower 39.096700000000000 -77.023900000000000 17695
Thu Aug 30 00:00:00 GMT 2012 SusannahPrindle Flowering dogwood Cornus florida Full Fruiting 39.096700000000000 -77.023900000000000 17696
Tue Oct 23 00:00:00 GMT 2012 SusannahPrindle Flowering dogwood Cornus florida 50% Leaf Fall 39.096700000000000 -77.023900000000000 17697
Thu Feb 14 00:00:00 GMT 2013 ncmns Flowering dogwood Cornus florida Fruit (Middle) 35.783400000000000 -78.641000000000000 17960
Fri Apr 03 00:00:00 GMT 2009 gmwimp Flowering dogwood Cornus florida Bud Burst 38.908400000000000 -77.072500000000000 18052
Fri Apr 03 00:00:00 GMT 2009 gmwimp Flowering dogwood Cornus florida First Leaf 38.908400000000000 -77.072500000000000 18053
Mon Apr 13 00:00:00 GMT 2009 gmwimp Flowering dogwood Cornus florida All Leaves Unfolded 38.908400000000000 -77.072500000000000 18054
Sun Mar 03 00:00:00 GMT 2013 1480584 Flowering dogwood Cornus florida Bud Burst 35.813900000000000 -86.416400000000000 18096
Wed Mar 20 00:00:00 GMT 2013 SciTeach2_Our_Corner_of_Clark_Park_reporter2 Flowering dogwood Cornus florida Flowers (Early) 39.947100000000000 -75.209900000000000 18209
Sat Mar 23 00:00:00 GMT 2013 ncmns Flowering dogwood Cornus florida Flowers (Early) 35.811500000000000 -78.713600000000000 18248
Mon Mar 25 00:00:00 GMT 2013 donaher13s Flowering dogwood Cornus florida Bud Burst 35.946000000000000 -80.365100000000000 18326
Thu Mar 28 00:00:00 GMT 2013 ncmns Flowering dogwood Cornus florida Flowers (Early) 35.810400000000000 -78.715000000000000 18373
Thu Mar 28 00:00:00 GMT 2013 ncmns Flowering dogwood Cornus florida Flowers (Middle) 35.782700000000000 -78.640400000000000 18368
Fri Mar 15 00:00:00 GMT 2013 Dadgar14S Flowering dogwood Cornus florida Bud Burst 35.789700000000000 -78.651700000000000 18390
Sun Mar 31 00:00:00 GMT 2013 askinner Flowering dogwood Cornus florida Flowers (Early) 37.227800000000000 -80.416100000000000 18402
Sat Mar 23 00:00:00 GMT 2013 sarasnyder6 Flowering dogwood Cornus florida Bud Burst 35.063700000000000 -77.149500000000000 18406
Sun Mar 31 00:00:00 GMT 2013 lsjones1 Flowering dogwood Cornus florida Bud Burst 35.685200000000000 -79.180700000000000 18397
Fri Mar 29 00:00:00 GMT 2013 thmad1 Flowering dogwood Cornus florida Bud Burst 35.804400000000000 -79.053300000000000 18407
Sun Mar 31 00:00:00 GMT 2013 sborth1 Flowering dogwood Cornus florida Bud Burst 35.497600000000000 -80.832000000000000 18486
Fri Apr 05 00:00:00 GMT 2013 CCantwell Flowering dogwood Cornus florida Bud Burst 33.839900000000000 -84.230900000000000 18512
Fri Apr 05 00:00:00 GMT 2013 bmccalli Flowering dogwood Cornus florida Bud Burst 39.164400000000000 -86.514500000000000 18553
Tue Feb 12 00:00:00 GMT 2013 haley Flowering dogwood Cornus florida Bud Burst 39.170000000000000 -86.530000000000000 18597
Tue Jan 29 00:00:00 GMT 2013 jmta Flowering dogwood Cornus florida Bud Burst 39.165300000000000 -86.526400000000000 18601
Sat Apr 06 00:00:00 GMT 2013 gregor Flowering dogwood Cornus florida Bud Burst 35.668400000000000 -81.223500000000000 18677
Wed Apr 03 00:00:00 GMT 2013 thmad1 Flowering dogwood Cornus florida First Leaf 35.804400000000000 -79.053300000000000 18679
Sun Apr 07 00:00:00 GMT 2013 thmad1 Flowering dogwood Cornus florida All Leaves Unfolded 35.804400000000000 -79.053300000000000 18680
Mon Apr 08 00:00:00 GMT 2013 lsjones1_CCHS_reporter14 Flowering dogwood Cornus florida Leaves Unfolding (Early) 35.613300000000000 -79.390100000000000 18637
Mon Apr 08 00:00:00 GMT 2013 CCantwell Flowering dogwood Cornus florida First Leaf 33.839900000000000 -84.230900000000000 18689
Thu Apr 04 00:00:00 GMT 2013 kkrill2 Flowering dogwood Cornus florida Bud Burst 33.980900000000000 -84.188300000000000 18729
Sat Apr 06 00:00:00 GMT 2013 kkrill2 Flowering dogwood Cornus florida First Leaf 33.980900000000000 -84.188300000000000 18730
Sun Mar 31 00:00:00 GMT 2013 aleggett Flowering dogwood Cornus florida Bud Burst 33.956600000000000 -84.370400000000000 18710
Sat Apr 06 00:00:00 GMT 2013 aleggett Flowering dogwood Cornus florida First Flower 33.956600000000000 -84.370400000000000 18711
Fri Apr 05 00:00:00 GMT 2013 vmcduffie Flowering dogwood Cornus florida Bud Burst 33.848100000000000 -84.295300000000000 18714
Sat Apr 06 00:00:00 GMT 2013 t-moore Flowering dogwood Cornus florida Bud Burst 33.791100000000000 -84.310600000000000 18732
Wed Apr 10 00:00:00 GMT 2013 akrademaker Flowering dogwood Cornus florida Flowers (Late) 39.167600000000000 -86.516600000000000 18740
Thu Jan 24 00:00:00 GMT 2013 samivy333 Flowering dogwood Cornus florida Bud Burst 39.167000000000000 -86.520400000000000 18754
Wed Apr 10 00:00:00 GMT 2013 cbleacher16 Flowering dogwood Cornus florida Bud Burst 33.960000000000000 -84.276800000000000 18763
Mon Apr 08 00:00:00 GMT 2013 mcastro16 Flowering dogwood Cornus florida Bud Burst 33.887500000000000 -84.341600000000000 18768
Wed Apr 10 00:00:00 GMT 2013 mcastro16 Flowering dogwood Cornus florida First Leaf 33.887500000000000 -84.341600000000000 18769
Wed Apr 10 00:00:00 GMT 2013 mcastro16 Flowering dogwood Cornus florida All Leaves Unfolded 33.887500000000000 -84.341600000000000 18770
Wed Apr 10 00:00:00 GMT 2013 mcastro16 Flowering dogwood Cornus florida First Flower 33.887500000000000 -84.341600000000000 18771
Tue Apr 09 00:00:00 GMT 2013 sasimeonides Flowering dogwood Cornus florida Flowers (Early) 36.077700000000000 -80.338300000000000 18775
Mon Apr 08 00:00:00 GMT 2013 adfitzgerald@woodlawnschool.org Flowering dogwood Cornus florida All Leaves Unfolded 35.543200000000000 -80.847300000000000 18785
Tue Apr 09 00:00:00 GMT 2013 adfitzgerald@woodlawnschool.org Flowering dogwood Cornus florida First Flower 35.543200000000000 -80.847300000000000 18786
Wed Apr 10 00:00:00 GMT 2013 adfitzgerald@woodlawnschool.org Flowering dogwood Cornus florida Full Flower 35.543200000000000 -80.847300000000000 18787
Thu Apr 11 00:00:00 GMT 2013 ncmns Flowering dogwood Cornus florida Leaves Unfolding (Middle) 35.782800000000000 -78.639300000000000 18791
Mon Apr 08 00:00:00 GMT 2013 adfitzgerald@woodlawnschool.org_Env_Studies_2013_reporter4 Flowering dogwood Cornus florida Bud Burst 35.543200000000000 -80.847300000000000 18815
Thu Apr 11 00:00:00 GMT 2013 adfitzgerald@woodlawnschool.org_Env_Studies_2013_reporter4 Flowering dogwood Cornus florida First Leaf 35.543200000000000 -80.847300000000000 18816
Mon Apr 08 00:00:00 GMT 2013 gwgoing15 Flowering dogwood Cornus florida Bud Burst 33.816400000000000 -84.093800000000000 18821
Sat Apr 06 00:00:00 GMT 2013 gwgoing15 Flowering dogwood Cornus florida First Leaf 33.816400000000000 -84.093800000000000 18822
Thu Apr 11 00:00:00 GMT 2013 gwgoing15 Flowering dogwood Cornus florida First Flower 33.816400000000000 -84.093800000000000 18823
Thu Apr 11 00:00:00 GMT 2013 Mango55 Flowering dogwood Cornus florida Bud Burst 40.208200000000000 -76.771900000000000 18817
Sun Apr 07 00:00:00 GMT 2013 adfitzgerald@woodlawnschool.org_Env_Studies_2013_reporter7 Flowering dogwood Cornus florida Bud Burst 35.543200000000000 -80.847300000000000 18809
Thu Apr 11 00:00:00 GMT 2013 adfitzgerald@woodlawnschool.org_Env_Studies_2013_reporter7 Flowering dogwood Cornus florida First Leaf 35.543200000000000 -80.847300000000000 18810
Fri Apr 12 00:00:00 GMT 2013 RMNP Flowering dogwood Cornus florida Bud Burst 38.030700000000000 -78.726400000000000 18846
Fri Apr 12 00:00:00 GMT 2013 MiaCora Flowering dogwood Cornus florida First Flower 35.045100000000000 -78.950400000000000 18845
Fri Apr 12 00:00:00 GMT 2013 jerribitner Flowering dogwood Cornus florida Bud Burst 40.018100000000000 -76.880000000000000 18877
Thu Apr 11 00:00:00 GMT 2013 mareseatoats Flowering dogwood Cornus florida Bud Burst 38.020100000000000 -78.634400000000000 18857
Thu Apr 11 00:00:00 GMT 2013 mareseatoats Flowering dogwood Cornus florida First Flower 38.020100000000000 -78.634400000000000 18859
Sat Apr 13 00:00:00 GMT 2013 jerribitner Flowering dogwood Cornus florida First Flower 40.018100000000000 -76.880000000000000 18880
Fri Mar 29 00:00:00 GMT 2013 iwilkinson16 Flowering dogwood Cornus florida Bud Burst 34.032600000000000 -84.020200000000000 18892
Tue Apr 02 00:00:00 GMT 2013 iwilkinson16 Flowering dogwood Cornus florida First Leaf 34.032600000000000 -84.020200000000000 18893
Sun Apr 07 00:00:00 GMT 2013 iwilkinson16 Flowering dogwood Cornus florida All Leaves Unfolded 34.032600000000000 -84.020200000000000 18894
Sun Apr 14 00:00:00 GMT 2013 iwilkinson16 Flowering dogwood Cornus florida First Flower 34.032600000000000 -84.020200000000000 18895
Sun Apr 07 00:00:00 GMT 2013 ElizabethK Flowering dogwood Cornus florida Bud Burst 41.281900000000000 -72.548200000000000 18898
Mon Mar 11 00:00:00 GMT 2013 ElizabethK Flowering dogwood Cornus florida First Leaf 41.281900000000000 -72.548200000000000 18899
Sun Apr 07 00:00:00 GMT 2013 ElizabethK Flowering dogwood Cornus florida All Leaves Unfolded 41.281900000000000 -72.548200000000000 18900
Fri Apr 12 00:00:00 GMT 2013 vmcduffie Flowering dogwood Cornus florida First Flower 33.848100000000000 -84.295300000000000 18950
Mon Apr 08 00:00:00 GMT 2013 vmcduffie Flowering dogwood Cornus florida First Leaf 33.848100000000000 -84.295300000000000 18949
Tue Apr 09 00:00:00 GMT 2013 mkoch16 Flowering dogwood Cornus florida All Leaves Unfolded 33.953200000000000 -84.341700000000000 18954
Tue Mar 26 00:00:00 GMT 2013 mkoch16 Flowering dogwood Cornus florida Bud Burst 33.953200000000000 -84.341700000000000 18951
Wed Mar 27 00:00:00 GMT 2013 mkoch16 Flowering dogwood Cornus florida First Leaf 33.953200000000000 -84.341700000000000 18952
Wed Apr 10 00:00:00 GMT 2013 mkoch16 Flowering dogwood Cornus florida First Flower 33.953200000000000 -84.341700000000000 18953
Thu Mar 28 00:00:00 GMT 2013 bpayton Flowering dogwood Cornus florida Bud Burst 36.066800000000000 -76.604700000000000 18978
Wed Apr 10 00:00:00 GMT 2013 bpayton Flowering dogwood Cornus florida First Flower 36.066800000000000 -76.604700000000000 18979
Wed Apr 17 00:00:00 GMT 2013 CCantwell Flowering dogwood Cornus florida All Leaves Unfolded 33.839900000000000 -84.230900000000000 19014
Sat Apr 20 00:00:00 GMT 2013 ncmns Flowering dogwood Cornus florida Leaves Unfolding (Late) 35.772100000000000 -78.638600000000000 19044
Sat Apr 20 00:00:00 GMT 2013 ncmns Flowering dogwood Cornus florida Leaves Unfolding (Late) 35.772100000000000 -78.638600000000000 19042
Sat Apr 20 00:00:00 GMT 2013 ncmns Flowering dogwood Cornus florida Flowers (Middle) 35.772100000000000 -78.638600000000000 19043
Thu Apr 18 00:00:00 GMT 2013 krupp695 Flowering dogwood Cornus florida Bud Burst 40.534500000000000 -75.615700000000000 19060
Wed Apr 17 00:00:00 GMT 2013 Mango55 Flowering dogwood Cornus florida First Flower 40.208200000000000 -76.771900000000000 19106
Mon Apr 22 00:00:00 GMT 2013 Mango55 Flowering dogwood Cornus florida First Leaf 40.208200000000000 -76.771900000000000 19108
Sat Apr 20 00:00:00 GMT 2013 Mango55 Flowering dogwood Cornus florida Full Flower 40.208200000000000 -76.771900000000000 19107
Thu Apr 18 00:00:00 GMT 2013 vmcduffie Flowering dogwood Cornus florida All Leaves Unfolded 33.848100000000000 -84.295300000000000 19111
Tue Apr 23 00:00:00 GMT 2013 jerribitner Flowering dogwood Cornus florida Full Flower 40.018100000000000 -76.880000000000000 19132
Fri Mar 29 00:00:00 GMT 2013 17561 Flowering dogwood Cornus florida Bud Burst 33.973700000000000 -84.313800000000000 19186
Sun Mar 10 00:00:00 GMT 2013 17561 Flowering dogwood Cornus florida First Leaf 33.973700000000000 -84.313800000000000 19187
Sat Apr 06 00:00:00 GMT 2013 17561 Flowering dogwood Cornus florida All Leaves Unfolded 33.973700000000000 -84.313800000000000 19188
Wed Mar 20 00:00:00 GMT 2013 17561 Flowering dogwood Cornus florida First Flower 33.973700000000000 -84.313800000000000 19189
Wed Mar 27 00:00:00 GMT 2013 17561 Flowering dogwood Cornus florida Full Flower 33.973700000000000 -84.313800000000000 19190
Sat Apr 27 00:00:00 GMT 2013 ncmns Flowering dogwood Cornus florida Leaves Unfolding (Late) 35.811700000000000 -78.713900000000000 19385
Sat Apr 13 00:00:00 GMT 2013 ncmns Flowering dogwood Cornus florida Leaves Unfolding (Early) 35.811700000000000 -78.713900000000000 19373
Tue Apr 30 00:00:00 GMT 2013 ncmns Flowering dogwood Cornus florida Leaves Unfolding (Early) 35.811700000000000 -78.713900000000000 19366
Sat Apr 20 00:00:00 GMT 2013 ncmns Flowering dogwood Cornus florida Leaves Unfolding (Late) 35.782300000000000 -78.639500000000000 19394
Tue Apr 30 00:00:00 GMT 2013 mkoch16 Flowering dogwood Cornus florida Full Flower 33.953200000000000 -84.341700000000000 19418
Fri Apr 12 00:00:00 GMT 2013 Someone Else 37 Flowering dogwood Cornus florida Bud Burst 36.224500000000000 -81.572700000000000 19325
Mon Apr 15 00:00:00 GMT 2013 carolsims Flowering dogwood Cornus florida First Leaf 38.753400000000000 -77.267900000000000 19535
Fri Apr 19 00:00:00 GMT 2013 carolsims Flowering dogwood Cornus florida All Leaves Unfolded 38.753400000000000 -77.267900000000000 19536
Tue Nov 27 00:00:00 GMT 2012 carolsims Flowering dogwood Cornus florida 50% Leaf Fall 38.753400000000000 -77.267900000000000 19537
Mon Apr 15 00:00:00 GMT 2013 carolsims Flowering dogwood Cornus florida First Leaf 38.772400000000000 -77.238100000000000 19530
Mon Apr 22 00:00:00 GMT 2013 carolsims Flowering dogwood Cornus florida All Leaves Unfolded 38.772400000000000 -77.238100000000000 19531
Wed Nov 28 00:00:00 GMT 2012 carolsims Flowering dogwood Cornus florida 50% Leaf Fall 38.772400000000000 -77.238100000000000 19532
Mon Apr 15 00:00:00 GMT 2013 carolsims Flowering dogwood Cornus florida First Leaf 38.753400000000000 -77.267900000000000 19533
Tue Nov 27 00:00:00 GMT 2012 carolsims Flowering dogwood Cornus florida 50% Leaf Fall 38.753400000000000 -77.267900000000000 19534
Mon Apr 15 00:00:00 GMT 2013 carolsims Flowering dogwood Cornus florida First Leaf 38.772400000000000 -77.238100000000000 19527
Mon Apr 22 00:00:00 GMT 2013 carolsims Flowering dogwood Cornus florida All Leaves Unfolded 38.772400000000000 -77.238100000000000 19528
Wed Nov 28 00:00:00 GMT 2012 carolsims Flowering dogwood Cornus florida 50% Leaf Fall 38.772400000000000 -77.238100000000000 19529
Tue Apr 16 00:00:00 GMT 2013 carolsims Flowering dogwood Cornus florida First Leaf 38.753400000000000 -77.267900000000000 19521
Tue Apr 23 00:00:00 GMT 2013 carolsims Flowering dogwood Cornus florida All Leaves Unfolded 38.753400000000000 -77.267900000000000 19522
Fri Nov 30 00:00:00 GMT 2012 carolsims Flowering dogwood Cornus florida 50% Leaf Fall 38.753400000000000 -77.267900000000000 19523
Tue Apr 16 00:00:00 GMT 2013 carolsims Flowering dogwood Cornus florida First Leaf 38.772700000000000 -77.238200000000000 19524
Tue Apr 23 00:00:00 GMT 2013 carolsims Flowering dogwood Cornus florida All Leaves Unfolded 38.772700000000000 -77.238200000000000 19525
Sat Dec 01 00:00:00 GMT 2012 carolsims Flowering dogwood Cornus florida 50% Leaf Fall 38.772700000000000 -77.238200000000000 19526
Fri May 03 00:00:00 GMT 2013 jerribitner Flowering dogwood Cornus florida First Leaf 40.018100000000000 -76.880000000000000 19717
Wed May 01 00:00:00 GMT 2013 ElizabethK Flowering dogwood Cornus florida First Flower 41.281900000000000 -72.548200000000000 19936
Mon May 06 00:00:00 GMT 2013 ElizabethK Flowering dogwood Cornus florida Full Flower 41.281900000000000 -72.548200000000000 19937
Wed May 01 00:00:00 GMT 2013 Mango55 Flowering dogwood Cornus florida All Leaves Unfolded 40.208200000000000 -76.771900000000000 20010
Wed May 08 00:00:00 GMT 2013 centralNY Flowering dogwood Cornus florida Full Flower 43.041000000000000 -76.212900000000000 20043
Sat Apr 13 00:00:00 GMT 2013 ggnoma Flowering dogwood Cornus florida Bud Burst 38.986600000000000 -77.119000000000000 20215
Sun Apr 14 00:00:00 GMT 2013 ggnoma Flowering dogwood Cornus florida First Leaf 38.986600000000000 -77.119000000000000 20216
Mon May 06 00:00:00 GMT 2013 ggnoma Flowering dogwood Cornus florida All Leaves Unfolded 38.986600000000000 -77.119000000000000 20217
Tue Apr 16 00:00:00 GMT 2013 ggnoma Flowering dogwood Cornus florida First Flower 38.986600000000000 -77.119000000000000 20218
Thu Apr 25 00:00:00 GMT 2013 ggnoma Flowering dogwood Cornus florida Full Flower 38.986600000000000 -77.119000000000000 20219
Sun May 05 00:00:00 GMT 2013 CCantwell Flowering dogwood Cornus florida First Flower 33.839900000000000 -84.230900000000000 20379
Thu May 16 00:00:00 GMT 2013 Green Frog Flowering dogwood Cornus florida Flowers (Early) 40.825400000000000 -74.332900000000000 20524
Sun May 12 00:00:00 GMT 2013 jerribitner Flowering dogwood Cornus florida All Leaves Unfolded 40.018100000000000 -76.880000000000000 20721
Wed Apr 10 00:00:00 GMT 2013 Angelyn Flowering dogwood Cornus florida Bud Burst 35.619100000000000 -82.765100000000000 20756
Sun Apr 14 00:00:00 GMT 2013 Angelyn Flowering dogwood Cornus florida First Leaf 35.619100000000000 -82.765100000000000 20757
Sun Apr 21 00:00:00 GMT 2013 Angelyn Flowering dogwood Cornus florida All Leaves Unfolded 35.619100000000000 -82.765100000000000 20758
Sun Apr 21 00:00:00 GMT 2013 Angelyn Flowering dogwood Cornus florida First Flower 35.619100000000000 -82.765100000000000 20759
Sun Jun 02 00:00:00 GMT 2013 harmonbudburst Flowering dogwood Cornus florida Flowers (Early) 41.340300000000000 -72.907800000000000 20903
Thu Mar 21 00:00:00 GMT 2013 SusannahPrindle Flowering dogwood Cornus florida First Leaf 39.096700000000000 -77.023900000000000 21738
Sun Apr 14 00:00:00 GMT 2013 SusannahPrindle Flowering dogwood Cornus florida All Leaves Unfolded 39.096700000000000 -77.023900000000000 21739
Tue Mar 26 00:00:00 GMT 2013 SusannahPrindle Flowering dogwood Cornus florida First Flower 39.096700000000000 -77.023900000000000 21740
Sat Mar 30 00:00:00 GMT 2013 SusannahPrindle Flowering dogwood Cornus florida Full Flower 39.096700000000000 -77.023900000000000 21741
Tue Sep 10 00:00:00 GMT 2013 usbg Flowering dogwood Cornus florida Fruit (Early) 38.888100000000000 -77.012900000000000 22006
Tue Sep 10 00:00:00 GMT 2013 usbg Flowering dogwood Cornus florida Leaves Changing Color (Early) 38.888100000000000 -77.012900000000000 21995
Sat Sep 14 00:00:00 GMT 2013 Clebeau Flowering dogwood Cornus florida Flowers (Middle) 38.888000000000000 -77.014200000000000 22061
Sat Sep 14 00:00:00 GMT 2013 jocelynbethany Flowering dogwood Cornus florida Fruit (Middle) 38.888000000000000 -77.014200000000000 22080
Tue Sep 24 00:00:00 GMT 2013 ssteiner Flowering dogwood Cornus florida 50% Color 35.100400000000000 -84.016400000000000 22113
Wed Oct 02 00:00:00 GMT 2013 GeekEarthMother Flowering dogwood Cornus florida Leaves Changing Color (Middle) 38.288200000000000 -77.414500000000000 22335
Thu Oct 03 00:00:00 GMT 2013 amcricket Flowering dogwood Cornus florida Leaves Changing Color (Middle) 40.308000000000000 -74.872800000000000 22337
Thu Oct 03 00:00:00 GMT 2013 AECMurillo Flowering dogwood Cornus florida Leaves Changing Color (Late) 37.456800000000000 -79.114500000000000 22342
Wed Oct 09 00:00:00 GMT 2013 joeydon73@yahoo.com Flowering dogwood Cornus florida Leaves Changing Color (Middle) 39.116100000000000 -77.027900000000000 22535
Fri Oct 11 00:00:00 GMT 2013 brydel_New_Branches_reporter62 Flowering dogwood Cornus florida 50% Leaf Fall 42.895800000000000 -85.635200000000000 22543
Fri Oct 11 00:00:00 GMT 2013 brydel_New_Branches_reporter62 Flowering dogwood Cornus florida 50% Leaf Fall 42.895800000000000 -85.635200000000000 22544
Sat Oct 19 00:00:00 GMT 2013 usbg Flowering dogwood Cornus florida Leaves Changing Color (Middle) 38.888100000000000 -77.012900000000000 22662
Sat Oct 19 00:00:00 GMT 2013 usbg Flowering dogwood Cornus florida Leaves Changing Color (Late) 38.888100000000000 -77.012900000000000 22627
Sat Oct 19 00:00:00 GMT 2013 usbg Flowering dogwood Cornus florida Leaves Changing Color (Late) 38.888100000000000 -77.012900000000000 22639
Sat Oct 19 00:00:00 GMT 2013 usbg Flowering dogwood Cornus florida Leaves Changing Color (Late) 38.888100000000000 -77.012900000000000 22651
Sun Oct 20 00:00:00 GMT 2013 centralNY Flowering dogwood Cornus florida 50% Color 43.041000000000000 -76.212900000000000 22696
Sat Oct 19 00:00:00 GMT 2013 kweatherspoon0001 Flowering dogwood Cornus florida Leaves Unfolding (Late) 36.636100000000000 -88.451800000000000 22719
Tue Oct 15 00:00:00 GMT 2013 greendragon Flowering dogwood Cornus florida 50% Color 37.662400000000000 -89.250700000000000 22707
Tue Oct 22 00:00:00 GMT 2013 mareseatoats Flowering dogwood Cornus florida 50% Leaf Fall 38.020100000000000 -78.634400000000000 22728
Mon Oct 28 00:00:00 GMT 2013 chelslaine5391 Flowering dogwood Cornus florida Flowers (Late) 36.642300000000000 -88.738900000000000 22861
Thu Oct 17 00:00:00 GMT 2013 cyoungblood Flowering dogwood Cornus florida 50% Color 36.981500000000000 -88.642200000000000 22915
Sun Nov 03 00:00:00 GMT 2013 amarsh Flowering dogwood Cornus florida Leaves Dropping (Middle) 35.866000000000000 -79.082500000000000 22939
Sun Nov 03 00:00:00 GMT 2013 Courtney Flowering dogwood Cornus florida Leaves Changing Color (Middle) 36.964800000000000 -89.089200000000000 22945
Fri Oct 11 00:00:00 GMT 2013 jordynpeifer Flowering dogwood Cornus florida All Leaves Unfolded 37.025600000000000 -88.690400000000000 22957
Sat Nov 02 00:00:00 GMT 2013 usbg Flowering dogwood Cornus florida Leaves Changing Color (Middle) 38.888000000000000 -77.012900000000000 23009
Wed Nov 06 00:00:00 GMT 2013 greendragon Flowering dogwood Cornus florida 50% Leaf Fall 37.662400000000000 -89.250700000000000 23020
Sat Nov 09 00:00:00 GMT 2013 centralNY Flowering dogwood Cornus florida 50% Leaf Fall 43.041000000000000 -76.212900000000000 23044
Sat Oct 12 00:00:00 GMT 2013 ncmns Flowering dogwood Cornus florida Leaves Changing Color (Early) 35.811700000000000 -78.713900000000000 23057
Sat Nov 02 00:00:00 GMT 2013 ncmns Flowering dogwood Cornus florida Leaves Changing Color (Middle) 35.811700000000000 -78.713900000000000 23051
Thu Nov 07 00:00:00 GMT 2013 ncmns Flowering dogwood Cornus florida Leaves Changing Color (Late) 35.782300000000000 -78.639500000000000 23047
Sun Nov 17 00:00:00 GMT 2013 add21792 Flowering dogwood Cornus florida Leaves Dropping (Middle) 39.184800000000000 -86.531700000000000 23509
Wed Oct 16 00:00:00 GMT 2013 ajrumble Flowering dogwood Cornus florida Leaves Changing Color (Middle) 39.165900000000000 -86.514900000000000 23514
Fri Oct 11 00:00:00 GMT 2013 ajrumble Flowering dogwood Cornus florida Leaves Changing Color (Middle) 39.165900000000000 -86.514900000000000 23513
Wed Nov 06 00:00:00 GMT 2013 ajrumble Flowering dogwood Cornus florida Leaves Dropping (Middle) 39.165900000000000 -86.514900000000000 23515
Mon Nov 18 00:00:00 GMT 2013 kckorsta Flowering dogwood Cornus florida Leaves Dropping (Late) 39.174900000000000 -86.515000000000000 23553
Tue Sep 03 00:00:00 GMT 2013 simonejones Flowering dogwood Cornus florida Bud Burst 39.170800000000000 -86.512400000000000 23650
Thu Oct 24 00:00:00 GMT 2013 simonejones Flowering dogwood Cornus florida 50% Color 39.170800000000000 -86.512400000000000 23651
Thu Nov 07 00:00:00 GMT 2013 simonejones Flowering dogwood Cornus florida 50% Leaf Fall 39.170800000000000 -86.512400000000000 23652
Thu Oct 31 00:00:00 GMT 2013 UCSF_137_F13_Loyola_University_Chicago_reporter87 Flowering dogwood Cornus florida Leaves Changing Color (Late) 41.999200000000000 -87.656600000000000 23712
Fri Oct 25 00:00:00 GMT 2013 UCSF_137_F13_Loyola_University_Chicago_reporter87 Flowering dogwood Cornus florida Leaves Changing Color (Middle) 41.999200000000000 -87.656600000000000 23711
Sat Nov 02 00:00:00 GMT 2013 UCSF_137_F13_Loyola_University_Chicago_reporter87 Flowering dogwood Cornus florida Leaves Dropping (Early) 41.999200000000000 -87.656600000000000 23713
Wed Nov 13 00:00:00 GMT 2013 UCSF_137_F13_Loyola_University_Chicago_reporter87 Flowering dogwood Cornus florida Leaves Dropping (Late) 41.999200000000000 -87.656600000000000 23715
Thu Nov 07 00:00:00 GMT 2013 UCSF_137_F13_Loyola_University_Chicago_reporter87 Flowering dogwood Cornus florida Leaves Dropping (Middle) 41.999200000000000 -87.656600000000000 23714
Wed Nov 20 00:00:00 GMT 2013 UCSF_137_F13_Loyola_University_Chicago_reporter115 Flowering dogwood Cornus florida Leaves Dropping (Late) 41.990100000000000 -87.663000000000000 23797
Wed Nov 20 00:00:00 GMT 2013 UCSF_137_F13_Loyola_University_Chicago_reporter115 Flowering dogwood Cornus florida Leaves Changing Color (Middle) 41.990100000000000 -87.663000000000000 23793
Wed Nov 20 00:00:00 GMT 2013 UCSF_137_F13_Loyola_University_Chicago_reporter115 Flowering dogwood Cornus florida Leaves Dropping (Middle) 41.990100000000000 -87.663000000000000 23796
Wed Nov 20 00:00:00 GMT 2013 UCSF_137_F13_Loyola_University_Chicago_reporter115 Flowering dogwood Cornus florida Leaves Changing Color (Middle) 41.990100000000000 -87.663000000000000 23794
Mon Oct 14 00:00:00 GMT 2013 UCSF_137_F13_Loyola_University_Chicago_reporter101 Flowering dogwood Cornus florida Leaves Dropping (Early) 41.998100000000000 -87.655600000000000 23868
Thu Oct 24 00:00:00 GMT 2013 UCSF_137_F13_Loyola_University_Chicago_reporter101 Flowering dogwood Cornus florida Leaves Dropping (Late) 41.998100000000000 -87.655600000000000 23873
Thu Oct 17 00:00:00 GMT 2013 UCSF_137_F13_Loyola_University_Chicago_reporter101 Flowering dogwood Cornus florida Leaves Dropping (Middle) 41.998100000000000 -87.655600000000000 23869
Thu Oct 24 00:00:00 GMT 2013 UCSF_137_F13_Loyola_University_Chicago_reporter101 Flowering dogwood Cornus florida Leaves Dropping (Middle) 41.998100000000000 -87.655600000000000 23870
Sun Oct 27 00:00:00 GMT 2013 UCSF_137_F13_Loyola_University_Chicago_reporter101 Flowering dogwood Cornus florida Fruit (Late) 41.998100000000000 -87.655600000000000 23874
Mon Oct 21 00:00:00 GMT 2013 UCSF_137_F13_Loyola_University_Chicago_reporter101 Flowering dogwood Cornus florida Fruit (Middle) 41.998100000000000 -87.655600000000000 23872
Thu Oct 10 00:00:00 GMT 2013 UCSF_137_F13_Loyola_University_Chicago_reporter101 Flowering dogwood Cornus florida Leaves Changing Color (Late) 41.998100000000000 -87.655600000000000 23867
Tue Oct 08 00:00:00 GMT 2013 UCSF_137_F13_Loyola_University_Chicago_reporter101 Flowering dogwood Cornus florida Leaves Changing Color (Early) 41.998100000000000 -87.655600000000000 23866
Mon Oct 07 00:00:00 GMT 2013 UCSF_137_F13_Loyola_University_Chicago_reporter101 Flowering dogwood Cornus florida Fruit (Middle) 41.998100000000000 -87.655600000000000 23865
Mon Dec 09 00:00:00 GMT 2013 jdonellan Flowering dogwood Cornus florida Leaves Dropping (Late) 39.125500000000000 -77.085000000000000 24328
Mon Dec 09 00:00:00 GMT 2013 jdonellan Flowering dogwood Cornus florida Leaves Dropping (Late) 39.125500000000000 -77.085000000000000 24330
Mon Dec 09 00:00:00 GMT 2013 jdonellan Flowering dogwood Cornus florida Leaves Dropping (Late) 39.125500000000000 -77.085000000000000 24331
Mon Dec 09 00:00:00 GMT 2013 jdonellan Flowering dogwood Cornus florida Leaves Dropping (Late) 39.125500000000000 -77.085000000000000 24329
Thu Apr 11 00:00:00 GMT 2013 tuckerasso Flowering dogwood Cornus florida First Leaf 37.231600000000000 -76.663600000000000 24587
Mon Apr 15 00:00:00 GMT 2013 tuckerasso Flowering dogwood Cornus florida All Leaves Unfolded 37.231600000000000 -76.663600000000000 24588
Tue Apr 09 00:00:00 GMT 2013 tuckerasso Flowering dogwood Cornus florida First Flower 37.231600000000000 -76.663600000000000 24589
Sat Apr 13 00:00:00 GMT 2013 tuckerasso Flowering dogwood Cornus florida Full Flower 37.231600000000000 -76.663600000000000 24590
Mon Nov 25 00:00:00 GMT 2013 tuckerasso Flowering dogwood Cornus florida Full Fruiting 37.231600000000000 -76.663600000000000 24591
Mon Nov 25 00:00:00 GMT 2013 tuckerasso Flowering dogwood Cornus florida 50% Leaf Fall 37.231600000000000 -76.663600000000000 24592
Thu Jan 16 00:00:00 GMT 2014 ncmns Flowering dogwood Cornus florida Leaves Unfolding (None) 35.810800000000000 -78.715100000000000 24727
Thu Jan 16 00:00:00 GMT 2014 ncmns Flowering dogwood Cornus florida Leaves Changing Color (None) 35.810800000000000 -78.715100000000000 24728
Thu Jan 16 00:00:00 GMT 2014 ncmns Flowering dogwood Cornus florida Leaves Dropping (Late) 35.810800000000000 -78.715100000000000 24729
Thu Jan 16 00:00:00 GMT 2014 ncmns Flowering dogwood Cornus florida Flowers (None) 35.810800000000000 -78.715100000000000 24730
Thu Jan 16 00:00:00 GMT 2014 ncmns Flowering dogwood Cornus florida Fruit (None) 35.810800000000000 -78.715100000000000 24731
Mon May 06 00:00:00 GMT 2013 palaback Flowering dogwood Cornus florida Leaves Unfolding (Late) 39.932600000000000 -75.213200000000000 24874
Mon May 06 00:00:00 GMT 2013 palaback Flowering dogwood Cornus florida Leaves Changing Color (None) 39.932600000000000 -75.213200000000000 24875
Mon May 06 00:00:00 GMT 2013 palaback Flowering dogwood Cornus florida Leaves Dropping (None) 39.932600000000000 -75.213200000000000 24876
Mon May 06 00:00:00 GMT 2013 palaback Flowering dogwood Cornus florida Flowers (Middle) 39.932600000000000 -75.213200000000000 24877
Mon May 06 00:00:00 GMT 2013 palaback Flowering dogwood Cornus florida Fruit (None) 39.932600000000000 -75.213200000000000 24878
Sun Feb 02 00:00:00 GMT 2014 sheastanley Flowering dogwood Cornus florida Leaves Unfolding (None) 35.204700000000000 -97.447000000000000 24997
Sun Feb 02 00:00:00 GMT 2014 sheastanley Flowering dogwood Cornus florida Leaves Changing Color (None) 35.204700000000000 -97.447000000000000 24998
Sun Feb 02 00:00:00 GMT 2014 sheastanley Flowering dogwood Cornus florida Leaves Dropping (None) 35.204700000000000 -97.447000000000000 24999
Sun Feb 02 00:00:00 GMT 2014 sheastanley Flowering dogwood Cornus florida Flowers (None) 35.204700000000000 -97.447000000000000 25000
Sun Feb 02 00:00:00 GMT 2014 sheastanley Flowering dogwood Cornus florida Fruit (None) 35.204700000000000 -97.447000000000000 25001
Sat Oct 12 00:00:00 GMT 2013 Angelyn Flowering dogwood Cornus florida 50% Color 35.619100000000000 -82.765100000000000 25617
Sat Mar 01 00:00:00 GMT 2014 jdonellan Flowering dogwood Cornus florida Leaves Unfolding (None) 39.153200000000000 -77.066900000000000 25865
Sat Mar 01 00:00:00 GMT 2014 jdonellan Flowering dogwood Cornus florida Leaves Changing Color (None) 39.153200000000000 -77.066900000000000 25866
Sat Mar 01 00:00:00 GMT 2014 jdonellan Flowering dogwood Cornus florida Leaves Dropping (None) 39.153200000000000 -77.066900000000000 25867
Sat Mar 01 00:00:00 GMT 2014 jdonellan Flowering dogwood Cornus florida Flowers (None) 39.153200000000000 -77.066900000000000 25868
Sat Mar 01 00:00:00 GMT 2014 jdonellan Flowering dogwood Cornus florida Fruit (None) 39.153200000000000 -77.066900000000000 25869
Sat Mar 08 00:00:00 GMT 2014 Lee700 Flowering dogwood Cornus florida Leaves Unfolding (None) 35.328700000000000 -82.410600000000000 26175
Sat Mar 08 00:00:00 GMT 2014 Lee700 Flowering dogwood Cornus florida Leaves Changing Color (None) 35.328700000000000 -82.410600000000000 26176
Sat Mar 08 00:00:00 GMT 2014 Lee700 Flowering dogwood Cornus florida Leaves Dropping (None) 35.328700000000000 -82.410600000000000 26177
Sat Mar 08 00:00:00 GMT 2014 Lee700 Flowering dogwood Cornus florida Flowers (Middle) 35.328700000000000 -82.410600000000000 26178
Sat Mar 08 00:00:00 GMT 2014 Lee700 Flowering dogwood Cornus florida Fruit (None) 35.328700000000000 -82.410600000000000 26179
Wed Mar 19 00:00:00 GMT 2014 bridge11 Flowering dogwood Cornus florida Leaves Unfolding (None) 39.767100000000000 -76.989100000000000 27044
Wed Mar 19 00:00:00 GMT 2014 bridge11 Flowering dogwood Cornus florida Leaves Changing Color (None) 39.767100000000000 -76.989100000000000 27045
Wed Mar 19 00:00:00 GMT 2014 bridge11 Flowering dogwood Cornus florida Leaves Dropping (None) 39.767100000000000 -76.989100000000000 27046
Wed Mar 19 00:00:00 GMT 2014 bridge11 Flowering dogwood Cornus florida Flowers (Early) 39.767100000000000 -76.989100000000000 27047
Wed Mar 19 00:00:00 GMT 2014 bridge11 Flowering dogwood Cornus florida Fruit (None) 39.767100000000000 -76.989100000000000 27048
Wed Mar 19 00:00:00 GMT 2014 bridge11 Flowering dogwood Cornus florida Leaves Unfolding (None) 39.767100000000000 -76.989100000000000 27039
Wed Mar 19 00:00:00 GMT 2014 bridge11 Flowering dogwood Cornus florida Leaves Changing Color (None) 39.767100000000000 -76.989100000000000 27040
Wed Mar 19 00:00:00 GMT 2014 bridge11 Flowering dogwood Cornus florida Leaves Dropping (None) 39.767100000000000 -76.989100000000000 27041
Wed Mar 19 00:00:00 GMT 2014 bridge11 Flowering dogwood Cornus florida Flowers (Early) 39.767100000000000 -76.989100000000000 27042
Wed Mar 19 00:00:00 GMT 2014 bridge11 Flowering dogwood Cornus florida Fruit (None) 39.767100000000000 -76.989100000000000 27043
Tue Mar 11 00:00:00 GMT 2014 kaji1234 Flowering dogwood Cornus florida Leaves Unfolding (Late) 38.402100000000000 -122.824000000000000 27279
Tue Mar 11 00:00:00 GMT 2014 kaji1234 Flowering dogwood Cornus florida Leaves Changing Color (None) 38.402100000000000 -122.824000000000000 27280
Tue Mar 11 00:00:00 GMT 2014 kaji1234 Flowering dogwood Cornus florida Leaves Dropping (None) 38.402100000000000 -122.824000000000000 27281
Tue Mar 11 00:00:00 GMT 2014 kaji1234 Flowering dogwood Cornus florida Flowers (Middle) 38.402100000000000 -122.824000000000000 27282
Tue Mar 11 00:00:00 GMT 2014 kaji1234 Flowering dogwood Cornus florida Fruit (None) 38.402100000000000 -122.824000000000000 27283
Tue Mar 25 00:00:00 GMT 2014 NCNHP Flowering dogwood Cornus florida Bud Burst 35.780300000000000 -78.639000000000000 27578
Thu Mar 27 00:00:00 GMT 2014 pghbotanicgarden Flowering dogwood Cornus florida Leaves Unfolding (None) 40.417100000000000 -80.169300000000000 27613
Thu Mar 27 00:00:00 GMT 2014 pghbotanicgarden Flowering dogwood Cornus florida Leaves Changing Color (None) 40.417100000000000 -80.169300000000000 27614
Thu Mar 27 00:00:00 GMT 2014 pghbotanicgarden Flowering dogwood Cornus florida Leaves Dropping (None) 40.417100000000000 -80.169300000000000 27615
Thu Mar 27 00:00:00 GMT 2014 pghbotanicgarden Flowering dogwood Cornus florida Flowers (None) 40.417100000000000 -80.169300000000000 27616
Thu Mar 27 00:00:00 GMT 2014 pghbotanicgarden Flowering dogwood Cornus florida Fruit (None) 40.417100000000000 -80.169300000000000 27617
Tue Mar 25 00:00:00 GMT 2014 matthew kornberg Flowering dogwood Cornus florida Leaves Unfolding (None) 36.019800000000000 -78.920100000000000 27668
Tue Mar 25 00:00:00 GMT 2014 matthew kornberg Flowering dogwood Cornus florida Leaves Changing Color (None) 36.019800000000000 -78.920100000000000 27669
Tue Mar 25 00:00:00 GMT 2014 matthew kornberg Flowering dogwood Cornus florida Leaves Dropping (None) 36.019800000000000 -78.920100000000000 27670
Tue Mar 25 00:00:00 GMT 2014 matthew kornberg Flowering dogwood Cornus florida Flowers (Early) 36.019800000000000 -78.920100000000000 27671
Tue Mar 25 00:00:00 GMT 2014 matthew kornberg Flowering dogwood Cornus florida Fruit (None) 36.019800000000000 -78.920100000000000 27672
Wed Mar 26 00:00:00 GMT 2014 heenal95 Flowering dogwood Cornus florida Leaves Unfolding (None) 36.017900000000000 -78.921200000000000 27693
Wed Mar 26 00:00:00 GMT 2014 heenal95 Flowering dogwood Cornus florida Leaves Changing Color (None) 36.017900000000000 -78.921200000000000 27694
Wed Mar 26 00:00:00 GMT 2014 heenal95 Flowering dogwood Cornus florida Leaves Dropping (None) 36.017900000000000 -78.921200000000000 27695
Wed Mar 26 00:00:00 GMT 2014 heenal95 Flowering dogwood Cornus florida Flowers (None) 36.017900000000000 -78.921200000000000 27696
Wed Mar 26 00:00:00 GMT 2014 heenal95 Flowering dogwood Cornus florida Fruit (None) 36.017900000000000 -78.921200000000000 27697
Wed Mar 26 00:00:00 GMT 2014 heenal95 Flowering dogwood Cornus florida Leaves Unfolding (None) 36.017900000000000 -78.921200000000000 27718
Wed Mar 26 00:00:00 GMT 2014 heenal95 Flowering dogwood Cornus florida Leaves Changing Color (None) 36.017900000000000 -78.921200000000000 27719
Wed Mar 26 00:00:00 GMT 2014 heenal95 Flowering dogwood Cornus florida Leaves Dropping (None) 36.017900000000000 -78.921200000000000 27720
Wed Mar 26 00:00:00 GMT 2014 heenal95 Flowering dogwood Cornus florida Flowers (None) 36.017900000000000 -78.921200000000000 27721
Wed Mar 26 00:00:00 GMT 2014 heenal95 Flowering dogwood Cornus florida Fruit (None) 36.017900000000000 -78.921200000000000 27722
Tue Mar 25 00:00:00 GMT 2014 TimothySmith Flowering dogwood Cornus florida Leaves Unfolding (None) 36.018300000000000 -78.920900000000000 27723
Tue Mar 25 00:00:00 GMT 2014 TimothySmith Flowering dogwood Cornus florida Leaves Changing Color (None) 36.018300000000000 -78.920900000000000 27724
Tue Mar 25 00:00:00 GMT 2014 TimothySmith Flowering dogwood Cornus florida Leaves Dropping (None) 36.018300000000000 -78.920900000000000 27725
Tue Mar 25 00:00:00 GMT 2014 TimothySmith Flowering dogwood Cornus florida Flowers (Early) 36.018300000000000 -78.920900000000000 27726
Tue Mar 25 00:00:00 GMT 2014 TimothySmith Flowering dogwood Cornus florida Fruit (None) 36.018300000000000 -78.920900000000000 27727
Thu Mar 27 00:00:00 GMT 2014 sh8d0w Flowering dogwood Cornus florida Leaves Unfolding (Early) 36.018400000000000 -78.921500000000000 27698
Thu Mar 27 00:00:00 GMT 2014 sh8d0w Flowering dogwood Cornus florida Leaves Changing Color (None) 36.018400000000000 -78.921500000000000 27699
Thu Mar 27 00:00:00 GMT 2014 sh8d0w Flowering dogwood Cornus florida Leaves Dropping (None) 36.018400000000000 -78.921500000000000 27700
Thu Mar 27 00:00:00 GMT 2014 sh8d0w Flowering dogwood Cornus florida Flowers (Early) 36.018400000000000 -78.921500000000000 27701
Thu Mar 27 00:00:00 GMT 2014 sh8d0w Flowering dogwood Cornus florida Fruit (None) 36.018400000000000 -78.921500000000000 27702
Thu Mar 27 00:00:00 GMT 2014 austonli Flowering dogwood Cornus florida Leaves Unfolding (Early) 36.018500000000000 -78.920200000000000 27748
Thu Mar 27 00:00:00 GMT 2014 austonli Flowering dogwood Cornus florida Leaves Changing Color (None) 36.018500000000000 -78.920200000000000 27749
Thu Mar 27 00:00:00 GMT 2014 austonli Flowering dogwood Cornus florida Leaves Dropping (None) 36.018500000000000 -78.920200000000000 27750
Thu Mar 27 00:00:00 GMT 2014 austonli Flowering dogwood Cornus florida Flowers (Early) 36.018500000000000 -78.920200000000000 27751
Thu Mar 27 00:00:00 GMT 2014 austonli Flowering dogwood Cornus florida Fruit (None) 36.018500000000000 -78.920200000000000 27752
Tue Mar 25 00:00:00 GMT 2014 austonli Flowering dogwood Cornus florida Leaves Unfolding (Early) 36.018500000000000 -78.920200000000000 27738
Tue Mar 25 00:00:00 GMT 2014 austonli Flowering dogwood Cornus florida Leaves Changing Color (None) 36.018500000000000 -78.920200000000000 27739
Tue Mar 25 00:00:00 GMT 2014 austonli Flowering dogwood Cornus florida Leaves Dropping (None) 36.018500000000000 -78.920200000000000 27740
Tue Mar 25 00:00:00 GMT 2014 austonli Flowering dogwood Cornus florida Flowers (Early) 36.018500000000000 -78.920200000000000 27741
Tue Mar 25 00:00:00 GMT 2014 austonli Flowering dogwood Cornus florida Fruit (None) 36.018500000000000 -78.920200000000000 27742
Tue Mar 25 00:00:00 GMT 2014 widney14k Flowering dogwood Cornus florida Leaves Unfolding (Early) 36.018500000000000 -78.920200000000000 27703
Tue Mar 25 00:00:00 GMT 2014 widney14k Flowering dogwood Cornus florida Leaves Changing Color (None) 36.018500000000000 -78.920200000000000 27704
Tue Mar 25 00:00:00 GMT 2014 widney14k Flowering dogwood Cornus florida Leaves Dropping (None) 36.018500000000000 -78.920200000000000 27705
Tue Mar 25 00:00:00 GMT 2014 widney14k Flowering dogwood Cornus florida Flowers (None) 36.018500000000000 -78.920200000000000 27706
Tue Mar 25 00:00:00 GMT 2014 widney14k Flowering dogwood Cornus florida Fruit (None) 36.018500000000000 -78.920200000000000 27707
Thu Mar 27 00:00:00 GMT 2014 heenal95 Flowering dogwood Cornus florida Leaves Unfolding (None) 36.017900000000000 -78.921200000000000 27743
Thu Mar 27 00:00:00 GMT 2014 heenal95 Flowering dogwood Cornus florida Leaves Changing Color (None) 36.017900000000000 -78.921200000000000 27744
Thu Mar 27 00:00:00 GMT 2014 heenal95 Flowering dogwood Cornus florida Leaves Dropping (None) 36.017900000000000 -78.921200000000000 27745
Thu Mar 27 00:00:00 GMT 2014 heenal95 Flowering dogwood Cornus florida Flowers (None) 36.017900000000000 -78.921200000000000 27746
Thu Mar 27 00:00:00 GMT 2014 heenal95 Flowering dogwood Cornus florida Fruit (None) 36.017900000000000 -78.921200000000000 27747
Thu Mar 27 00:00:00 GMT 2014 Jennings14p Flowering dogwood Cornus florida Leaves Unfolding (Early) 36.016800000000000 -78.920000000000000 27688
Thu Mar 27 00:00:00 GMT 2014 Jennings14p Flowering dogwood Cornus florida Leaves Changing Color (None) 36.016800000000000 -78.920000000000000 27689
Thu Mar 27 00:00:00 GMT 2014 Jennings14p Flowering dogwood Cornus florida Leaves Dropping (None) 36.016800000000000 -78.920000000000000 27690
Thu Mar 27 00:00:00 GMT 2014 Jennings14p Flowering dogwood Cornus florida Flowers (None) 36.016800000000000 -78.920000000000000 27691
Thu Mar 27 00:00:00 GMT 2014 Jennings14p Flowering dogwood Cornus florida Fruit (None) 36.016800000000000 -78.920000000000000 27692
Wed Mar 26 00:00:00 GMT 2014 austonli Flowering dogwood Cornus florida Leaves Unfolding (Early) 36.018500000000000 -78.920200000000000 27753
Wed Mar 26 00:00:00 GMT 2014 austonli Flowering dogwood Cornus florida Leaves Changing Color (None) 36.018500000000000 -78.920200000000000 27754
Wed Mar 26 00:00:00 GMT 2014 austonli Flowering dogwood Cornus florida Leaves Dropping (None) 36.018500000000000 -78.920200000000000 27755
Wed Mar 26 00:00:00 GMT 2014 austonli Flowering dogwood Cornus florida Flowers (Early) 36.018500000000000 -78.920200000000000 27756
Wed Mar 26 00:00:00 GMT 2014 austonli Flowering dogwood Cornus florida Fruit (None) 36.018500000000000 -78.920200000000000 27757
Tue Mar 25 00:00:00 GMT 2014 Zielke14w Flowering dogwood Cornus florida Leaves Unfolding (None) 36.018400000000000 -78.920700000000000 27678
Tue Mar 25 00:00:00 GMT 2014 Zielke14w Flowering dogwood Cornus florida Leaves Changing Color (None) 36.018400000000000 -78.920700000000000 27679
Tue Mar 25 00:00:00 GMT 2014 Zielke14w Flowering dogwood Cornus florida Leaves Dropping (None) 36.018400000000000 -78.920700000000000 27680
Tue Mar 25 00:00:00 GMT 2014 Zielke14w Flowering dogwood Cornus florida Flowers (None) 36.018400000000000 -78.920700000000000 27681
Tue Mar 25 00:00:00 GMT 2014 Zielke14w Flowering dogwood Cornus florida Fruit (None) 36.018400000000000 -78.920700000000000 27682
Wed Mar 26 00:00:00 GMT 2014 Pisharody14V Flowering dogwood Cornus florida Leaves Unfolding (None) 36.018100000000000 -78.921400000000000 27728
Wed Mar 26 00:00:00 GMT 2014 Pisharody14V Flowering dogwood Cornus florida Leaves Changing Color (None) 36.018100000000000 -78.921400000000000 27729
Wed Mar 26 00:00:00 GMT 2014 Pisharody14V Flowering dogwood Cornus florida Leaves Dropping (None) 36.018100000000000 -78.921400000000000 27730
Wed Mar 26 00:00:00 GMT 2014 Pisharody14V Flowering dogwood Cornus florida Flowers (None) 36.018100000000000 -78.921400000000000 27731
Wed Mar 26 00:00:00 GMT 2014 Pisharody14V Flowering dogwood Cornus florida Fruit (None) 36.018100000000000 -78.921400000000000 27732
Wed Mar 26 00:00:00 GMT 2014 lukasodaniel Flowering dogwood Cornus florida Leaves Unfolding (Early) 36.018500000000000 -78.920200000000000 27708
Wed Mar 26 00:00:00 GMT 2014 lukasodaniel Flowering dogwood Cornus florida Leaves Changing Color (None) 36.018500000000000 -78.920200000000000 27709
Wed Mar 26 00:00:00 GMT 2014 lukasodaniel Flowering dogwood Cornus florida Leaves Dropping (None) 36.018500000000000 -78.920200000000000 27710
Wed Mar 26 00:00:00 GMT 2014 lukasodaniel Flowering dogwood Cornus florida Flowers (None) 36.018500000000000 -78.920200000000000 27711
Wed Mar 26 00:00:00 GMT 2014 lukasodaniel Flowering dogwood Cornus florida Fruit (None) 36.018500000000000 -78.920200000000000 27712
Thu Mar 27 00:00:00 GMT 2014 boyette15d Flowering dogwood Cornus florida Leaves Unfolding (None) 36.017900000000000 -78.921200000000000 27733
Thu Mar 27 00:00:00 GMT 2014 boyette15d Flowering dogwood Cornus florida Leaves Changing Color (None) 36.017900000000000 -78.921200000000000 27734
Thu Mar 27 00:00:00 GMT 2014 boyette15d Flowering dogwood Cornus florida Leaves Dropping (None) 36.017900000000000 -78.921200000000000 27735
Thu Mar 27 00:00:00 GMT 2014 boyette15d Flowering dogwood Cornus florida Flowers (None) 36.017900000000000 -78.921200000000000 27736
Thu Mar 27 00:00:00 GMT 2014 boyette15d Flowering dogwood Cornus florida Fruit (None) 36.017900000000000 -78.921200000000000 27737
Tue Mar 25 00:00:00 GMT 2014 zhao14m Flowering dogwood Cornus florida Leaves Unfolding (None) 36.019700000000000 -78.919800000000000 27683
Tue Mar 25 00:00:00 GMT 2014 zhao14m Flowering dogwood Cornus florida Leaves Changing Color (None) 36.019700000000000 -78.919800000000000 27684
Tue Mar 25 00:00:00 GMT 2014 zhao14m Flowering dogwood Cornus florida Leaves Dropping (None) 36.019700000000000 -78.919800000000000 27685
Tue Mar 25 00:00:00 GMT 2014 zhao14m Flowering dogwood Cornus florida Flowers (Early) 36.019700000000000 -78.919800000000000 27686
Tue Mar 25 00:00:00 GMT 2014 zhao14m Flowering dogwood Cornus florida Fruit (None) 36.019700000000000 -78.919800000000000 27687
Thu Mar 27 00:00:00 GMT 2014 qi14t Flowering dogwood Cornus florida Leaves Unfolding (Early) 36.019300000000000 -78.919400000000000 27758
Thu Mar 27 00:00:00 GMT 2014 qi14t Flowering dogwood Cornus florida Leaves Changing Color (None) 36.019300000000000 -78.919400000000000 27759
Thu Mar 27 00:00:00 GMT 2014 qi14t Flowering dogwood Cornus florida Leaves Dropping (None) 36.019300000000000 -78.919400000000000 27760
Thu Mar 27 00:00:00 GMT 2014 qi14t Flowering dogwood Cornus florida Flowers (Early) 36.019300000000000 -78.919400000000000 27761
Thu Mar 27 00:00:00 GMT 2014 qi14t Flowering dogwood Cornus florida Fruit (None) 36.019300000000000 -78.919400000000000 27762
Tue Mar 25 00:00:00 GMT 2014 rdango7 Flowering dogwood Cornus florida Leaves Unfolding (Early) 36.022000000000000 -78.924300000000000 27713
Tue Mar 25 00:00:00 GMT 2014 rdango7 Flowering dogwood Cornus florida Leaves Changing Color (None) 36.022000000000000 -78.924300000000000 27714
Tue Mar 25 00:00:00 GMT 2014 rdango7 Flowering dogwood Cornus florida Leaves Dropping (None) 36.022000000000000 -78.924300000000000 27715
Tue Mar 25 00:00:00 GMT 2014 rdango7 Flowering dogwood Cornus florida Flowers (None) 36.022000000000000 -78.924300000000000 27716
Tue Mar 25 00:00:00 GMT 2014 rdango7 Flowering dogwood Cornus florida Fruit (None) 36.022000000000000 -78.924300000000000 27717
Wed Mar 26 00:00:00 GMT 2014 matthew kornberg Flowering dogwood Cornus florida Leaves Unfolding (None) 36.019800000000000 -78.920100000000000 27673
Wed Mar 26 00:00:00 GMT 2014 matthew kornberg Flowering dogwood Cornus florida Leaves Changing Color (None) 36.019800000000000 -78.920100000000000 27674
Wed Mar 26 00:00:00 GMT 2014 matthew kornberg Flowering dogwood Cornus florida Leaves Dropping (None) 36.019800000000000 -78.920100000000000 27675
Wed Mar 26 00:00:00 GMT 2014 matthew kornberg Flowering dogwood Cornus florida Flowers (Early) 36.019800000000000 -78.920100000000000 27676
Wed Mar 26 00:00:00 GMT 2014 matthew kornberg Flowering dogwood Cornus florida Fruit (None) 36.019800000000000 -78.920100000000000 27677
Tue Apr 01 00:00:00 GMT 2014 mgavazzi Flowering dogwood Cornus florida First Flower 35.729700000000000 -78.813700000000000 28080
Thu Apr 03 00:00:00 GMT 2014 austonli Flowering dogwood Cornus florida Leaves Dropping (None) 36.018456000000000 -78.920155000000000 28105
Thu Apr 03 00:00:00 GMT 2014 austonli Flowering dogwood Cornus florida Flowers (None) 36.018456000000000 -78.920155000000000 28106
Thu Apr 03 00:00:00 GMT 2014 austonli Flowering dogwood Cornus florida Fruit (None) 36.018456000000000 -78.920155000000000 28107
Thu Apr 03 00:00:00 GMT 2014 austonli Flowering dogwood Cornus florida Leaves Unfolding (Early) 36.018456000000000 -78.920155000000000 28108
Thu Apr 03 00:00:00 GMT 2014 austonli Flowering dogwood Cornus florida Leaves Changing Color (None) 36.018456000000000 -78.920155000000000 28109
Thu Apr 03 00:00:00 GMT 2014 austonli Flowering dogwood Cornus florida Leaves Dropping (None) 36.018456000000000 -78.920155000000000 28110
Thu Apr 03 00:00:00 GMT 2014 austonli Flowering dogwood Cornus florida Flowers (None) 36.018456000000000 -78.920155000000000 28111
Thu Apr 03 00:00:00 GMT 2014 austonli Flowering dogwood Cornus florida Fruit (None) 36.018456000000000 -78.920155000000000 28112
Tue Apr 01 00:00:00 GMT 2014 austonli Flowering dogwood Cornus florida Leaves Unfolding (Early) 36.018456000000000 -78.920155000000000 28113
Tue Apr 01 00:00:00 GMT 2014 austonli Flowering dogwood Cornus florida Leaves Changing Color (None) 36.018456000000000 -78.920155000000000 28114
Tue Apr 01 00:00:00 GMT 2014 austonli Flowering dogwood Cornus florida Leaves Dropping (None) 36.018456000000000 -78.920155000000000 28115
Tue Apr 01 00:00:00 GMT 2014 austonli Flowering dogwood Cornus florida Flowers (None) 36.018456000000000 -78.920155000000000 28116
Tue Apr 01 00:00:00 GMT 2014 austonli Flowering dogwood Cornus florida Fruit (None) 36.018456000000000 -78.920155000000000 28117
Thu Apr 03 00:00:00 GMT 2014 JSPARKMAN0005 Flowering dogwood Cornus florida Leaves Unfolding (Early) 37.445100000000000 -82.805160000000000 28064
Sat Mar 29 00:00:00 GMT 2014 austonli Flowering dogwood Cornus florida Leaves Unfolding (Early) 36.018456000000000 -78.920155000000000 28093
Thu Apr 03 00:00:00 GMT 2014 JSPARKMAN0005 Flowering dogwood Cornus florida Leaves Changing Color (Early) 37.445100000000000 -82.805160000000000 28065
Thu Apr 03 00:00:00 GMT 2014 JSPARKMAN0005 Flowering dogwood Cornus florida Leaves Dropping (None) 37.445100000000000 -82.805160000000000 28066
Thu Apr 03 00:00:00 GMT 2014 JSPARKMAN0005 Flowering dogwood Cornus florida Flowers (Early) 37.445100000000000 -82.805160000000000 28067
Sat Mar 29 00:00:00 GMT 2014 austonli Flowering dogwood Cornus florida Leaves Changing Color (None) 36.018456000000000 -78.920155000000000 28094
Sat Mar 29 00:00:00 GMT 2014 austonli Flowering dogwood Cornus florida Leaves Dropping (None) 36.018456000000000 -78.920155000000000 28095
Sat Mar 29 00:00:00 GMT 2014 austonli Flowering dogwood Cornus florida Flowers (None) 36.018456000000000 -78.920155000000000 28096
Thu Apr 03 00:00:00 GMT 2014 JSPARKMAN0005 Flowering dogwood Cornus florida Fruit (None) 37.445100000000000 -82.805160000000000 28068
Sat Mar 29 00:00:00 GMT 2014 austonli Flowering dogwood Cornus florida Fruit (None) 36.018456000000000 -78.920155000000000 28097
Sun Mar 30 00:00:00 GMT 2014 austonli Flowering dogwood Cornus florida Leaves Unfolding (Early) 36.018456000000000 -78.920155000000000 28098
Sun Mar 30 00:00:00 GMT 2014 austonli Flowering dogwood Cornus florida Leaves Changing Color (None) 36.018456000000000 -78.920155000000000 28099
Sun Mar 30 00:00:00 GMT 2014 austonli Flowering dogwood Cornus florida Leaves Dropping (None) 36.018456000000000 -78.920155000000000 28100
Sun Mar 30 00:00:00 GMT 2014 austonli Flowering dogwood Cornus florida Flowers (None) 36.018456000000000 -78.920155000000000 28101
Sun Mar 30 00:00:00 GMT 2014 austonli Flowering dogwood Cornus florida Fruit (None) 36.018456000000000 -78.920155000000000 28102
Fri Mar 28 00:00:00 GMT 2014 austonli Flowering dogwood Cornus florida Leaves Unfolding (Early) 36.018456000000000 -78.920155000000000 28088
Fri Mar 28 00:00:00 GMT 2014 austonli Flowering dogwood Cornus florida Leaves Changing Color (None) 36.018456000000000 -78.920155000000000 28089
Fri Mar 28 00:00:00 GMT 2014 austonli Flowering dogwood Cornus florida Leaves Dropping (None) 36.018456000000000 -78.920155000000000 28090
Fri Mar 28 00:00:00 GMT 2014 austonli Flowering dogwood Cornus florida Flowers (None) 36.018456000000000 -78.920155000000000 28091
Fri Mar 28 00:00:00 GMT 2014 austonli Flowering dogwood Cornus florida Fruit (None) 36.018456000000000 -78.920155000000000 28092
Wed Apr 02 00:00:00 GMT 2014 austonli Flowering dogwood Cornus florida Leaves Unfolding (Early) 36.018456000000000 -78.920155000000000 28118
Wed Apr 02 00:00:00 GMT 2014 austonli Flowering dogwood Cornus florida Leaves Changing Color (None) 36.018456000000000 -78.920155000000000 28119
Wed Apr 02 00:00:00 GMT 2014 austonli Flowering dogwood Cornus florida Leaves Dropping (None) 36.018456000000000 -78.920155000000000 28120
Wed Apr 02 00:00:00 GMT 2014 austonli Flowering dogwood Cornus florida Flowers (None) 36.018456000000000 -78.920155000000000 28121
Wed Apr 02 00:00:00 GMT 2014 austonli Flowering dogwood Cornus florida Fruit (None) 36.018456000000000 -78.920155000000000 28122
Thu Apr 03 00:00:00 GMT 2014 austonli Flowering dogwood Cornus florida Leaves Unfolding (Early) 36.018456000000000 -78.920155000000000 28083
Thu Apr 03 00:00:00 GMT 2014 austonli Flowering dogwood Cornus florida Leaves Changing Color (None) 36.018456000000000 -78.920155000000000 28084
Thu Apr 03 00:00:00 GMT 2014 austonli Flowering dogwood Cornus florida Leaves Dropping (None) 36.018456000000000 -78.920155000000000 28085
Thu Apr 03 00:00:00 GMT 2014 austonli Flowering dogwood Cornus florida Flowers (None) 36.018456000000000 -78.920155000000000 28086
Thu Apr 03 00:00:00 GMT 2014 austonli Flowering dogwood Cornus florida Fruit (None) 36.018456000000000 -78.920155000000000 28087
Thu Apr 03 00:00:00 GMT 2014 austonli Flowering dogwood Cornus florida Leaves Unfolding (Early) 36.018456000000000 -78.920155000000000 28103
Thu Apr 03 00:00:00 GMT 2014 austonli Flowering dogwood Cornus florida Leaves Changing Color (None) 36.018456000000000 -78.920155000000000 28104
Tue Mar 25 00:00:00 GMT 2014 westbrook14e Flowering dogwood Cornus florida Leaves Unfolding (Early) 36.018588000000000 -78.920316000000000 28123
Tue Mar 25 00:00:00 GMT 2014 westbrook14e Flowering dogwood Cornus florida Leaves Changing Color (None) 36.018588000000000 -78.920316000000000 28124
Tue Mar 25 00:00:00 GMT 2014 westbrook14e Flowering dogwood Cornus florida Leaves Dropping (None) 36.018588000000000 -78.920316000000000 28125
Tue Mar 25 00:00:00 GMT 2014 westbrook14e Flowering dogwood Cornus florida Flowers (Early) 36.018588000000000 -78.920316000000000 28126
Tue Mar 25 00:00:00 GMT 2014 westbrook14e Flowering dogwood Cornus florida Fruit (None) 36.018588000000000 -78.920316000000000 28127
Thu Apr 03 00:00:00 GMT 2014 BBANNISTER0003 Flowering dogwood Cornus florida Leaves Unfolding (None) 37.067320000000000 -87.757770000000000 28135
Thu Apr 03 00:00:00 GMT 2014 BBANNISTER0003 Flowering dogwood Cornus florida Leaves Changing Color (Early) 37.067320000000000 -87.757770000000000 28136
Thu Apr 03 00:00:00 GMT 2014 BBANNISTER0003 Flowering dogwood Cornus florida Leaves Dropping (None) 37.067320000000000 -87.757770000000000 28137
Thu Apr 03 00:00:00 GMT 2014 BBANNISTER0003 Flowering dogwood Cornus florida Flowers (Early) 37.067320000000000 -87.757770000000000 28138
Thu Apr 03 00:00:00 GMT 2014 BBANNISTER0003 Flowering dogwood Cornus florida Fruit (None) 37.067320000000000 -87.757770000000000 28139
Mon Mar 31 00:00:00 GMT 2014 bikegoode Flowering dogwood Cornus florida Bud Burst 33.820870000000000 -84.385850000000000 28245
Wed Apr 02 00:00:00 GMT 2014 bikegoode Flowering dogwood Cornus florida First Flower 33.820870000000000 -84.385850000000000 28246
Sat Apr 05 00:00:00 GMT 2014 mayapples Flowering dogwood Cornus florida Bud Burst 38.261430000000000 -78.494560000000000 28248
Mon Apr 07 00:00:00 GMT 2014 austonli Flowering dogwood Cornus florida Leaves Unfolding (Middle) 36.018456000000000 -78.920155000000000 28302
Mon Apr 07 00:00:00 GMT 2014 austonli Flowering dogwood Cornus florida Leaves Changing Color (None) 36.018456000000000 -78.920155000000000 28303
Mon Apr 07 00:00:00 GMT 2014 austonli Flowering dogwood Cornus florida Leaves Dropping (None) 36.018456000000000 -78.920155000000000 28304
Mon Apr 07 00:00:00 GMT 2014 austonli Flowering dogwood Cornus florida Flowers (Early) 36.018456000000000 -78.920155000000000 28305
Mon Apr 07 00:00:00 GMT 2014 austonli Flowering dogwood Cornus florida Fruit (None) 36.018456000000000 -78.920155000000000 28306
Sun Apr 06 00:00:00 GMT 2014 austonli Flowering dogwood Cornus florida Leaves Unfolding (Middle) 36.018456000000000 -78.920155000000000 28297
Sun Apr 06 00:00:00 GMT 2014 austonli Flowering dogwood Cornus florida Leaves Changing Color (None) 36.018456000000000 -78.920155000000000 28298
Sun Apr 06 00:00:00 GMT 2014 austonli Flowering dogwood Cornus florida Leaves Dropping (None) 36.018456000000000 -78.920155000000000 28299
Sun Apr 06 00:00:00 GMT 2014 austonli Flowering dogwood Cornus florida Flowers (Early) 36.018456000000000 -78.920155000000000 28300
Sun Apr 06 00:00:00 GMT 2014 austonli Flowering dogwood Cornus florida Fruit (None) 36.018456000000000 -78.920155000000000 28301
Sat Apr 05 00:00:00 GMT 2014 austonli Flowering dogwood Cornus florida Leaves Unfolding (Middle) 36.018456000000000 -78.920155000000000 28292
Sat Apr 05 00:00:00 GMT 2014 austonli Flowering dogwood Cornus florida Leaves Changing Color (None) 36.018456000000000 -78.920155000000000 28293
Sat Apr 05 00:00:00 GMT 2014 austonli Flowering dogwood Cornus florida Leaves Dropping (None) 36.018456000000000 -78.920155000000000 28294
Sat Apr 05 00:00:00 GMT 2014 austonli Flowering dogwood Cornus florida Flowers (Early) 36.018456000000000 -78.920155000000000 28295
Sat Apr 05 00:00:00 GMT 2014 austonli Flowering dogwood Cornus florida Fruit (None) 36.018456000000000 -78.920155000000000 28296
Fri Apr 04 00:00:00 GMT 2014 austonli Flowering dogwood Cornus florida Leaves Unfolding (Middle) 36.018456000000000 -78.920155000000000 28287
Fri Apr 04 00:00:00 GMT 2014 austonli Flowering dogwood Cornus florida Leaves Changing Color (None) 36.018456000000000 -78.920155000000000 28288
Fri Apr 04 00:00:00 GMT 2014 austonli Flowering dogwood Cornus florida Leaves Dropping (None) 36.018456000000000 -78.920155000000000 28289
Fri Apr 04 00:00:00 GMT 2014 austonli Flowering dogwood Cornus florida Flowers (Early) 36.018456000000000 -78.920155000000000 28290
Fri Apr 04 00:00:00 GMT 2014 austonli Flowering dogwood Cornus florida Fruit (None) 36.018456000000000 -78.920155000000000 28291
Wed Mar 26 00:00:00 GMT 2014 rdango7 Flowering dogwood Cornus florida Flowers (None) 36.018390000000000 -78.920710000000000 28333
Wed Mar 26 00:00:00 GMT 2014 rdango7 Flowering dogwood Cornus florida Fruit (None) 36.018390000000000 -78.920710000000000 28334
Thu Mar 27 00:00:00 GMT 2014 rdango7 Flowering dogwood Cornus florida Leaves Unfolding (Middle) 36.018390000000000 -78.920710000000000 28338
Thu Mar 27 00:00:00 GMT 2014 rdango7 Flowering dogwood Cornus florida Leaves Changing Color (None) 36.018390000000000 -78.920710000000000 28339
Thu Mar 27 00:00:00 GMT 2014 rdango7 Flowering dogwood Cornus florida Leaves Dropping (None) 36.018390000000000 -78.920710000000000 28340
Thu Mar 27 00:00:00 GMT 2014 rdango7 Flowering dogwood Cornus florida Flowers (None) 36.018390000000000 -78.920710000000000 28341
Thu Mar 27 00:00:00 GMT 2014 rdango7 Flowering dogwood Cornus florida Fruit (None) 36.018390000000000 -78.920710000000000 28342
Wed Mar 26 00:00:00 GMT 2014 rdango7 Flowering dogwood Cornus florida Leaves Unfolding (Early) 36.018390000000000 -78.920710000000000 28330
Wed Mar 26 00:00:00 GMT 2014 rdango7 Flowering dogwood Cornus florida Leaves Changing Color (None) 36.018390000000000 -78.920710000000000 28331
Wed Mar 26 00:00:00 GMT 2014 rdango7 Flowering dogwood Cornus florida Leaves Dropping (None) 36.018390000000000 -78.920710000000000 28332
Tue Apr 08 00:00:00 GMT 2014 sh8d0w Flowering dogwood Cornus florida Leaves Unfolding (Middle) 36.017880000000000 -78.921170000000000 28346
Tue Apr 08 00:00:00 GMT 2014 sh8d0w Flowering dogwood Cornus florida Leaves Changing Color (Middle) 36.017880000000000 -78.921170000000000 28347
Tue Apr 08 00:00:00 GMT 2014 sh8d0w Flowering dogwood Cornus florida Leaves Dropping (None) 36.017880000000000 -78.921170000000000 28348
Tue Apr 08 00:00:00 GMT 2014 sh8d0w Flowering dogwood Cornus florida Flowers (Middle) 36.017880000000000 -78.921170000000000 28349
Tue Apr 08 00:00:00 GMT 2014 sh8d0w Flowering dogwood Cornus florida Fruit (None) 36.017880000000000 -78.921170000000000 28350
Tue Apr 08 00:00:00 GMT 2014 austonli Flowering dogwood Cornus florida Leaves Unfolding (Middle) 36.018456000000000 -78.920155000000000 28351
Tue Apr 08 00:00:00 GMT 2014 austonli Flowering dogwood Cornus florida Leaves Changing Color (None) 36.018456000000000 -78.920155000000000 28352
Tue Apr 08 00:00:00 GMT 2014 austonli Flowering dogwood Cornus florida Leaves Dropping (None) 36.018456000000000 -78.920155000000000 28353
Tue Apr 08 00:00:00 GMT 2014 austonli Flowering dogwood Cornus florida Flowers (Early) 36.018456000000000 -78.920155000000000 28354
Tue Apr 08 00:00:00 GMT 2014 austonli Flowering dogwood Cornus florida Fruit (None) 36.018456000000000 -78.920155000000000 28355
Tue Apr 08 00:00:00 GMT 2014 HuangJ Flowering dogwood Cornus florida Leaves Unfolding (Early) 36.017880000000000 -78.921170000000000 28369
Tue Apr 08 00:00:00 GMT 2014 HuangJ Flowering dogwood Cornus florida Leaves Changing Color (None) 36.017880000000000 -78.921170000000000 28370
Tue Apr 08 00:00:00 GMT 2014 HuangJ Flowering dogwood Cornus florida Leaves Dropping (None) 36.017880000000000 -78.921170000000000 28371
Tue Apr 08 00:00:00 GMT 2014 HuangJ Flowering dogwood Cornus florida Flowers (Middle) 36.017880000000000 -78.921170000000000 28372
Tue Apr 08 00:00:00 GMT 2014 HuangJ Flowering dogwood Cornus florida Fruit (None) 36.017880000000000 -78.921170000000000 28373
Tue Apr 01 00:00:00 GMT 2014 HuangJ Flowering dogwood Cornus florida Bud Burst 36.017880000000000 -78.921170000000000 28374
Tue Mar 25 00:00:00 GMT 2014 HuangJ Flowering dogwood Cornus florida First Leaf 36.017880000000000 -78.921170000000000 28375
Mon Apr 07 00:00:00 GMT 2014 HuangJ Flowering dogwood Cornus florida First Flower 36.017880000000000 -78.921170000000000 28376
Tue Apr 01 00:00:00 GMT 2014 zhao14m Flowering dogwood Cornus florida Leaves Unfolding (None) 36.018390000000000 -78.920710000000000 28524
Tue Apr 01 00:00:00 GMT 2014 zhao14m Flowering dogwood Cornus florida Leaves Changing Color (None) 36.018390000000000 -78.920710000000000 28525
Tue Apr 01 00:00:00 GMT 2014 zhao14m Flowering dogwood Cornus florida Leaves Dropping (None) 36.018390000000000 -78.920710000000000 28526
Tue Apr 01 00:00:00 GMT 2014 zhao14m Flowering dogwood Cornus florida Flowers (Middle) 36.018390000000000 -78.920710000000000 28527
Tue Apr 01 00:00:00 GMT 2014 zhao14m Flowering dogwood Cornus florida Fruit (None) 36.018390000000000 -78.920710000000000 28528
Tue Apr 08 00:00:00 GMT 2014 rwh2411 Flowering dogwood Cornus florida Bud Burst 37.602300000000000 -77.475800000000000 28378
Tue Apr 01 00:00:00 GMT 2014 Zielke14w Flowering dogwood Cornus florida Leaves Unfolding (Middle) 36.017880000000000 -78.921170000000000 28539
Tue Apr 01 00:00:00 GMT 2014 Zielke14w Flowering dogwood Cornus florida Leaves Changing Color (Middle) 36.017880000000000 -78.921170000000000 28540
Tue Apr 01 00:00:00 GMT 2014 Zielke14w Flowering dogwood Cornus florida Leaves Dropping (None) 36.017880000000000 -78.921170000000000 28541
Tue Apr 08 00:00:00 GMT 2014 Zielke14w Flowering dogwood Cornus florida Leaves Unfolding (Late) 36.017880000000000 -78.921170000000000 28579
Tue Apr 08 00:00:00 GMT 2014 Zielke14w Flowering dogwood Cornus florida Leaves Changing Color (Middle) 36.017880000000000 -78.921170000000000 28580
Fri Mar 28 00:00:00 GMT 2014 Zielke14w Flowering dogwood Cornus florida Leaves Unfolding (None) 35.994030000000000 -78.898620000000000 28529
Fri Mar 28 00:00:00 GMT 2014 Zielke14w Flowering dogwood Cornus florida Leaves Changing Color (None) 35.994030000000000 -78.898620000000000 28530
Fri Mar 28 00:00:00 GMT 2014 Zielke14w Flowering dogwood Cornus florida Leaves Dropping (None) 35.994030000000000 -78.898620000000000 28531
Mon Mar 31 00:00:00 GMT 2014 Zielke14w Flowering dogwood Cornus florida Leaves Unfolding (Early) 36.017880000000000 -78.921170000000000 28534
Mon Mar 31 00:00:00 GMT 2014 Zielke14w Flowering dogwood Cornus florida Leaves Changing Color (Early) 36.017880000000000 -78.921170000000000 28535
Mon Mar 31 00:00:00 GMT 2014 Zielke14w Flowering dogwood Cornus florida Leaves Dropping (None) 36.017880000000000 -78.921170000000000 28536
Tue Apr 01 00:00:00 GMT 2014 Zielke14w Flowering dogwood Cornus florida Flowers (None) 36.017880000000000 -78.921170000000000 28542
Tue Apr 08 00:00:00 GMT 2014 Zielke14w Flowering dogwood Cornus florida Leaves Dropping (None) 36.017880000000000 -78.921170000000000 28581
Tue Apr 08 00:00:00 GMT 2014 Zielke14w Flowering dogwood Cornus florida Flowers (Middle) 36.017880000000000 -78.921170000000000 28582
Tue Apr 08 00:00:00 GMT 2014 Zielke14w Flowering dogwood Cornus florida Fruit (Middle) 36.017880000000000 -78.921170000000000 28583
Fri Mar 28 00:00:00 GMT 2014 Zielke14w Flowering dogwood Cornus florida Flowers (None) 35.994030000000000 -78.898620000000000 28532
Fri Mar 28 00:00:00 GMT 2014 Zielke14w Flowering dogwood Cornus florida Fruit (None) 35.994030000000000 -78.898620000000000 28533
Mon Mar 31 00:00:00 GMT 2014 Zielke14w Flowering dogwood Cornus florida Flowers (None) 36.017880000000000 -78.921170000000000 28537
Mon Mar 31 00:00:00 GMT 2014 Zielke14w Flowering dogwood Cornus florida Fruit (None) 36.017880000000000 -78.921170000000000 28538
Tue Apr 01 00:00:00 GMT 2014 Zielke14w Flowering dogwood Cornus florida Fruit (None) 36.017880000000000 -78.921170000000000 28543
Thu Apr 03 00:00:00 GMT 2014 Zielke14w Flowering dogwood Cornus florida Leaves Unfolding (Middle) 36.017880000000000 -78.921170000000000 28554
Thu Apr 03 00:00:00 GMT 2014 Zielke14w Flowering dogwood Cornus florida Leaves Changing Color (Middle) 36.017880000000000 -78.921170000000000 28555
Thu Apr 03 00:00:00 GMT 2014 Zielke14w Flowering dogwood Cornus florida Leaves Dropping (None) 36.017880000000000 -78.921170000000000 28556
Thu Apr 03 00:00:00 GMT 2014 Zielke14w Flowering dogwood Cornus florida Flowers (Early) 36.017880000000000 -78.921170000000000 28557
Thu Apr 03 00:00:00 GMT 2014 Zielke14w Flowering dogwood Cornus florida Fruit (None) 36.017880000000000 -78.921170000000000 28558
Sun Apr 06 00:00:00 GMT 2014 Zielke14w Flowering dogwood Cornus florida Leaves Unfolding (Late) 36.017880000000000 -78.921170000000000 28574
Sun Apr 06 00:00:00 GMT 2014 Zielke14w Flowering dogwood Cornus florida Leaves Changing Color (Middle) 36.017880000000000 -78.921170000000000 28575
Sun Apr 06 00:00:00 GMT 2014 Zielke14w Flowering dogwood Cornus florida Leaves Dropping (None) 36.017880000000000 -78.921170000000000 28576
Sun Apr 06 00:00:00 GMT 2014 Zielke14w Flowering dogwood Cornus florida Flowers (Middle) 36.017880000000000 -78.921170000000000 28577
Sun Apr 06 00:00:00 GMT 2014 Zielke14w Flowering dogwood Cornus florida Fruit (Middle) 36.017880000000000 -78.921170000000000 28578
Wed Apr 09 00:00:00 GMT 2014 Zielke14w Flowering dogwood Cornus florida Leaves Unfolding (Middle) 36.017880000000000 -78.921170000000000 28544
Sat Apr 05 00:00:00 GMT 2014 Zielke14w Flowering dogwood Cornus florida Leaves Unfolding (Late) 36.017880000000000 -78.921170000000000 28569
Wed Apr 09 00:00:00 GMT 2014 Zielke14w Flowering dogwood Cornus florida Leaves Changing Color (Middle) 36.017880000000000 -78.921170000000000 28545
Wed Apr 09 00:00:00 GMT 2014 Zielke14w Flowering dogwood Cornus florida Leaves Dropping (None) 36.017880000000000 -78.921170000000000 28546
Wed Apr 09 00:00:00 GMT 2014 Zielke14w Flowering dogwood Cornus florida Flowers (None) 36.017880000000000 -78.921170000000000 28547
Sat Apr 05 00:00:00 GMT 2014 Zielke14w Flowering dogwood Cornus florida Leaves Changing Color (Middle) 36.017880000000000 -78.921170000000000 28570
Sat Apr 05 00:00:00 GMT 2014 Zielke14w Flowering dogwood Cornus florida Leaves Dropping (None) 36.017880000000000 -78.921170000000000 28571
Sat Apr 05 00:00:00 GMT 2014 Zielke14w Flowering dogwood Cornus florida Flowers (Middle) 36.017880000000000 -78.921170000000000 28572
Wed Apr 09 00:00:00 GMT 2014 Zielke14w Flowering dogwood Cornus florida Fruit (None) 36.017880000000000 -78.921170000000000 28548
Sat Apr 05 00:00:00 GMT 2014 Zielke14w Flowering dogwood Cornus florida Fruit (Early) 36.017880000000000 -78.921170000000000 28573
Wed Apr 02 00:00:00 GMT 2014 Zielke14w Flowering dogwood Cornus florida Leaves Unfolding (Middle) 36.017880000000000 -78.921170000000000 28549
Wed Apr 02 00:00:00 GMT 2014 Zielke14w Flowering dogwood Cornus florida Leaves Changing Color (Middle) 36.017880000000000 -78.921170000000000 28550
Sat Apr 05 00:00:00 GMT 2014 Zielke14w Flowering dogwood Cornus florida Leaves Unfolding (Late) 36.017880000000000 -78.921170000000000 28564
Sat Apr 05 00:00:00 GMT 2014 Zielke14w Flowering dogwood Cornus florida Leaves Changing Color (Middle) 36.017880000000000 -78.921170000000000 28565
Sat Apr 05 00:00:00 GMT 2014 Zielke14w Flowering dogwood Cornus florida Leaves Dropping (None) 36.017880000000000 -78.921170000000000 28566
Wed Apr 02 00:00:00 GMT 2014 Zielke14w Flowering dogwood Cornus florida Leaves Dropping (None) 36.017880000000000 -78.921170000000000 28551
Wed Apr 02 00:00:00 GMT 2014 Zielke14w Flowering dogwood Cornus florida Flowers (None) 36.017880000000000 -78.921170000000000 28552
Wed Apr 02 00:00:00 GMT 2014 Zielke14w Flowering dogwood Cornus florida Fruit (None) 36.017880000000000 -78.921170000000000 28553
Sat Apr 05 00:00:00 GMT 2014 Zielke14w Flowering dogwood Cornus florida Flowers (Middle) 36.017880000000000 -78.921170000000000 28567
Sat Apr 05 00:00:00 GMT 2014 Zielke14w Flowering dogwood Cornus florida Fruit (Early) 36.017880000000000 -78.921170000000000 28568
Fri Apr 04 00:00:00 GMT 2014 Zielke14w Flowering dogwood Cornus florida Leaves Unfolding (Middle) 36.017880000000000 -78.921170000000000 28559
Fri Apr 04 00:00:00 GMT 2014 Zielke14w Flowering dogwood Cornus florida Leaves Changing Color (Middle) 36.017880000000000 -78.921170000000000 28560
Fri Apr 04 00:00:00 GMT 2014 Zielke14w Flowering dogwood Cornus florida Leaves Dropping (None) 36.017880000000000 -78.921170000000000 28561
Fri Apr 04 00:00:00 GMT 2014 Zielke14w Flowering dogwood Cornus florida Flowers (Middle) 36.017880000000000 -78.921170000000000 28562
Fri Apr 04 00:00:00 GMT 2014 Zielke14w Flowering dogwood Cornus florida Fruit (None) 36.017880000000000 -78.921170000000000 28563
Thu Apr 03 00:00:00 GMT 2014 kmoconnor Flowering dogwood Cornus florida Bud Burst 38.491900000000000 -77.562700000000000 28584
Thu Apr 10 00:00:00 GMT 2014 CoryellCastle Flowering dogwood Cornus florida Leaves Unfolding (Late) 33.185530000000000 -87.496220000000000 28601
Thu Apr 10 00:00:00 GMT 2014 CoryellCastle Flowering dogwood Cornus florida Leaves Changing Color (None) 33.185530000000000 -87.496220000000000 28602
Thu Apr 10 00:00:00 GMT 2014 CoryellCastle Flowering dogwood Cornus florida Leaves Dropping (None) 33.185530000000000 -87.496220000000000 28603
Thu Apr 10 00:00:00 GMT 2014 CoryellCastle Flowering dogwood Cornus florida Flowers (Early) 33.185530000000000 -87.496220000000000 28604
Thu Apr 10 00:00:00 GMT 2014 CoryellCastle Flowering dogwood Cornus florida Fruit (None) 33.185530000000000 -87.496220000000000 28605
Thu Apr 10 00:00:00 GMT 2014 soconnor Flowering dogwood Cornus florida Leaves Unfolding (None) 38.904866000000000 -77.037076000000000 28656
Thu Apr 10 00:00:00 GMT 2014 soconnor Flowering dogwood Cornus florida Leaves Changing Color (None) 38.904866000000000 -77.037076000000000 28657
Thu Apr 10 00:00:00 GMT 2014 soconnor Flowering dogwood Cornus florida Leaves Dropping (None) 38.904866000000000 -77.037076000000000 28658
Thu Apr 10 00:00:00 GMT 2014 soconnor Flowering dogwood Cornus florida Flowers (Middle) 38.904866000000000 -77.037076000000000 28659
Thu Apr 10 00:00:00 GMT 2014 soconnor Flowering dogwood Cornus florida Fruit (None) 38.904866000000000 -77.037076000000000 28660
Fri Apr 04 00:00:00 GMT 2014 greendragon Flowering dogwood Cornus florida Bud Burst 37.662400000000000 -89.250700000000000 28614
Mon Mar 31 00:00:00 GMT 2014 lukasodaniel Flowering dogwood Cornus florida Leaves Unfolding (Middle) 36.018536000000000 -78.920163000000000 28588
Mon Mar 31 00:00:00 GMT 2014 lukasodaniel Flowering dogwood Cornus florida Leaves Changing Color (None) 36.018536000000000 -78.920163000000000 28589
Mon Mar 31 00:00:00 GMT 2014 lukasodaniel Flowering dogwood Cornus florida Leaves Dropping (None) 36.018536000000000 -78.920163000000000 28590
Mon Mar 31 00:00:00 GMT 2014 lukasodaniel Flowering dogwood Cornus florida Flowers (None) 36.018536000000000 -78.920163000000000 28591
Mon Mar 31 00:00:00 GMT 2014 lukasodaniel Flowering dogwood Cornus florida Fruit (None) 36.018536000000000 -78.920163000000000 28592
Tue Apr 01 00:00:00 GMT 2014 lukasodaniel Flowering dogwood Cornus florida Leaves Unfolding (Late) 36.018530000000000 -78.920166000000000 28593
Tue Apr 01 00:00:00 GMT 2014 lukasodaniel Flowering dogwood Cornus florida Leaves Changing Color (None) 36.018530000000000 -78.920166000000000 28594
Tue Apr 01 00:00:00 GMT 2014 lukasodaniel Flowering dogwood Cornus florida Leaves Dropping (None) 36.018530000000000 -78.920166000000000 28595
Tue Apr 01 00:00:00 GMT 2014 lukasodaniel Flowering dogwood Cornus florida Flowers (None) 36.018530000000000 -78.920166000000000 28596
Tue Apr 01 00:00:00 GMT 2014 lukasodaniel Flowering dogwood Cornus florida Fruit (None) 36.018530000000000 -78.920166000000000 28597
Sat Apr 05 00:00:00 GMT 2014 mgavazzi Flowering dogwood Cornus florida First Leaf 35.729700000000000 -78.813700000000000 28787
Sat Apr 05 00:00:00 GMT 2014 mgavazzi Flowering dogwood Cornus florida Full Flower 35.729700000000000 -78.813700000000000 28788
Tue Apr 01 00:00:00 GMT 2014 rdango7 Flowering dogwood Cornus florida Leaves Unfolding (Middle) 36.018390000000000 -78.920710000000000 28794
Tue Apr 01 00:00:00 GMT 2014 rdango7 Flowering dogwood Cornus florida Leaves Changing Color (None) 36.018390000000000 -78.920710000000000 28795
Tue Apr 01 00:00:00 GMT 2014 rdango7 Flowering dogwood Cornus florida Leaves Dropping (None) 36.018390000000000 -78.920710000000000 28796
Tue Apr 01 00:00:00 GMT 2014 rdango7 Flowering dogwood Cornus florida Flowers (None) 36.018390000000000 -78.920710000000000 28797
Tue Apr 01 00:00:00 GMT 2014 rdango7 Flowering dogwood Cornus florida Fruit (None) 36.018390000000000 -78.920710000000000 28798
Fri Mar 28 00:00:00 GMT 2014 rdango7 Flowering dogwood Cornus florida Leaves Unfolding (Middle) 36.018390000000000 -78.920710000000000 28789
Fri Mar 28 00:00:00 GMT 2014 rdango7 Flowering dogwood Cornus florida Leaves Changing Color (None) 36.018390000000000 -78.920710000000000 28790
Fri Mar 28 00:00:00 GMT 2014 rdango7 Flowering dogwood Cornus florida Leaves Dropping (None) 36.018390000000000 -78.920710000000000 28791
Fri Mar 28 00:00:00 GMT 2014 rdango7 Flowering dogwood Cornus florida Flowers (None) 36.018390000000000 -78.920710000000000 28792
Fri Mar 28 00:00:00 GMT 2014 rdango7 Flowering dogwood Cornus florida Fruit (None) 36.018390000000000 -78.920710000000000 28793
Thu Apr 03 00:00:00 GMT 2014 rdango7 Flowering dogwood Cornus florida Leaves Unfolding (Middle) 36.018390000000000 -78.920710000000000 28799
Thu Apr 03 00:00:00 GMT 2014 rdango7 Flowering dogwood Cornus florida Leaves Changing Color (None) 36.018390000000000 -78.920710000000000 28800
Thu Apr 03 00:00:00 GMT 2014 rdango7 Flowering dogwood Cornus florida Leaves Dropping (None) 36.018390000000000 -78.920710000000000 28801
Thu Apr 03 00:00:00 GMT 2014 rdango7 Flowering dogwood Cornus florida Flowers (Early) 36.018390000000000 -78.920710000000000 28802
Thu Apr 03 00:00:00 GMT 2014 rdango7 Flowering dogwood Cornus florida Fruit (None) 36.018390000000000 -78.920710000000000 28803
Mon Apr 07 00:00:00 GMT 2014 rdango7 Flowering dogwood Cornus florida Leaves Unfolding (Late) 36.018390000000000 -78.920710000000000 28804
Mon Apr 07 00:00:00 GMT 2014 rdango7 Flowering dogwood Cornus florida Leaves Changing Color (None) 36.018390000000000 -78.920710000000000 28805
Mon Apr 07 00:00:00 GMT 2014 rdango7 Flowering dogwood Cornus florida Leaves Dropping (None) 36.018390000000000 -78.920710000000000 28806
Mon Apr 07 00:00:00 GMT 2014 rdango7 Flowering dogwood Cornus florida Flowers (Middle) 36.018390000000000 -78.920710000000000 28807
Mon Apr 07 00:00:00 GMT 2014 rdango7 Flowering dogwood Cornus florida Fruit (None) 36.018390000000000 -78.920710000000000 28808
Thu Apr 03 00:00:00 GMT 2014 lprice Flowering dogwood Cornus florida Bud Burst 37.186750000000000 -86.100540000000000 28814
Sat Apr 12 00:00:00 GMT 2014 bikegoode Flowering dogwood Cornus florida First Leaf 33.820870000000000 -84.385850000000000 28847
Sat Apr 12 00:00:00 GMT 2014 bikegoode Flowering dogwood Cornus florida Full Flower 33.820870000000000 -84.385850000000000 28848
Wed Jan 29 00:00:00 GMT 2014 audstuck Flowering dogwood Cornus florida Bud Burst 39.165915000000000 -86.520317000000000 28866
Mon Apr 14 00:00:00 GMT 2014 amberfuhrman93 Flowering dogwood Cornus florida Leaves Unfolding (None) 10.218000000000000 -30.665000000000000 29191
Mon Apr 14 00:00:00 GMT 2014 amberfuhrman93 Flowering dogwood Cornus florida Leaves Changing Color (None) 10.218000000000000 -30.665000000000000 29192
Mon Apr 14 00:00:00 GMT 2014 amberfuhrman93 Flowering dogwood Cornus florida Leaves Dropping (None) 10.218000000000000 -30.665000000000000 29193
Mon Apr 14 00:00:00 GMT 2014 amberfuhrman93 Flowering dogwood Cornus florida Flowers (Middle) 10.218000000000000 -30.665000000000000 29194
Mon Apr 14 00:00:00 GMT 2014 amberfuhrman93 Flowering dogwood Cornus florida Fruit (None) 10.218000000000000 -30.665000000000000 29195
Sun Mar 09 00:00:00 GMT 2014 soheekwon Flowering dogwood Cornus florida Bud Burst 39.170123000000000 -86.514036000000000 29110
Fri Mar 28 00:00:00 GMT 2014 soheekwon Flowering dogwood Cornus florida First Leaf 39.170123000000000 -86.514036000000000 29111
Mon Apr 14 00:00:00 GMT 2014 kmoconnor Flowering dogwood Cornus florida First Leaf 38.491900000000000 -77.562700000000000 29258
Thu Apr 03 00:00:00 GMT 2014 kimladd Flowering dogwood Cornus florida Leaves Unfolding (None) 39.175918000000000 -86.528754000000000 29122
Thu Apr 03 00:00:00 GMT 2014 kimladd Flowering dogwood Cornus florida Leaves Changing Color (None) 39.175918000000000 -86.528754000000000 29123
Thu Apr 03 00:00:00 GMT 2014 kimladd Flowering dogwood Cornus florida Leaves Dropping (None) 39.175918000000000 -86.528754000000000 29124
Thu Apr 03 00:00:00 GMT 2014 kimladd Flowering dogwood Cornus florida Flowers (Early) 39.175918000000000 -86.528754000000000 29125
Thu Apr 03 00:00:00 GMT 2014 kimladd Flowering dogwood Cornus florida Fruit (None) 39.175918000000000 -86.528754000000000 29126
Wed Apr 09 00:00:00 GMT 2014 nen Flowering dogwood Cornus florida Bud Burst 38.100000000000000 -78.489600000000000 29321
Tue Apr 01 00:00:00 GMT 2014 NCNHP Flowering dogwood Cornus florida First Leaf 35.780300000000000 -78.639000000000000 29352
Sun Apr 13 00:00:00 GMT 2014 rwh2411 Flowering dogwood Cornus florida First Leaf 37.602300000000000 -77.475800000000000 29392
Sun Apr 06 00:00:00 GMT 2014 rwh2411 Flowering dogwood Cornus florida Full Flower 37.602300000000000 -77.475800000000000 29393
Thu Apr 10 00:00:00 GMT 2014 ktl55805 Flowering dogwood Cornus florida Leaves Unfolding (Middle) 37.195331000000000 -85.676880000000000 29417
Thu Apr 10 00:00:00 GMT 2014 ktl55805 Flowering dogwood Cornus florida Leaves Changing Color (None) 37.195331000000000 -85.676880000000000 29418
Thu Apr 10 00:00:00 GMT 2014 ktl55805 Flowering dogwood Cornus florida Leaves Dropping (None) 37.195331000000000 -85.676880000000000 29419
Thu Apr 10 00:00:00 GMT 2014 ktl55805 Flowering dogwood Cornus florida Flowers (None) 37.195331000000000 -85.676880000000000 29420
Thu Apr 10 00:00:00 GMT 2014 ktl55805 Flowering dogwood Cornus florida Fruit (None) 37.195331000000000 -85.676880000000000 29421
Tue Apr 01 00:00:00 GMT 2014 westbrook14e Flowering dogwood Cornus florida Leaves Unfolding (Middle) 36.018602000000000 -78.920330000000000 29514
Tue Apr 01 00:00:00 GMT 2014 westbrook14e Flowering dogwood Cornus florida Leaves Changing Color (None) 36.018602000000000 -78.920330000000000 29515
Tue Apr 01 00:00:00 GMT 2014 westbrook14e Flowering dogwood Cornus florida Leaves Dropping (None) 36.018602000000000 -78.920330000000000 29516
Tue Apr 01 00:00:00 GMT 2014 westbrook14e Flowering dogwood Cornus florida Flowers (Middle) 36.018602000000000 -78.920330000000000 29517
Tue Apr 01 00:00:00 GMT 2014 westbrook14e Flowering dogwood Cornus florida Fruit (None) 36.018602000000000 -78.920330000000000 29518
Wed Apr 16 00:00:00 GMT 2014 14edcook Flowering dogwood Cornus florida Leaves Unfolding (Early) 37.309125000000000 -86.044664000000000 29569
Wed Apr 16 00:00:00 GMT 2014 14edcook Flowering dogwood Cornus florida Leaves Changing Color (None) 37.309125000000000 -86.044664000000000 29570
Wed Apr 16 00:00:00 GMT 2014 14edcook Flowering dogwood Cornus florida Leaves Dropping (None) 37.309125000000000 -86.044664000000000 29571
Wed Apr 16 00:00:00 GMT 2014 14edcook Flowering dogwood Cornus florida Flowers (Early) 37.309125000000000 -86.044664000000000 29572
Wed Apr 16 00:00:00 GMT 2014 14edcook Flowering dogwood Cornus florida Fruit (None) 37.309125000000000 -86.044664000000000 29573
Sun Apr 06 00:00:00 GMT 2014 pghbotanicgarden Flowering dogwood Cornus florida Bud Burst 40.417200000000000 -80.169800000000000 29583
Fri Apr 18 00:00:00 GMT 2014 brigidfaye Flowering dogwood Cornus florida Leaves Unfolding (None) 37.379120000000000 -86.060070000000000 29600
Fri Apr 18 00:00:00 GMT 2014 brigidfaye Flowering dogwood Cornus florida Leaves Changing Color (None) 37.379120000000000 -86.060070000000000 29601
Fri Apr 18 00:00:00 GMT 2014 brigidfaye Flowering dogwood Cornus florida Leaves Dropping (None) 37.379120000000000 -86.060070000000000 29602
Fri Apr 18 00:00:00 GMT 2014 brigidfaye Flowering dogwood Cornus florida Flowers (Early) 37.379120000000000 -86.060070000000000 29603
Fri Apr 18 00:00:00 GMT 2014 brigidfaye Flowering dogwood Cornus florida Fruit (None) 37.379120000000000 -86.060070000000000 29604
Thu Apr 17 00:00:00 GMT 2014 14anharper Flowering dogwood Cornus florida Leaves Unfolding (Middle) 37.292310000000000 -85.950890000000000 29595
Thu Apr 17 00:00:00 GMT 2014 14anharper Flowering dogwood Cornus florida Leaves Changing Color (Early) 37.292310000000000 -85.950890000000000 29596
Thu Apr 17 00:00:00 GMT 2014 14anharper Flowering dogwood Cornus florida Leaves Dropping (None) 37.292310000000000 -85.950890000000000 29597
Thu Apr 17 00:00:00 GMT 2014 14anharper Flowering dogwood Cornus florida Flowers (Early) 37.292310000000000 -85.950890000000000 29598
Thu Apr 17 00:00:00 GMT 2014 14anharper Flowering dogwood Cornus florida Fruit (None) 37.292310000000000 -85.950890000000000 29599
Wed Apr 16 00:00:00 GMT 2014 Mango55 Flowering dogwood Cornus florida Bud Burst 40.208200000000000 -76.771900000000000 29664
Sat Apr 19 00:00:00 GMT 2014 bikegoode Flowering dogwood Cornus florida 50% Leaf Fall 33.820870000000000 -84.385850000000000 29704
Sat Apr 19 00:00:00 GMT 2014 wca27657 Flowering dogwood Cornus florida Leaves Unfolding (Middle) 37.253833000000000 -78.926210000000000 29752
Sat Apr 19 00:00:00 GMT 2014 wca27657 Flowering dogwood Cornus florida Leaves Changing Color (None) 37.253833000000000 -78.926210000000000 29753
Sat Apr 19 00:00:00 GMT 2014 wca27657 Flowering dogwood Cornus florida Leaves Dropping (None) 37.253833000000000 -78.926210000000000 29754
Sat Apr 19 00:00:00 GMT 2014 wca27657 Flowering dogwood Cornus florida Flowers (Middle) 37.253833000000000 -78.926210000000000 29755
Sat Apr 19 00:00:00 GMT 2014 wca27657 Flowering dogwood Cornus florida Fruit (None) 37.253833000000000 -78.926210000000000 29756
Tue Apr 08 00:00:00 GMT 2014 jdriffle14 Flowering dogwood Cornus florida Leaves Unfolding (Middle) 37.176200000000000 -85.906100000000000 30279
Tue Apr 08 00:00:00 GMT 2014 jdriffle14 Flowering dogwood Cornus florida Leaves Changing Color (None) 37.176200000000000 -85.906100000000000 30280
Tue Apr 08 00:00:00 GMT 2014 jdriffle14 Flowering dogwood Cornus florida Leaves Dropping (None) 37.176200000000000 -85.906100000000000 30281
Tue Apr 08 00:00:00 GMT 2014 jdriffle14 Flowering dogwood Cornus florida Flowers (Middle) 37.176200000000000 -85.906100000000000 30282
Tue Apr 08 00:00:00 GMT 2014 jdriffle14 Flowering dogwood Cornus florida Fruit (None) 37.176200000000000 -85.906100000000000 30283
Fri Sep 13 00:00:00 GMT 2013 brydel_New_Branches_reporter52 Flowering dogwood Cornus florida First Ripe Fruit 42.895800000000000 -85.635200000000000 30360
Fri Sep 13 00:00:00 GMT 2013 brydel_New_Branches_reporter52 Flowering dogwood Cornus florida First Ripe Fruit 42.895800000000000 -85.635200000000000 30361
Sun Oct 13 00:00:00 GMT 2013 brydel_New_Branches_reporter52 Flowering dogwood Cornus florida 50% Color 42.895800000000000 -85.635200000000000 30362
Sun Oct 13 00:00:00 GMT 2013 brydel_New_Branches_reporter52 Flowering dogwood Cornus florida 50% Color 42.895800000000000 -85.635200000000000 30363
Fri Sep 13 00:00:00 GMT 2013 brydel_New_Branches_reporter52 Flowering dogwood Cornus florida First Ripe Fruit 42.895800000000000 -85.635200000000000 30367
Fri Oct 11 00:00:00 GMT 2013 brydel_New_Branches_reporter52 Flowering dogwood Cornus florida 50% Color 42.895800000000000 -85.635200000000000 30368
Thu Dec 05 00:00:00 GMT 2013 brydel_New_Branches_reporter52 Flowering dogwood Cornus florida 50% Leaf Fall 42.895800000000000 -85.635200000000000 30369
Thu Apr 24 00:00:00 GMT 2014 greendragon Flowering dogwood Cornus florida First Flower 37.662400000000000 -89.250700000000000 30534
Tue Apr 22 00:00:00 GMT 2014 Mango55 Flowering dogwood Cornus florida First Flower 40.208200000000000 -76.771900000000000 30545
Sun Apr 20 00:00:00 GMT 2014 CoryellCastle Flowering dogwood Cornus florida Full Flower 33.185530000000000 -87.496220000000000 30661
Thu Apr 24 00:00:00 GMT 2014 nen Flowering dogwood Cornus florida First Leaf 38.100000000000000 -78.489600000000000 30704
Sat Apr 26 00:00:00 GMT 2014 bikegoode Flowering dogwood Cornus florida All Leaves Unfolded 33.820870000000000 -84.385850000000000 30967
Wed Apr 30 00:00:00 GMT 2014 crenvirothon Flowering dogwood Cornus florida Leaves Unfolding (Middle) 40.000000000000000 -100.000000000000000 30984
Wed Apr 30 00:00:00 GMT 2014 crenvirothon Flowering dogwood Cornus florida Leaves Changing Color (None) 40.000000000000000 -100.000000000000000 30985
Wed Apr 30 00:00:00 GMT 2014 crenvirothon Flowering dogwood Cornus florida Leaves Dropping (None) 40.000000000000000 -100.000000000000000 30986
Wed Apr 30 00:00:00 GMT 2014 crenvirothon Flowering dogwood Cornus florida Flowers (None) 40.000000000000000 -100.000000000000000 30987
Wed Apr 30 00:00:00 GMT 2014 crenvirothon Flowering dogwood Cornus florida Fruit (None) 40.000000000000000 -100.000000000000000 30988
Wed Apr 30 00:00:00 GMT 2014 kmoconnor Flowering dogwood Cornus florida First Flower 38.491900000000000 -77.562700000000000 31045
Thu May 01 00:00:00 GMT 2014 Mango55 Flowering dogwood Cornus florida First Leaf 40.208200000000000 -76.771900000000000 31293
Sat Apr 26 00:00:00 GMT 2014 Mango55 Flowering dogwood Cornus florida Full Flower 40.208200000000000 -76.771900000000000 31294
Thu May 01 00:00:00 GMT 2014 greendragon Flowering dogwood Cornus florida Full Flower 37.662400000000000 -89.250700000000000 31439
Tue May 06 00:00:00 GMT 2014 greendragon Flowering dogwood Cornus florida All Leaves Unfolded 37.662400000000000 -89.250700000000000 31544
Wed Apr 16 00:00:00 GMT 2014 mgavazzi Flowering dogwood Cornus florida All Leaves Unfolded 35.729700000000000 -78.813700000000000 31520
Tue May 06 00:00:00 GMT 2014 Mango55 Flowering dogwood Cornus florida All Leaves Unfolded 40.208200000000000 -76.771900000000000 31629
Sun May 04 00:00:00 GMT 2014 pghbotanicgarden Flowering dogwood Cornus florida First Flower 40.417200000000000 -80.169800000000000 31714
Fri May 02 00:00:00 GMT 2014 lafave Flowering dogwood Cornus florida Leaves Unfolding (Late) 35.096530000000000 -81.183130000000000 31739
Fri May 02 00:00:00 GMT 2014 lafave Flowering dogwood Cornus florida Leaves Changing Color (None) 35.096530000000000 -81.183130000000000 31740
Fri May 02 00:00:00 GMT 2014 lafave Flowering dogwood Cornus florida Leaves Dropping (None) 35.096530000000000 -81.183130000000000 31741
Fri May 02 00:00:00 GMT 2014 lafave Flowering dogwood Cornus florida Flowers (Late) 35.096530000000000 -81.183130000000000 31742
Fri May 02 00:00:00 GMT 2014 lafave Flowering dogwood Cornus florida Fruit (None) 35.096530000000000 -81.183130000000000 31743
Mon May 05 00:00:00 GMT 2014 Audubon Flowering dogwood Cornus florida Full Flower 40.545200000000000 -79.907400000000000 31877
Mon May 05 00:00:00 GMT 2014 keighan.mcgoff Flowering dogwood Cornus florida First Flower 42.316200000000000 -71.084500000000000 32137
Fri May 09 00:00:00 GMT 2014 keighan.mcgoff Flowering dogwood Cornus florida Full Flower 42.316200000000000 -71.084500000000000 32138
Tue Oct 01 00:00:00 GMT 2013 keighan.mcgoff Flowering dogwood Cornus florida 50% Color 42.316200000000000 -71.084500000000000 32139
Fri Apr 11 00:00:00 GMT 2014 keighan.mcgoff Flowering dogwood Cornus florida Bud Burst 42.316200000000000 -71.084500000000000 32397
Fri Apr 18 00:00:00 GMT 2014 keighan.mcgoff Flowering dogwood Cornus florida First Leaf 42.316200000000000 -71.084500000000000 32398
Sun Apr 27 00:00:00 GMT 2014 sengstrom_Lawrence_Academy_2_reporter11 Flowering dogwood Cornus florida Bud Burst 42.604100000000000 -71.565800000000000 32480
Fri May 02 00:00:00 GMT 2014 sengstrom_Lawrence_Academy_2_reporter11 Flowering dogwood Cornus florida First Leaf 42.604100000000000 -71.565800000000000 32481
Sat May 03 00:00:00 GMT 2014 sengstrom_Lawrence_Academy_2_reporter11 Flowering dogwood Cornus florida All Leaves Unfolded 42.604100000000000 -71.565800000000000 32482
Mon May 05 00:00:00 GMT 2014 sengstrom_Lawrence_Academy_2_reporter11 Flowering dogwood Cornus florida First Flower 42.604100000000000 -71.565800000000000 32483
Wed May 21 00:00:00 GMT 2014 briecmarie Flowering dogwood Cornus florida Leaves Unfolding (Middle) 34.151058000000000 -77.888925000000000 32689
Wed May 21 00:00:00 GMT 2014 briecmarie Flowering dogwood Cornus florida Leaves Changing Color (Early) 34.151058000000000 -77.888925000000000 32690
Wed May 21 00:00:00 GMT 2014 briecmarie Flowering dogwood Cornus florida Leaves Dropping (None) 34.151058000000000 -77.888925000000000 32691
Wed May 21 00:00:00 GMT 2014 briecmarie Flowering dogwood Cornus florida Flowers (Late) 34.151058000000000 -77.888925000000000 32692
Wed May 21 00:00:00 GMT 2014 briecmarie Flowering dogwood Cornus florida Fruit (Early) 34.151058000000000 -77.888925000000000 32693
Wed Apr 16 00:00:00 GMT 2014 tuckerasso Flowering dogwood Cornus florida First Leaf 37.231600000000000 -76.663600000000000 32901
Mon Apr 21 00:00:00 GMT 2014 tuckerasso Flowering dogwood Cornus florida All Leaves Unfolded 37.231600000000000 -76.663600000000000 32902
Mon Apr 14 00:00:00 GMT 2014 tuckerasso Flowering dogwood Cornus florida First Flower 37.231600000000000 -76.663600000000000 32903
Sat Apr 19 00:00:00 GMT 2014 tuckerasso Flowering dogwood Cornus florida Full Flower 37.231600000000000 -76.663600000000000 32904
Mon May 26 00:00:00 GMT 2014 palaback Flowering dogwood Cornus florida Leaves Unfolding (Late) 41.784080000000000 -71.415090000000000 32939
Mon May 26 00:00:00 GMT 2014 palaback Flowering dogwood Cornus florida Leaves Changing Color (None) 41.784080000000000 -71.415090000000000 32940
Mon May 26 00:00:00 GMT 2014 palaback Flowering dogwood Cornus florida Leaves Dropping (None) 41.784080000000000 -71.415090000000000 32941
Mon May 26 00:00:00 GMT 2014 palaback Flowering dogwood Cornus florida Flowers (Middle) 41.784080000000000 -71.415090000000000 32942
Mon May 26 00:00:00 GMT 2014 palaback Flowering dogwood Cornus florida Fruit (None) 41.784080000000000 -71.415090000000000 32943
Fri May 30 00:00:00 GMT 2014 bikegoode Flowering dogwood Cornus florida First Ripe Fruit 33.820870000000000 -84.385850000000000 33040
Thu Jun 05 00:00:00 GMT 2014 MadeleineSutton Flowering dogwood Cornus florida Leaves Unfolding (Late) 47.609360000000000 -122.317330000000000 33594
Thu Jun 05 00:00:00 GMT 2014 MadeleineSutton Flowering dogwood Cornus florida Leaves Changing Color (None) 47.609360000000000 -122.317330000000000 33595
Thu Jun 05 00:00:00 GMT 2014 MadeleineSutton Flowering dogwood Cornus florida Leaves Dropping (None) 47.609360000000000 -122.317330000000000 33596
Thu Jun 05 00:00:00 GMT 2014 MadeleineSutton Flowering dogwood Cornus florida Flowers (Late) 47.609360000000000 -122.317330000000000 33597
Thu Jun 05 00:00:00 GMT 2014 MadeleineSutton Flowering dogwood Cornus florida Fruit (Late) 47.609360000000000 -122.317330000000000 33598
Thu May 15 00:00:00 GMT 2014 bayfawn Flowering dogwood Cornus florida Full Flower 39.448260000000000 -76.267280000000000 33728
Mon Sep 01 00:00:00 GMT 2014 cbbartle Flowering dogwood Cornus florida All Leaves Unfolded 39.166940000000000 -86.546150000000000 35167
Mon Sep 01 00:00:00 GMT 2014 cbbartle Flowering dogwood Cornus florida First Flower 39.166940000000000 -86.546150000000000 35168
Fri Sep 05 00:00:00 GMT 2014 Audubon Flowering dogwood Cornus florida First Ripe Fruit 40.545200000000000 -79.907400000000000 35199
Mon Sep 08 00:00:00 GMT 2014 beenature Flowering dogwood Cornus florida Leaves Unfolding (None) 34.186310000000000 -84.490100000000000 35217
Mon Sep 08 00:00:00 GMT 2014 beenature Flowering dogwood Cornus florida Leaves Changing Color (Early) 34.186310000000000 -84.490100000000000 35218
Mon Sep 08 00:00:00 GMT 2014 beenature Flowering dogwood Cornus florida Leaves Dropping (Early) 34.186310000000000 -84.490100000000000 35219
Mon Sep 08 00:00:00 GMT 2014 beenature Flowering dogwood Cornus florida Flowers (None) 34.186310000000000 -84.490100000000000 35220
Mon Sep 08 00:00:00 GMT 2014 beenature Flowering dogwood Cornus florida Fruit (None) 34.186310000000000 -84.490100000000000 35221
Mon Sep 22 00:00:00 GMT 2014 adbasica Flowering dogwood Cornus florida Leaves Unfolding (None) 36.659840000000000 -79.797210000000000 35607
Mon Sep 22 00:00:00 GMT 2014 adbasica Flowering dogwood Cornus florida Leaves Changing Color (Middle) 36.659840000000000 -79.797210000000000 35608
Mon Sep 22 00:00:00 GMT 2014 adbasica Flowering dogwood Cornus florida Leaves Dropping (Middle) 36.659840000000000 -79.797210000000000 35609
Mon Sep 22 00:00:00 GMT 2014 adbasica Flowering dogwood Cornus florida Flowers (None) 36.659840000000000 -79.797210000000000 35610
Mon Sep 22 00:00:00 GMT 2014 adbasica Flowering dogwood Cornus florida Fruit (Late) 36.659840000000000 -79.797210000000000 35611
Sun Sep 07 00:00:00 GMT 2014 bayfawn Flowering dogwood Cornus florida First Ripe Fruit 39.448260000000000 -76.267280000000000 35825
Sun Oct 05 00:00:00 GMT 2014 bayfawn Flowering dogwood Cornus florida Full Fruiting 39.448260000000000 -76.267280000000000 36064
Sun Oct 05 00:00:00 GMT 2014 bayfawn Flowering dogwood Cornus florida 50% Color 39.448260000000000 -76.267280000000000 36065
Mon Oct 06 00:00:00 GMT 2014 adbasica Flowering dogwood Cornus florida Leaves Unfolding (None) 36.659840000000000 -79.797210000000000 36237
Mon Oct 06 00:00:00 GMT 2014 adbasica Flowering dogwood Cornus florida Leaves Changing Color (Middle) 36.659840000000000 -79.797210000000000 36238
Mon Oct 06 00:00:00 GMT 2014 adbasica Flowering dogwood Cornus florida Leaves Dropping (Middle) 36.659840000000000 -79.797210000000000 36239
Mon Oct 06 00:00:00 GMT 2014 adbasica Flowering dogwood Cornus florida Flowers (None) 36.659840000000000 -79.797210000000000 36240
Mon Oct 06 00:00:00 GMT 2014 adbasica Flowering dogwood Cornus florida Fruit (None) 36.659840000000000 -79.797210000000000 36241
Mon Sep 29 00:00:00 GMT 2014 lelder0008 Flowering dogwood Cornus florida Leaves Unfolding (None) 37.401153000000000 -87.965748000000000 36401
Mon Sep 29 00:00:00 GMT 2014 lelder0008 Flowering dogwood Cornus florida Leaves Changing Color (Middle) 37.401153000000000 -87.965748000000000 36402
Mon Sep 29 00:00:00 GMT 2014 lelder0008 Flowering dogwood Cornus florida Leaves Dropping (Early) 37.401153000000000 -87.965748000000000 36403
Mon Sep 29 00:00:00 GMT 2014 lelder0008 Flowering dogwood Cornus florida Flowers (None) 37.401153000000000 -87.965748000000000 36404
Mon Sep 29 00:00:00 GMT 2014 lelder0008 Flowering dogwood Cornus florida Fruit (None) 37.401153000000000 -87.965748000000000 36405
Mon Sep 29 00:00:00 GMT 2014 lelder0008 Flowering dogwood Cornus florida Leaves Unfolding (None) 37.401153000000000 -87.965748000000000 36391
Mon Sep 29 00:00:00 GMT 2014 lelder0008 Flowering dogwood Cornus florida Leaves Changing Color (Early) 37.401153000000000 -87.965748000000000 36392
Mon Sep 29 00:00:00 GMT 2014 lelder0008 Flowering dogwood Cornus florida Leaves Dropping (Early) 37.401153000000000 -87.965748000000000 36393
Mon Sep 29 00:00:00 GMT 2014 lelder0008 Flowering dogwood Cornus florida Flowers (None) 37.401153000000000 -87.965748000000000 36394
Mon Sep 29 00:00:00 GMT 2014 lelder0008 Flowering dogwood Cornus florida Fruit (None) 37.401153000000000 -87.965748000000000 36395
Mon Sep 29 00:00:00 GMT 2014 lelder0008 Flowering dogwood Cornus florida Leaves Unfolding (None) 37.401153000000000 -87.965748000000000 36396
Mon Sep 29 00:00:00 GMT 2014 lelder0008 Flowering dogwood Cornus florida Leaves Changing Color (Early) 37.401153000000000 -87.965748000000000 36397
Mon Sep 29 00:00:00 GMT 2014 lelder0008 Flowering dogwood Cornus florida Leaves Dropping (Middle) 37.401153000000000 -87.965748000000000 36398
Mon Sep 29 00:00:00 GMT 2014 lelder0008 Flowering dogwood Cornus florida Flowers (None) 37.401153000000000 -87.965748000000000 36399
Mon Sep 29 00:00:00 GMT 2014 lelder0008 Flowering dogwood Cornus florida Fruit (None) 37.401153000000000 -87.965748000000000 36400
Wed Oct 08 00:00:00 GMT 2014 skp0005 Flowering dogwood Cornus florida Leaves Unfolding (None) 37.343400000000000 -85.341910000000000 36473
Wed Oct 08 00:00:00 GMT 2014 skp0005 Flowering dogwood Cornus florida Leaves Changing Color (Middle) 37.343400000000000 -85.341910000000000 36474
Wed Oct 08 00:00:00 GMT 2014 skp0005 Flowering dogwood Cornus florida Leaves Dropping (Middle) 37.343400000000000 -85.341910000000000 36475
Wed Oct 08 00:00:00 GMT 2014 skp0005 Flowering dogwood Cornus florida Flowers (None) 37.343400000000000 -85.341910000000000 36476
Wed Oct 08 00:00:00 GMT 2014 skp0005 Flowering dogwood Cornus florida Fruit (None) 37.343400000000000 -85.341910000000000 36477
Wed Oct 01 00:00:00 GMT 2014 nellmartinez Flowering dogwood Cornus florida Bud Burst 38.984157000000000 -76.933913000000000 36499
Wed Oct 01 00:00:00 GMT 2014 nellmartinez Flowering dogwood Cornus florida 50% Color 38.984157000000000 -76.933913000000000 36500
Fri Sep 26 00:00:00 GMT 2014 MAC51 Flowering dogwood Cornus florida Leaves Unfolding (Late) 37.033140000000000 -85.076170000000000 36668
Fri Sep 26 00:00:00 GMT 2014 MAC51 Flowering dogwood Cornus florida Leaves Changing Color (None) 37.033140000000000 -85.076170000000000 36669
Fri Sep 26 00:00:00 GMT 2014 MAC51 Flowering dogwood Cornus florida Leaves Dropping (None) 37.033140000000000 -85.076170000000000 36670
Fri Sep 26 00:00:00 GMT 2014 MAC51 Flowering dogwood Cornus florida Flowers (Middle) 37.033140000000000 -85.076170000000000 36671
Fri Sep 26 00:00:00 GMT 2014 MAC51 Flowering dogwood Cornus florida Fruit (Early) 37.033140000000000 -85.076170000000000 36672
Fri Oct 03 00:00:00 GMT 2014 MAC51 Flowering dogwood Cornus florida Leaves Unfolding (Late) 37.033140000000000 -85.076170000000000 36673
Fri Oct 03 00:00:00 GMT 2014 MAC51 Flowering dogwood Cornus florida Leaves Changing Color (Early) 37.033140000000000 -85.076170000000000 36674
Fri Oct 03 00:00:00 GMT 2014 MAC51 Flowering dogwood Cornus florida Leaves Dropping (None) 37.033140000000000 -85.076170000000000 36675
Fri Oct 03 00:00:00 GMT 2014 MAC51 Flowering dogwood Cornus florida Flowers (Middle) 37.033140000000000 -85.076170000000000 36676
Fri Oct 03 00:00:00 GMT 2014 MAC51 Flowering dogwood Cornus florida Fruit (None) 37.033140000000000 -85.076170000000000 36677
Fri Oct 10 00:00:00 GMT 2014 MAC51 Flowering dogwood Cornus florida Leaves Unfolding (Late) 37.033140000000000 -85.076170000000000 36678
Fri Oct 10 00:00:00 GMT 2014 MAC51 Flowering dogwood Cornus florida Leaves Changing Color (Middle) 37.033140000000000 -85.076170000000000 36679
Fri Oct 10 00:00:00 GMT 2014 MAC51 Flowering dogwood Cornus florida Leaves Dropping (Early) 37.033140000000000 -85.076170000000000 36680
Fri Oct 10 00:00:00 GMT 2014 MAC51 Flowering dogwood Cornus florida Flowers (Late) 37.033140000000000 -85.076170000000000 36681
Fri Oct 10 00:00:00 GMT 2014 MAC51 Flowering dogwood Cornus florida Fruit (Early) 37.033140000000000 -85.076170000000000 36682
Fri Oct 10 00:00:00 GMT 2014 MAC51 Flowering dogwood Cornus florida Leaves Unfolding (Late) 37.033140000000000 -85.076170000000000 36663
Fri Oct 10 00:00:00 GMT 2014 MAC51 Flowering dogwood Cornus florida Leaves Changing Color (Early) 37.033140000000000 -85.076170000000000 36664
Fri Oct 10 00:00:00 GMT 2014 MAC51 Flowering dogwood Cornus florida Leaves Dropping (Early) 37.033140000000000 -85.076170000000000 36665
Fri Oct 10 00:00:00 GMT 2014 MAC51 Flowering dogwood Cornus florida Flowers (Late) 37.033140000000000 -85.076170000000000 36666
Fri Oct 10 00:00:00 GMT 2014 MAC51 Flowering dogwood Cornus florida Fruit (Early) 37.033140000000000 -85.076170000000000 36667
Fri Sep 26 00:00:00 GMT 2014 MAC51 Flowering dogwood Cornus florida Leaves Unfolding (Late) 37.091040000000000 -85.062700000000000 36683
Fri Sep 26 00:00:00 GMT 2014 MAC51 Flowering dogwood Cornus florida Leaves Changing Color (None) 37.091040000000000 -85.062700000000000 36684
Fri Sep 26 00:00:00 GMT 2014 MAC51 Flowering dogwood Cornus florida Leaves Dropping (None) 37.091040000000000 -85.062700000000000 36685
Fri Sep 26 00:00:00 GMT 2014 MAC51 Flowering dogwood Cornus florida Flowers (Late) 37.091040000000000 -85.062700000000000 36686
Fri Sep 26 00:00:00 GMT 2014 MAC51 Flowering dogwood Cornus florida Fruit (Early) 37.091040000000000 -85.062700000000000 36687
Fri Oct 03 00:00:00 GMT 2014 MAC51 Flowering dogwood Cornus florida Leaves Unfolding (Late) 37.091040000000000 -85.062700000000000 36688
Fri Sep 26 00:00:00 GMT 2014 MAC51 Flowering dogwood Cornus florida Leaves Unfolding (Late) 37.033140000000000 -85.076170000000000 36648
Fri Sep 26 00:00:00 GMT 2014 MAC51 Flowering dogwood Cornus florida Leaves Changing Color (None) 37.033140000000000 -85.076170000000000 36649
Fri Sep 26 00:00:00 GMT 2014 MAC51 Flowering dogwood Cornus florida Leaves Dropping (None) 37.033140000000000 -85.076170000000000 36650
Fri Sep 26 00:00:00 GMT 2014 MAC51 Flowering dogwood Cornus florida Flowers (Early) 37.033140000000000 -85.076170000000000 36651
Fri Oct 03 00:00:00 GMT 2014 MAC51 Flowering dogwood Cornus florida Leaves Changing Color (Early) 37.091040000000000 -85.062700000000000 36689
Fri Oct 03 00:00:00 GMT 2014 MAC51 Flowering dogwood Cornus florida Leaves Dropping (None) 37.091040000000000 -85.062700000000000 36690
Fri Oct 03 00:00:00 GMT 2014 MAC51 Flowering dogwood Cornus florida Flowers (Late) 37.091040000000000 -85.062700000000000 36691
Fri Oct 03 00:00:00 GMT 2014 MAC51 Flowering dogwood Cornus florida Fruit (Early) 37.091040000000000 -85.062700000000000 36692
Fri Sep 26 00:00:00 GMT 2014 MAC51 Flowering dogwood Cornus florida Fruit (Early) 37.033140000000000 -85.076170000000000 36652
Fri Oct 10 00:00:00 GMT 2014 MAC51 Flowering dogwood Cornus florida Leaves Unfolding (Late) 37.091040000000000 -85.062700000000000 36693
Fri Oct 10 00:00:00 GMT 2014 MAC51 Flowering dogwood Cornus florida Leaves Changing Color (Early) 37.091040000000000 -85.062700000000000 36694
Fri Oct 10 00:00:00 GMT 2014 MAC51 Flowering dogwood Cornus florida Leaves Dropping (Early) 37.091040000000000 -85.062700000000000 36695
Fri Oct 03 00:00:00 GMT 2014 MAC51 Flowering dogwood Cornus florida Leaves Unfolding (Late) 37.033140000000000 -85.076170000000000 36653
Fri Oct 03 00:00:00 GMT 2014 MAC51 Flowering dogwood Cornus florida Leaves Changing Color (None) 37.033140000000000 -85.076170000000000 36654
Fri Oct 03 00:00:00 GMT 2014 MAC51 Flowering dogwood Cornus florida Leaves Dropping (None) 37.033140000000000 -85.076170000000000 36655
Fri Oct 03 00:00:00 GMT 2014 MAC51 Flowering dogwood Cornus florida Flowers (Early) 37.033140000000000 -85.076170000000000 36656
Fri Oct 03 00:00:00 GMT 2014 MAC51 Flowering dogwood Cornus florida Fruit (Early) 37.033140000000000 -85.076170000000000 36657
Fri Oct 10 00:00:00 GMT 2014 MAC51 Flowering dogwood Cornus florida Flowers (Late) 37.091040000000000 -85.062700000000000 36696
Fri Oct 10 00:00:00 GMT 2014 MAC51 Flowering dogwood Cornus florida Fruit (Middle) 37.091040000000000 -85.062700000000000 36697
Sun Oct 12 00:00:00 GMT 2014 skp0005 Flowering dogwood Cornus florida Leaves Unfolding (Early) 40.000000000000000 -100.000000000000000 36946
Sun Oct 12 00:00:00 GMT 2014 skp0005 Flowering dogwood Cornus florida Leaves Changing Color (Middle) 40.000000000000000 -100.000000000000000 36947
Sun Oct 12 00:00:00 GMT 2014 skp0005 Flowering dogwood Cornus florida Leaves Dropping (Middle) 40.000000000000000 -100.000000000000000 36948
Sun Oct 12 00:00:00 GMT 2014 skp0005 Flowering dogwood Cornus florida Flowers (None) 40.000000000000000 -100.000000000000000 36949
Sun Oct 12 00:00:00 GMT 2014 skp0005 Flowering dogwood Cornus florida Fruit (None) 40.000000000000000 -100.000000000000000 36950
Thu Oct 16 00:00:00 GMT 2014 spentzosinghram_Catherine_Cook_School_reporter18 Flowering dogwood Cornus florida Leaves Unfolding (None) 41.908880000000000 -87.635900000000000 37439
Thu Oct 16 00:00:00 GMT 2014 spentzosinghram_Catherine_Cook_School_reporter18 Flowering dogwood Cornus florida Leaves Changing Color (Early) 41.908880000000000 -87.635900000000000 37440
Thu Oct 16 00:00:00 GMT 2014 spentzosinghram_Catherine_Cook_School_reporter18 Flowering dogwood Cornus florida Leaves Dropping (Middle) 41.908880000000000 -87.635900000000000 37441
Thu Oct 16 00:00:00 GMT 2014 spentzosinghram_Catherine_Cook_School_reporter18 Flowering dogwood Cornus florida Flowers (None) 41.908880000000000 -87.635900000000000 37442
Thu Oct 16 00:00:00 GMT 2014 spentzosinghram_Catherine_Cook_School_reporter18 Flowering dogwood Cornus florida Fruit (None) 41.908880000000000 -87.635900000000000 37443
Thu Oct 09 00:00:00 GMT 2014 spentzosinghram_Catherine_Cook_School_reporter1 Flowering dogwood Cornus florida Leaves Unfolding (None) 41.909570000000000 -87.635360000000000 37394
Thu Oct 09 00:00:00 GMT 2014 spentzosinghram_Catherine_Cook_School_reporter1 Flowering dogwood Cornus florida Leaves Changing Color (Early) 41.909570000000000 -87.635360000000000 37395
Thu Oct 09 00:00:00 GMT 2014 spentzosinghram_Catherine_Cook_School_reporter1 Flowering dogwood Cornus florida Leaves Dropping (None) 41.909570000000000 -87.635360000000000 37396
Thu Oct 09 00:00:00 GMT 2014 spentzosinghram_Catherine_Cook_School_reporter1 Flowering dogwood Cornus florida Flowers (None) 41.909570000000000 -87.635360000000000 37397
Thu Oct 09 00:00:00 GMT 2014 spentzosinghram_Catherine_Cook_School_reporter1 Flowering dogwood Cornus florida Fruit (None) 41.909570000000000 -87.635360000000000 37398
Fri Oct 17 00:00:00 GMT 2014 rshuman Flowering dogwood Cornus florida Leaves Unfolding (Late) 44.686222000000000 -73.569747000000000 37837
Fri Oct 17 00:00:00 GMT 2014 rshuman Flowering dogwood Cornus florida Leaves Changing Color (Early) 44.686222000000000 -73.569747000000000 37838
Fri Oct 17 00:00:00 GMT 2014 rshuman Flowering dogwood Cornus florida Leaves Dropping (Early) 44.686222000000000 -73.569747000000000 37839
Fri Oct 17 00:00:00 GMT 2014 rshuman Flowering dogwood Cornus florida Flowers (Late) 44.686222000000000 -73.569747000000000 37840
Fri Oct 17 00:00:00 GMT 2014 rshuman Flowering dogwood Cornus florida Fruit (Early) 44.686222000000000 -73.569747000000000 37841
Fri Oct 03 00:00:00 GMT 2014 rshuman Flowering dogwood Cornus florida Leaves Unfolding (Late) 44.698100000000000 -73.631500000000000 37807
Fri Oct 03 00:00:00 GMT 2014 rshuman Flowering dogwood Cornus florida Leaves Changing Color (None) 44.698100000000000 -73.631500000000000 37808
Fri Oct 03 00:00:00 GMT 2014 rshuman Flowering dogwood Cornus florida Leaves Dropping (Early) 44.698100000000000 -73.631500000000000 37809
Fri Oct 03 00:00:00 GMT 2014 rshuman Flowering dogwood Cornus florida Flowers (None) 44.698100000000000 -73.631500000000000 37810
Fri Oct 03 00:00:00 GMT 2014 rshuman Flowering dogwood Cornus florida Fruit (None) 44.698100000000000 -73.631500000000000 37811
Fri Oct 17 00:00:00 GMT 2014 rshuman Flowering dogwood Cornus florida Leaves Unfolding (Late) 44.712670000000000 -73.609550000000000 37708
Fri Oct 17 00:00:00 GMT 2014 rshuman Flowering dogwood Cornus florida Leaves Changing Color (Late) 44.712670000000000 -73.609550000000000 37709
Fri Oct 17 00:00:00 GMT 2014 rshuman Flowering dogwood Cornus florida Leaves Dropping (Late) 44.712670000000000 -73.609550000000000 37710
Fri Oct 17 00:00:00 GMT 2014 rshuman Flowering dogwood Cornus florida Flowers (None) 44.712670000000000 -73.609550000000000 37711
Fri Oct 17 00:00:00 GMT 2014 rshuman Flowering dogwood Cornus florida Fruit (None) 44.712670000000000 -73.609550000000000 37712
Fri Oct 17 00:00:00 GMT 2014 rshuman Flowering dogwood Cornus florida Leaves Unfolding (Late) 44.720440000000000 -73.718190000000000 38756
Fri Oct 17 00:00:00 GMT 2014 rshuman Flowering dogwood Cornus florida Leaves Changing Color (Middle) 44.720440000000000 -73.718190000000000 38757
Fri Oct 17 00:00:00 GMT 2014 rshuman Flowering dogwood Cornus florida Leaves Dropping (Early) 44.720440000000000 -73.718190000000000 38758
Fri Oct 17 00:00:00 GMT 2014 rshuman Flowering dogwood Cornus florida Flowers (None) 44.720440000000000 -73.718190000000000 38759
Fri Oct 17 00:00:00 GMT 2014 rshuman Flowering dogwood Cornus florida Fruit (None) 44.720440000000000 -73.718190000000000 38760
Thu Oct 09 00:00:00 GMT 2014 rshuman Flowering dogwood Cornus florida Leaves Unfolding (Middle) 44.698755000000000 -73.558813000000000 38976
Thu Oct 09 00:00:00 GMT 2014 rshuman Flowering dogwood Cornus florida Leaves Changing Color (Middle) 44.698755000000000 -73.558813000000000 38977
Thu Oct 09 00:00:00 GMT 2014 rshuman Flowering dogwood Cornus florida Leaves Dropping (Middle) 44.698755000000000 -73.558813000000000 38978
Thu Oct 09 00:00:00 GMT 2014 rshuman Flowering dogwood Cornus florida Flowers (None) 44.698755000000000 -73.558813000000000 38979
Thu Oct 09 00:00:00 GMT 2014 rshuman Flowering dogwood Cornus florida Fruit (None) 44.698755000000000 -73.558813000000000 38980
Wed Oct 22 00:00:00 GMT 2014 scienceclub Flowering dogwood Cornus florida Leaves Unfolding (Late) 33.837770000000000 -84.123980000000000 39225
Wed Oct 22 00:00:00 GMT 2014 scienceclub Flowering dogwood Cornus florida Leaves Changing Color (Early) 33.837770000000000 -84.123980000000000 39226
Wed Oct 22 00:00:00 GMT 2014 scienceclub Flowering dogwood Cornus florida Leaves Dropping (Early) 33.837770000000000 -84.123980000000000 39227
Wed Oct 22 00:00:00 GMT 2014 scienceclub Flowering dogwood Cornus florida Flowers (None) 33.837770000000000 -84.123980000000000 39228
Wed Oct 22 00:00:00 GMT 2014 scienceclub Flowering dogwood Cornus florida Fruit (Late) 33.837770000000000 -84.123980000000000 39229
Wed Oct 22 00:00:00 GMT 2014 adbasica Flowering dogwood Cornus florida Leaves Unfolding (None) 36.659840000000000 -79.797210000000000 39185
Wed Oct 22 00:00:00 GMT 2014 adbasica Flowering dogwood Cornus florida Leaves Changing Color (Late) 36.659840000000000 -79.797210000000000 39186
Wed Oct 22 00:00:00 GMT 2014 adbasica Flowering dogwood Cornus florida Leaves Dropping (Late) 36.659840000000000 -79.797210000000000 39187
Wed Oct 22 00:00:00 GMT 2014 adbasica Flowering dogwood Cornus florida Flowers (None) 36.659840000000000 -79.797210000000000 39188
Wed Oct 22 00:00:00 GMT 2014 adbasica Flowering dogwood Cornus florida Fruit (None) 36.659840000000000 -79.797210000000000 39189
Wed Oct 08 00:00:00 GMT 2014 crubino Flowering dogwood Cornus florida 50% Color 38.973657000000000 -76.936784000000000 39607
Fri Oct 31 00:00:00 GMT 2014 crubino Flowering dogwood Cornus florida Leaves Unfolding (None) 38.974100000000000 -76.936750000000000 39608
Fri Oct 31 00:00:00 GMT 2014 crubino Flowering dogwood Cornus florida Leaves Changing Color (Late) 38.974100000000000 -76.936750000000000 39609
Fri Oct 31 00:00:00 GMT 2014 crubino Flowering dogwood Cornus florida Leaves Dropping (Early) 38.974100000000000 -76.936750000000000 39610
Fri Oct 31 00:00:00 GMT 2014 crubino Flowering dogwood Cornus florida Flowers (None) 38.974100000000000 -76.936750000000000 39611
Fri Oct 31 00:00:00 GMT 2014 crubino Flowering dogwood Cornus florida Fruit (None) 38.974100000000000 -76.936750000000000 39612
Sun Nov 02 00:00:00 GMT 2014 bayfawn Flowering dogwood Cornus florida 50% Leaf Fall 39.448260000000000 -76.267280000000000 39788
Thu Sep 11 00:00:00 GMT 2014 Audubon Flowering dogwood Cornus florida Full Fruiting 40.545200000000000 -79.907400000000000 39770
Fri Oct 10 00:00:00 GMT 2014 Audubon Flowering dogwood Cornus florida 50% Color 40.545200000000000 -79.907400000000000 39771
Fri Oct 24 00:00:00 GMT 2014 Audubon Flowering dogwood Cornus florida 50% Leaf Fall 40.545200000000000 -79.907400000000000 39772
Wed Nov 05 00:00:00 GMT 2014 shairston2 Flowering dogwood Cornus florida Leaves Unfolding (Late) 36.926560000000000 -80.024150000000000 39874
Wed Nov 05 00:00:00 GMT 2014 shairston2 Flowering dogwood Cornus florida Leaves Changing Color (Middle) 36.926560000000000 -80.024150000000000 39875
Wed Nov 05 00:00:00 GMT 2014 shairston2 Flowering dogwood Cornus florida Leaves Dropping (Middle) 36.926560000000000 -80.024150000000000 39876
Wed Nov 05 00:00:00 GMT 2014 shairston2 Flowering dogwood Cornus florida Flowers (None) 36.926560000000000 -80.024150000000000 39877
Wed Nov 05 00:00:00 GMT 2014 shairston2 Flowering dogwood Cornus florida Fruit (Middle) 36.926560000000000 -80.024150000000000 39878
Fri Nov 07 00:00:00 GMT 2014 munchie40 Flowering dogwood Cornus florida Leaves Unfolding (Early) 52.292942000000000 -106.658041000000000 39934
Fri Nov 07 00:00:00 GMT 2014 munchie40 Flowering dogwood Cornus florida Leaves Changing Color (Middle) 52.292942000000000 -106.658041000000000 39935
Fri Nov 07 00:00:00 GMT 2014 munchie40 Flowering dogwood Cornus florida Leaves Dropping (Early) 52.292942000000000 -106.658041000000000 39936
Fri Nov 07 00:00:00 GMT 2014 munchie40 Flowering dogwood Cornus florida Flowers (None) 52.292942000000000 -106.658041000000000 39937
Fri Nov 07 00:00:00 GMT 2014 munchie40 Flowering dogwood Cornus florida Fruit (None) 52.292942000000000 -106.658041000000000 39938
Fri Nov 07 00:00:00 GMT 2014 adbasica Flowering dogwood Cornus florida Leaves Unfolding (None) 36.659840000000000 -79.797210000000000 39924
Fri Nov 07 00:00:00 GMT 2014 adbasica Flowering dogwood Cornus florida Leaves Changing Color (Late) 36.659840000000000 -79.797210000000000 39925
Fri Nov 07 00:00:00 GMT 2014 adbasica Flowering dogwood Cornus florida Leaves Dropping (Late) 36.659840000000000 -79.797210000000000 39926
Fri Nov 07 00:00:00 GMT 2014 adbasica Flowering dogwood Cornus florida Flowers (None) 36.659840000000000 -79.797210000000000 39927
Fri Nov 07 00:00:00 GMT 2014 adbasica Flowering dogwood Cornus florida Fruit (None) 36.659840000000000 -79.797210000000000 39928
Fri Nov 07 00:00:00 GMT 2014 heajin21111 Flowering dogwood Cornus florida Leaves Unfolding (None) 36.659840000000000 -79.797210000000000 39929
Fri Nov 07 00:00:00 GMT 2014 heajin21111 Flowering dogwood Cornus florida Leaves Changing Color (Late) 36.659840000000000 -79.797210000000000 39930
Fri Nov 07 00:00:00 GMT 2014 heajin21111 Flowering dogwood Cornus florida Leaves Dropping (Late) 36.659840000000000 -79.797210000000000 39931
Fri Nov 07 00:00:00 GMT 2014 heajin21111 Flowering dogwood Cornus florida Flowers (None) 36.659840000000000 -79.797210000000000 39932
Fri Nov 07 00:00:00 GMT 2014 heajin21111 Flowering dogwood Cornus florida Fruit (None) 36.659840000000000 -79.797210000000000 39933
Fri Nov 07 00:00:00 GMT 2014 spentzosinghram_Catherine_Cook_School_reporter1 Flowering dogwood Cornus florida Leaves Unfolding (None) 41.909570000000000 -87.635360000000000 40051
Fri Nov 07 00:00:00 GMT 2014 spentzosinghram_Catherine_Cook_School_reporter1 Flowering dogwood Cornus florida Leaves Changing Color (Middle) 41.909570000000000 -87.635360000000000 40052
Fri Nov 07 00:00:00 GMT 2014 spentzosinghram_Catherine_Cook_School_reporter1 Flowering dogwood Cornus florida Leaves Dropping (Middle) 41.909570000000000 -87.635360000000000 40053
Fri Nov 07 00:00:00 GMT 2014 spentzosinghram_Catherine_Cook_School_reporter1 Flowering dogwood Cornus florida Flowers (None) 41.909570000000000 -87.635360000000000 40054
Fri Nov 07 00:00:00 GMT 2014 spentzosinghram_Catherine_Cook_School_reporter1 Flowering dogwood Cornus florida Fruit (None) 41.909570000000000 -87.635360000000000 40055
Fri Nov 07 00:00:00 GMT 2014 spentzosinghram_Catherine_Cook_School_reporter18 Flowering dogwood Cornus florida Leaves Unfolding (None) 41.907471000000000 -87.635699000000000 40031
Fri Nov 07 00:00:00 GMT 2014 spentzosinghram_Catherine_Cook_School_reporter18 Flowering dogwood Cornus florida Leaves Changing Color (None) 41.907471000000000 -87.635699000000000 40032
Fri Nov 07 00:00:00 GMT 2014 spentzosinghram_Catherine_Cook_School_reporter18 Flowering dogwood Cornus florida Leaves Dropping (Late) 41.907471000000000 -87.635699000000000 40033
Fri Nov 07 00:00:00 GMT 2014 spentzosinghram_Catherine_Cook_School_reporter18 Flowering dogwood Cornus florida Flowers (None) 41.907471000000000 -87.635699000000000 40034
Fri Nov 07 00:00:00 GMT 2014 spentzosinghram_Catherine_Cook_School_reporter18 Flowering dogwood Cornus florida Fruit (None) 41.907471000000000 -87.635699000000000 40035
Mon Nov 10 00:00:00 GMT 2014 shairston2 Flowering dogwood Cornus florida Leaves Unfolding (None) 36.926560000000000 -80.024150000000000 40166
Mon Nov 10 00:00:00 GMT 2014 shairston2 Flowering dogwood Cornus florida Leaves Changing Color (Middle) 36.926560000000000 -80.024150000000000 40167
Mon Nov 10 00:00:00 GMT 2014 shairston2 Flowering dogwood Cornus florida Leaves Dropping (Middle) 36.926560000000000 -80.024150000000000 40168
Mon Nov 10 00:00:00 GMT 2014 shairston2 Flowering dogwood Cornus florida Flowers (None) 36.926560000000000 -80.024150000000000 40169
Mon Nov 10 00:00:00 GMT 2014 shairston2 Flowering dogwood Cornus florida Fruit (Middle) 36.926560000000000 -80.024150000000000 40170
Mon Nov 17 00:00:00 GMT 2014 ssegal Flowering dogwood Cornus florida Leaves Unfolding (None) 39.164000000000000 -86.523000000000000 40469
Mon Nov 17 00:00:00 GMT 2014 ssegal Flowering dogwood Cornus florida Leaves Changing Color (Early) 39.164000000000000 -86.523000000000000 40470
Mon Nov 17 00:00:00 GMT 2014 ssegal Flowering dogwood Cornus florida Leaves Dropping (Late) 39.164000000000000 -86.523000000000000 40471
Mon Nov 17 00:00:00 GMT 2014 ssegal Flowering dogwood Cornus florida Flowers (None) 39.164000000000000 -86.523000000000000 40472
Mon Nov 17 00:00:00 GMT 2014 ssegal Flowering dogwood Cornus florida Fruit (None) 39.164000000000000 -86.523000000000000 40473
Thu Sep 18 00:00:00 GMT 2014 jpberman Flowering dogwood Cornus florida 50% Color 39.163902000000000 -86.522932900000000 40589
Tue Sep 23 00:00:00 GMT 2014 ssegal Flowering dogwood Cornus florida 50% Color 39.168000000000000 -86.522000000000000 40658
Tue Sep 23 00:00:00 GMT 2014 ssegal Flowering dogwood Cornus florida 50% Color 39.164000000000000 -86.523000000000000 40661
Mon Nov 03 00:00:00 GMT 2014 mebrubak Flowering dogwood Cornus florida 50% Color 39.156155000000000 -86.461716000000000 40786
Wed Oct 15 00:00:00 GMT 2014 kelefthe Flowering dogwood Cornus florida 50% Color 86.103518400000000 -86.305007900000000 40656
Wed Nov 05 00:00:00 GMT 2014 kelefthe Flowering dogwood Cornus florida 50% Leaf Fall 86.103518400000000 -86.305007900000000 40657
Mon Sep 01 00:00:00 GMT 2014 nhack7 Flowering dogwood Cornus florida Leaves Unfolding (None) 39.165330000000000 -86.526390000000000 40956
Mon Sep 01 00:00:00 GMT 2014 nhack7 Flowering dogwood Cornus florida Leaves Changing Color (None) 39.165330000000000 -86.526390000000000 40957
Mon Sep 01 00:00:00 GMT 2014 nhack7 Flowering dogwood Cornus florida Leaves Dropping (None) 39.165330000000000 -86.526390000000000 40958
Mon Sep 01 00:00:00 GMT 2014 nhack7 Flowering dogwood Cornus florida Flowers (None) 39.165330000000000 -86.526390000000000 40959
Mon Sep 01 00:00:00 GMT 2014 nhack7 Flowering dogwood Cornus florida Fruit (None) 39.165330000000000 -86.526390000000000 40960
Tue Nov 18 00:00:00 GMT 2014 madstahl Flowering dogwood Cornus florida 50% Color 39.176288000000000 -86.527530000000000 40909
Tue Nov 18 00:00:00 GMT 2014 madstahl Flowering dogwood Cornus florida 50% Leaf Fall 39.176288000000000 -86.527530000000000 40910
Wed Oct 15 00:00:00 GMT 2014 lsmith0549 Flowering dogwood Cornus florida Leaves Unfolding (None) 38.639670000000000 -83.735130000000000 41955
Wed Oct 15 00:00:00 GMT 2014 lsmith0549 Flowering dogwood Cornus florida Leaves Changing Color (Late) 38.639670000000000 -83.735130000000000 41956
Wed Oct 15 00:00:00 GMT 2014 lsmith0549 Flowering dogwood Cornus florida Leaves Dropping (Late) 38.639670000000000 -83.735130000000000 41957
Wed Oct 15 00:00:00 GMT 2014 lsmith0549 Flowering dogwood Cornus florida Flowers (None) 38.639670000000000 -83.735130000000000 41958
Wed Oct 15 00:00:00 GMT 2014 lsmith0549 Flowering dogwood Cornus florida Fruit (None) 38.639670000000000 -83.735130000000000 41959
Mon Oct 13 00:00:00 GMT 2014 lsmith0549 Flowering dogwood Cornus florida Leaves Unfolding (None) 38.687490000000000 -83.777190000000000 41965
Mon Oct 13 00:00:00 GMT 2014 lsmith0549 Flowering dogwood Cornus florida Leaves Changing Color (Late) 38.687490000000000 -83.777190000000000 41966
Mon Oct 13 00:00:00 GMT 2014 lsmith0549 Flowering dogwood Cornus florida Leaves Dropping (None) 38.687490000000000 -83.777190000000000 41967
Mon Oct 13 00:00:00 GMT 2014 lsmith0549 Flowering dogwood Cornus florida Flowers (None) 38.687490000000000 -83.777190000000000 41968
Mon Oct 13 00:00:00 GMT 2014 lsmith0549 Flowering dogwood Cornus florida Fruit (None) 38.687490000000000 -83.777190000000000 41969
Mon Oct 13 00:00:00 GMT 2014 lsmith0549 Flowering dogwood Cornus florida Leaves Unfolding (None) 38.644423000000000 -83.744480000000000 41960
Mon Oct 13 00:00:00 GMT 2014 lsmith0549 Flowering dogwood Cornus florida Leaves Changing Color (Late) 38.644423000000000 -83.744480000000000 41961
Mon Oct 13 00:00:00 GMT 2014 lsmith0549 Flowering dogwood Cornus florida Leaves Dropping (Late) 38.644423000000000 -83.744480000000000 41962
Mon Oct 13 00:00:00 GMT 2014 lsmith0549 Flowering dogwood Cornus florida Flowers (None) 38.644423000000000 -83.744480000000000 41963
Mon Oct 13 00:00:00 GMT 2014 lsmith0549 Flowering dogwood Cornus florida Fruit (None) 38.644423000000000 -83.744480000000000 41964
Mon Dec 01 00:00:00 GMT 2014 rrovetto Flowering dogwood Cornus florida Leaves Unfolding (Middle) 39.738342000000000 -121.845697000000000 42659
Mon Dec 01 00:00:00 GMT 2014 rrovetto Flowering dogwood Cornus florida Leaves Changing Color (Middle) 39.738342000000000 -121.845697000000000 42660
Mon Dec 01 00:00:00 GMT 2014 rrovetto Flowering dogwood Cornus florida Leaves Dropping (Late) 39.738342000000000 -121.845697000000000 42661
Mon Dec 01 00:00:00 GMT 2014 rrovetto Flowering dogwood Cornus florida Flowers (Early) 39.738342000000000 -121.845697000000000 42662
Mon Dec 01 00:00:00 GMT 2014 rrovetto Flowering dogwood Cornus florida Fruit (None) 39.738342000000000 -121.845697000000000 42663
Mon Apr 06 00:00:00 GMT 2015 tuckerasso Flowering dogwood Cornus florida First Leaf 37.231600000000000 -76.663600000000000 61668
Tue Apr 21 00:00:00 GMT 2015 tuckerasso Flowering dogwood Cornus florida All Leaves Unfolded 37.231600000000000 -76.663600000000000 61669
Wed Apr 15 00:00:00 GMT 2015 tuckerasso Flowering dogwood Cornus florida First Flower 37.231600000000000 -76.663600000000000 61670
Wed Apr 22 00:00:00 GMT 2015 tuckerasso Flowering dogwood Cornus florida Full Flower 37.231600000000000 -76.663600000000000 61671
Sun Oct 04 00:00:00 GMT 2015 tuckerasso Flowering dogwood Cornus florida 50% Color 37.231600000000000 -76.663600000000000 61672
Thu Nov 05 00:00:00 GMT 2015 tuckerasso Flowering dogwood Cornus florida 50% Leaf Fall 37.231600000000000 -76.663600000000000 61673
Sat Feb 13 00:00:00 GMT 2016 Laxnerjeremy Flowering dogwood Cornus florida Leaves Unfolding (Late) 32.784154000000000 -79.937162000000000 61921
Sat Feb 13 00:00:00 GMT 2016 Laxnerjeremy Flowering dogwood Cornus florida Leaves Changing Color (Late) 32.784154000000000 -79.937162000000000 61922
Sat Feb 13 00:00:00 GMT 2016 Laxnerjeremy Flowering dogwood Cornus florida Leaves Dropping (Late) 32.784154000000000 -79.937162000000000 61923
Sat Feb 13 00:00:00 GMT 2016 Laxnerjeremy Flowering dogwood Cornus florida Flowers (None) 32.784154000000000 -79.937162000000000 61924
Sat Feb 13 00:00:00 GMT 2016 Laxnerjeremy Flowering dogwood Cornus florida Fruit (None) 32.784154000000000 -79.937162000000000 61925
Sat Feb 20 00:00:00 GMT 2016 shouse Flowering dogwood Cornus florida Leaves Unfolding (Middle) 45.567830000000000 -122.658040000000000 61972
Sat Feb 20 00:00:00 GMT 2016 shouse Flowering dogwood Cornus florida Leaves Changing Color (None) 45.567830000000000 -122.658040000000000 61973
Sat Feb 20 00:00:00 GMT 2016 shouse Flowering dogwood Cornus florida Leaves Dropping (None) 45.567830000000000 -122.658040000000000 61974
Sat Feb 20 00:00:00 GMT 2016 shouse Flowering dogwood Cornus florida Flowers (None) 45.567830000000000 -122.658040000000000 61975
Sat Feb 20 00:00:00 GMT 2016 shouse Flowering dogwood Cornus florida Fruit (None) 45.567830000000000 -122.658040000000000 61976
Tue Mar 08 00:00:00 GMT 2016 jarrojado Flowering dogwood Cornus florida Leaves Unfolding (None) 36.018390000000000 -78.920710000000000 62345
Tue Mar 08 00:00:00 GMT 2016 jarrojado Flowering dogwood Cornus florida Leaves Changing Color (None) 36.018390000000000 -78.920710000000000 62346
Tue Mar 08 00:00:00 GMT 2016 jarrojado Flowering dogwood Cornus florida Leaves Dropping (None) 36.018390000000000 -78.920710000000000 62347
Tue Mar 08 00:00:00 GMT 2016 jarrojado Flowering dogwood Cornus florida Flowers (None) 36.018390000000000 -78.920710000000000 62348
Tue Mar 08 00:00:00 GMT 2016 jarrojado Flowering dogwood Cornus florida Fruit (None) 36.018390000000000 -78.920710000000000 62349
Tue Mar 08 00:00:00 GMT 2016 greenwood16e Flowering dogwood Cornus florida Leaves Unfolding (None) 36.018520000000000 -78.919860000000000 62358
Tue Mar 08 00:00:00 GMT 2016 greenwood16e Flowering dogwood Cornus florida Leaves Changing Color (None) 36.018520000000000 -78.919860000000000 62359
Tue Mar 08 00:00:00 GMT 2016 greenwood16e Flowering dogwood Cornus florida Leaves Dropping (None) 36.018520000000000 -78.919860000000000 62360
Tue Mar 08 00:00:00 GMT 2016 greenwood16e Flowering dogwood Cornus florida Flowers (None) 36.018520000000000 -78.919860000000000 62361
Tue Mar 08 00:00:00 GMT 2016 greenwood16e Flowering dogwood Cornus florida Fruit (None) 36.018520000000000 -78.919860000000000 62362
Tue Mar 08 00:00:00 GMT 2016 jarrojado Flowering dogwood Cornus florida Leaves Unfolding (None) 36.018390000000000 -78.920710000000000 62363
Tue Mar 08 00:00:00 GMT 2016 jarrojado Flowering dogwood Cornus florida Leaves Changing Color (None) 36.018390000000000 -78.920710000000000 62364
Tue Mar 08 00:00:00 GMT 2016 jarrojado Flowering dogwood Cornus florida Leaves Dropping (None) 36.018390000000000 -78.920710000000000 62365
Tue Mar 08 00:00:00 GMT 2016 jarrojado Flowering dogwood Cornus florida Flowers (None) 36.018390000000000 -78.920710000000000 62366
Tue Mar 08 00:00:00 GMT 2016 jarrojado Flowering dogwood Cornus florida Fruit (None) 36.018390000000000 -78.920710000000000 62367
Tue Mar 08 00:00:00 GMT 2016 SPayne Flowering dogwood Cornus florida Leaves Unfolding (None) 36.018043000000000 -78.921422000000000 62368
Tue Mar 08 00:00:00 GMT 2016 SPayne Flowering dogwood Cornus florida Leaves Changing Color (None) 36.018043000000000 -78.921422000000000 62369
Tue Mar 08 00:00:00 GMT 2016 SPayne Flowering dogwood Cornus florida Leaves Dropping (None) 36.018043000000000 -78.921422000000000 62370
Tue Mar 08 00:00:00 GMT 2016 SPayne Flowering dogwood Cornus florida Flowers (None) 36.018043000000000 -78.921422000000000 62371
Tue Mar 08 00:00:00 GMT 2016 SPayne Flowering dogwood Cornus florida Fruit (None) 36.018043000000000 -78.921422000000000 62372
Sun Mar 13 00:00:00 GMT 2016 tanay49 Flowering dogwood Cornus florida Leaves Unfolding (None) 33.985458000000000 -84.430948000000000 62461
Sun Mar 13 00:00:00 GMT 2016 tanay49 Flowering dogwood Cornus florida Leaves Changing Color (None) 33.985458000000000 -84.430948000000000 62462
Sun Mar 13 00:00:00 GMT 2016 tanay49 Flowering dogwood Cornus florida Leaves Dropping (None) 33.985458000000000 -84.430948000000000 62463
Sun Mar 13 00:00:00 GMT 2016 tanay49 Flowering dogwood Cornus florida Flowers (Early) 33.985458000000000 -84.430948000000000 62464
Sun Mar 13 00:00:00 GMT 2016 tanay49 Flowering dogwood Cornus florida Fruit (None) 33.985458000000000 -84.430948000000000 62465
Tue Mar 15 00:00:00 GMT 2016 mcm205 Flowering dogwood Cornus florida Bud Burst 39.111060000000000 -76.985360000000000 62632
Thu Mar 17 00:00:00 GMT 2016 greenwood16e Flowering dogwood Cornus florida Leaves Unfolding (Late) 36.018520000000000 -78.919860000000000 62667
Thu Mar 17 00:00:00 GMT 2016 greenwood16e Flowering dogwood Cornus florida Leaves Changing Color (None) 36.018520000000000 -78.919860000000000 62668
Thu Mar 17 00:00:00 GMT 2016 greenwood16e Flowering dogwood Cornus florida Leaves Dropping (None) 36.018520000000000 -78.919860000000000 62669
Thu Mar 17 00:00:00 GMT 2016 greenwood16e Flowering dogwood Cornus florida Flowers (None) 36.018520000000000 -78.919860000000000 62670
Thu Mar 17 00:00:00 GMT 2016 greenwood16e Flowering dogwood Cornus florida Fruit (None) 36.018520000000000 -78.919860000000000 62671
Fri Mar 18 00:00:00 GMT 2016 kelci_adcock Flowering dogwood Cornus florida Leaves Unfolding (Late) 37.259620000000000 -85.881670000000000 62705
Fri Mar 18 00:00:00 GMT 2016 kelci_adcock Flowering dogwood Cornus florida Leaves Changing Color (Late) 37.259620000000000 -85.881670000000000 62706
Fri Mar 18 00:00:00 GMT 2016 kelci_adcock Flowering dogwood Cornus florida Leaves Dropping (None) 37.259620000000000 -85.881670000000000 62707
Fri Mar 18 00:00:00 GMT 2016 kelci_adcock Flowering dogwood Cornus florida Flowers (Middle) 37.259620000000000 -85.881670000000000 62708
Fri Mar 18 00:00:00 GMT 2016 kelci_adcock Flowering dogwood Cornus florida Fruit (None) 37.259620000000000 -85.881670000000000 62709
Fri Mar 18 00:00:00 GMT 2016 lbskaggs Flowering dogwood Cornus florida Leaves Unfolding (Middle) 37.272280000000000 -85.891080000000000 62725
Fri Mar 18 00:00:00 GMT 2016 lbskaggs Flowering dogwood Cornus florida Leaves Changing Color (None) 37.272280000000000 -85.891080000000000 62726
Fri Mar 18 00:00:00 GMT 2016 lbskaggs Flowering dogwood Cornus florida Leaves Dropping (None) 37.272280000000000 -85.891080000000000 62727
Fri Mar 18 00:00:00 GMT 2016 lbskaggs Flowering dogwood Cornus florida Flowers (Middle) 37.272280000000000 -85.891080000000000 62728
Fri Mar 18 00:00:00 GMT 2016 lbskaggs Flowering dogwood Cornus florida Fruit (None) 37.272280000000000 -85.891080000000000 62729
Fri Mar 18 00:00:00 GMT 2016 acfarmer Flowering dogwood Cornus florida Leaves Unfolding (Middle) 37.272280000000000 -85.891080000000000 62730
Fri Mar 18 00:00:00 GMT 2016 acfarmer Flowering dogwood Cornus florida Leaves Changing Color (None) 37.272280000000000 -85.891080000000000 62731
Fri Mar 18 00:00:00 GMT 2016 acfarmer Flowering dogwood Cornus florida Leaves Dropping (None) 37.272280000000000 -85.891080000000000 62732
Fri Mar 18 00:00:00 GMT 2016 acfarmer Flowering dogwood Cornus florida Flowers (Middle) 37.272280000000000 -85.891080000000000 62733
Fri Mar 18 00:00:00 GMT 2016 acfarmer Flowering dogwood Cornus florida Fruit (None) 37.272280000000000 -85.891080000000000 62734
Fri Mar 18 00:00:00 GMT 2016 kbchaney Flowering dogwood Cornus florida Leaves Unfolding (None) 37.272280000000000 -85.891080000000000 62735
Fri Mar 18 00:00:00 GMT 2016 kbchaney Flowering dogwood Cornus florida Leaves Changing Color (None) 37.272280000000000 -85.891080000000000 62736
Fri Mar 18 00:00:00 GMT 2016 kbchaney Flowering dogwood Cornus florida Leaves Dropping (None) 37.272280000000000 -85.891080000000000 62737
Fri Mar 18 00:00:00 GMT 2016 kbchaney Flowering dogwood Cornus florida Flowers (Early) 37.272280000000000 -85.891080000000000 62738
Fri Mar 18 00:00:00 GMT 2016 kbchaney Flowering dogwood Cornus florida Fruit (None) 37.272280000000000 -85.891080000000000 62739
Sun Mar 20 00:00:00 GMT 2016 citsci1 Flowering dogwood Cornus florida Leaves Unfolding (Early) 38.052960000000000 -91.599410000000000 62768
Sun Mar 20 00:00:00 GMT 2016 citsci1 Flowering dogwood Cornus florida Leaves Changing Color (None) 38.052960000000000 -91.599410000000000 62769
Sun Mar 20 00:00:00 GMT 2016 citsci1 Flowering dogwood Cornus florida Leaves Dropping (None) 38.052960000000000 -91.599410000000000 62770
Sun Mar 20 00:00:00 GMT 2016 citsci1 Flowering dogwood Cornus florida Flowers (None) 38.052960000000000 -91.599410000000000 62771
Sun Mar 20 00:00:00 GMT 2016 citsci1 Flowering dogwood Cornus florida Fruit (None) 38.052960000000000 -91.599410000000000 62772
Tue Mar 22 00:00:00 GMT 2016 noah_0317 Flowering dogwood Cornus florida Leaves Unfolding (Early) 27.497270000000000 -82.601610000000000 63098
Tue Mar 22 00:00:00 GMT 2016 noah_0317 Flowering dogwood Cornus florida Leaves Changing Color (Early) 27.497270000000000 -82.601610000000000 63099
Tue Mar 22 00:00:00 GMT 2016 noah_0317 Flowering dogwood Cornus florida Leaves Dropping (Early) 27.497270000000000 -82.601610000000000 63100
Tue Mar 22 00:00:00 GMT 2016 noah_0317 Flowering dogwood Cornus florida Flowers (None) 27.497270000000000 -82.601610000000000 63101
Tue Mar 22 00:00:00 GMT 2016 noah_0317 Flowering dogwood Cornus florida Fruit (None) 27.497270000000000 -82.601610000000000 63102
Wed Mar 16 00:00:00 GMT 2016 averyowen Flowering dogwood Cornus florida Leaves Unfolding (Early) 35.485170000000000 -79.682710000000000 63221
Wed Mar 16 00:00:00 GMT 2016 averyowen Flowering dogwood Cornus florida Leaves Changing Color (None) 35.485170000000000 -79.682710000000000 63222
Wed Mar 16 00:00:00 GMT 2016 averyowen Flowering dogwood Cornus florida Leaves Dropping (None) 35.485170000000000 -79.682710000000000 63223
Wed Mar 16 00:00:00 GMT 2016 averyowen Flowering dogwood Cornus florida Flowers (None) 35.485170000000000 -79.682710000000000 63224
Wed Mar 16 00:00:00 GMT 2016 averyowen Flowering dogwood Cornus florida Fruit (None) 35.485170000000000 -79.682710000000000 63225
Tue Mar 22 00:00:00 GMT 2016 averyowen Flowering dogwood Cornus florida Leaves Unfolding (Early) 35.485170000000000 -79.682710000000000 63226
Tue Mar 22 00:00:00 GMT 2016 averyowen Flowering dogwood Cornus florida Leaves Changing Color (None) 35.485170000000000 -79.682710000000000 63227
Tue Mar 22 00:00:00 GMT 2016 averyowen Flowering dogwood Cornus florida Leaves Dropping (None) 35.485170000000000 -79.682710000000000 63228
Tue Mar 22 00:00:00 GMT 2016 averyowen Flowering dogwood Cornus florida Flowers (None) 35.485170000000000 -79.682710000000000 63229
Tue Mar 22 00:00:00 GMT 2016 averyowen Flowering dogwood Cornus florida Fruit (None) 35.485170000000000 -79.682710000000000 63230
Wed Mar 16 00:00:00 GMT 2016 averycowen Flowering dogwood Cornus florida Leaves Unfolding (Early) 35.485030000000000 -79.683850000000000 63231
Wed Mar 16 00:00:00 GMT 2016 averycowen Flowering dogwood Cornus florida Leaves Changing Color (None) 35.485030000000000 -79.683850000000000 63232
Wed Mar 16 00:00:00 GMT 2016 averycowen Flowering dogwood Cornus florida Leaves Dropping (None) 35.485030000000000 -79.683850000000000 63233
Wed Mar 16 00:00:00 GMT 2016 averycowen Flowering dogwood Cornus florida Flowers (None) 35.485030000000000 -79.683850000000000 63234
Wed Mar 16 00:00:00 GMT 2016 averycowen Flowering dogwood Cornus florida Fruit (None) 35.485030000000000 -79.683850000000000 63235
Fri Mar 18 00:00:00 GMT 2016 averycowen Flowering dogwood Cornus florida Leaves Unfolding (Early) 35.485030000000000 -79.683850000000000 63236
Fri Mar 18 00:00:00 GMT 2016 averycowen Flowering dogwood Cornus florida Leaves Changing Color (Early) 35.485030000000000 -79.683850000000000 63237
Fri Mar 18 00:00:00 GMT 2016 averycowen Flowering dogwood Cornus florida Leaves Dropping (None) 35.485030000000000 -79.683850000000000 63238
Fri Mar 18 00:00:00 GMT 2016 averycowen Flowering dogwood Cornus florida Flowers (None) 35.485030000000000 -79.683850000000000 63239
Fri Mar 18 00:00:00 GMT 2016 averycowen Flowering dogwood Cornus florida Fruit (None) 35.485030000000000 -79.683850000000000 63240
Sat Mar 19 00:00:00 GMT 2016 averycowen Flowering dogwood Cornus florida Leaves Unfolding (Middle) 35.485030000000000 -79.683850000000000 63241
Sat Mar 19 00:00:00 GMT 2016 averycowen Flowering dogwood Cornus florida Leaves Changing Color (Early) 35.485030000000000 -79.683850000000000 63242
Sat Mar 19 00:00:00 GMT 2016 averycowen Flowering dogwood Cornus florida Leaves Dropping (None) 35.485030000000000 -79.683850000000000 63243
Sat Mar 19 00:00:00 GMT 2016 averycowen Flowering dogwood Cornus florida Flowers (None) 35.485030000000000 -79.683850000000000 63244
Sat Mar 19 00:00:00 GMT 2016 averycowen Flowering dogwood Cornus florida Fruit (None) 35.485030000000000 -79.683850000000000 63245
Tue Mar 22 00:00:00 GMT 2016 averycowen Flowering dogwood Cornus florida Leaves Unfolding (Middle) 35.485030000000000 -79.683850000000000 63246
Tue Mar 22 00:00:00 GMT 2016 averycowen Flowering dogwood Cornus florida Leaves Changing Color (Middle) 35.485030000000000 -79.683850000000000 63247
Tue Mar 22 00:00:00 GMT 2016 averycowen Flowering dogwood Cornus florida Leaves Dropping (None) 35.485030000000000 -79.683850000000000 63248
Tue Mar 22 00:00:00 GMT 2016 averycowen Flowering dogwood Cornus florida Flowers (Early) 35.485030000000000 -79.683850000000000 63249
Tue Mar 22 00:00:00 GMT 2016 averycowen Flowering dogwood Cornus florida Fruit (None) 35.485030000000000 -79.683850000000000 63250
Tue Mar 22 00:00:00 GMT 2016 averycowen Flowering dogwood Cornus florida Leaves Unfolding (Middle) 35.485030000000000 -79.683850000000000 63251
Tue Mar 22 00:00:00 GMT 2016 averycowen Flowering dogwood Cornus florida Leaves Changing Color (Middle) 35.485030000000000 -79.683850000000000 63252
Tue Mar 22 00:00:00 GMT 2016 averycowen Flowering dogwood Cornus florida Leaves Dropping (None) 35.485030000000000 -79.683850000000000 63253
Tue Mar 22 00:00:00 GMT 2016 averycowen Flowering dogwood Cornus florida Flowers (Early) 35.485030000000000 -79.683850000000000 63254
Tue Mar 22 00:00:00 GMT 2016 averycowen Flowering dogwood Cornus florida Fruit (None) 35.485030000000000 -79.683850000000000 63255
Mon Mar 21 00:00:00 GMT 2016 averycowen Flowering dogwood Cornus florida Leaves Unfolding (Middle) 35.485030000000000 -79.683850000000000 63256
Mon Mar 21 00:00:00 GMT 2016 averycowen Flowering dogwood Cornus florida Leaves Changing Color (Middle) 35.485030000000000 -79.683850000000000 63257
Mon Mar 21 00:00:00 GMT 2016 averycowen Flowering dogwood Cornus florida Leaves Dropping (None) 35.485030000000000 -79.683850000000000 63258
Mon Mar 21 00:00:00 GMT 2016 averycowen Flowering dogwood Cornus florida Flowers (Early) 35.485030000000000 -79.683850000000000 63259
Mon Mar 21 00:00:00 GMT 2016 averycowen Flowering dogwood Cornus florida Fruit (None) 35.485030000000000 -79.683850000000000 63260
Wed Mar 16 00:00:00 GMT 2016 michellem9898 Flowering dogwood Cornus florida Bud Burst 35.353250000000000 -78.691770000000000 63261
Sun Mar 20 00:00:00 GMT 2016 michellem9898 Flowering dogwood Cornus florida First Leaf 35.353250000000000 -78.691770000000000 63262
Mon Mar 21 00:00:00 GMT 2016 michellem9898 Flowering dogwood Cornus florida First Flower 35.353250000000000 -78.691770000000000 63263
Tue Mar 22 00:00:00 GMT 2016 ethomas Flowering dogwood Cornus florida Bud Burst 35.628311000000000 -82.327233000000000 63271
Thu Mar 17 00:00:00 GMT 2016 bwiafe1998 Flowering dogwood Cornus florida Bud Burst 35.370785000000000 -80.676963000000000 63273
Sun Mar 20 00:00:00 GMT 2016 Landon23B Flowering dogwood Cornus florida Leaves Unfolding (Middle) 34.397013000000000 -78.684404000000000 63274
Sun Mar 20 00:00:00 GMT 2016 Landon23B Flowering dogwood Cornus florida Leaves Changing Color (Early) 34.397013000000000 -78.684404000000000 63275
Sun Mar 20 00:00:00 GMT 2016 Landon23B Flowering dogwood Cornus florida Leaves Dropping (None) 34.397013000000000 -78.684404000000000 63276
Sun Mar 20 00:00:00 GMT 2016 Landon23B Flowering dogwood Cornus florida Flowers (Early) 34.397013000000000 -78.684404000000000 63277
Sun Mar 20 00:00:00 GMT 2016 Landon23B Flowering dogwood Cornus florida Fruit (None) 34.397013000000000 -78.684404000000000 63278
Mon Mar 14 00:00:00 GMT 2016 collins17l Flowering dogwood Cornus florida Bud Burst 35.213620000000000 -78.863194000000000 63279
Wed Mar 16 00:00:00 GMT 2016 collins17l Flowering dogwood Cornus florida First Leaf 35.213620000000000 -78.863194000000000 63280
Fri Mar 18 00:00:00 GMT 2016 collins17l Flowering dogwood Cornus florida All Leaves Unfolded 35.213620000000000 -78.863194000000000 63281
Sat Mar 19 00:00:00 GMT 2016 collins17l Flowering dogwood Cornus florida First Flower 35.213620000000000 -78.863194000000000 63282
Mon Mar 21 00:00:00 GMT 2016 collins17l Flowering dogwood Cornus florida Full Flower 35.213620000000000 -78.863194000000000 63283
Tue Mar 22 00:00:00 GMT 2016 LittleGrace99 Flowering dogwood Cornus florida Leaves Unfolding (Middle) 35.723300000000000 -81.371940000000000 63284
Tue Mar 22 00:00:00 GMT 2016 LittleGrace99 Flowering dogwood Cornus florida Leaves Changing Color (Middle) 35.723300000000000 -81.371940000000000 63285
Tue Mar 22 00:00:00 GMT 2016 LittleGrace99 Flowering dogwood Cornus florida Leaves Dropping (None) 35.723300000000000 -81.371940000000000 63286
Tue Mar 22 00:00:00 GMT 2016 LittleGrace99 Flowering dogwood Cornus florida Flowers (None) 35.723300000000000 -81.371940000000000 63287
Tue Mar 22 00:00:00 GMT 2016 LittleGrace99 Flowering dogwood Cornus florida Fruit (None) 35.723300000000000 -81.371940000000000 63288
Wed Mar 23 00:00:00 GMT 2016 TracyS Flowering dogwood Cornus florida Bud Burst 38.216010000000000 -85.737860000000000 63384
Tue Mar 22 00:00:00 GMT 2016 msauerj Flowering dogwood Cornus florida Bud Burst 36.025770000000000 -78.882300000000000 63385
Tue Mar 15 00:00:00 GMT 2016 msauerj Flowering dogwood Cornus florida First Leaf 36.025770000000000 -78.882300000000000 63386
Wed Mar 23 00:00:00 GMT 2016 msauerj Flowering dogwood Cornus florida First Flower 36.025770000000000 -78.882300000000000 63387
Thu Mar 24 00:00:00 GMT 2016 ravelisabeth Flowering dogwood Cornus florida Leaves Unfolding (None) 37.272280000000000 -85.891080000000000 63406
Thu Mar 24 00:00:00 GMT 2016 ravelisabeth Flowering dogwood Cornus florida Leaves Changing Color (None) 37.272280000000000 -85.891080000000000 63407
Thu Mar 24 00:00:00 GMT 2016 ravelisabeth Flowering dogwood Cornus florida Leaves Dropping (None) 37.272280000000000 -85.891080000000000 63408
Thu Mar 24 00:00:00 GMT 2016 ravelisabeth Flowering dogwood Cornus florida Flowers (None) 37.272280000000000 -85.891080000000000 63409
Thu Mar 24 00:00:00 GMT 2016 ravelisabeth Flowering dogwood Cornus florida Fruit (None) 37.272280000000000 -85.891080000000000 63410
Thu Mar 24 00:00:00 GMT 2016 lbskaggs Flowering dogwood Cornus florida Leaves Unfolding (None) 37.272280000000000 -85.891080000000000 63411
Thu Mar 24 00:00:00 GMT 2016 lbskaggs Flowering dogwood Cornus florida Leaves Changing Color (None) 37.272280000000000 -85.891080000000000 63412
Thu Mar 24 00:00:00 GMT 2016 lbskaggs Flowering dogwood Cornus florida Leaves Dropping (None) 37.272280000000000 -85.891080000000000 63413
Thu Mar 24 00:00:00 GMT 2016 lbskaggs Flowering dogwood Cornus florida Flowers (None) 37.272280000000000 -85.891080000000000 63414
Thu Mar 24 00:00:00 GMT 2016 lbskaggs Flowering dogwood Cornus florida Fruit (None) 37.272280000000000 -85.891080000000000 63415
Thu Mar 24 00:00:00 GMT 2016 Kchaney Flowering dogwood Cornus florida Leaves Unfolding (None) 37.272280000000000 -85.891080000000000 63416
Thu Mar 24 00:00:00 GMT 2016 Kchaney Flowering dogwood Cornus florida Leaves Changing Color (None) 37.272280000000000 -85.891080000000000 63417
Thu Mar 24 00:00:00 GMT 2016 Kchaney Flowering dogwood Cornus florida Leaves Dropping (None) 37.272280000000000 -85.891080000000000 63418
Thu Mar 24 00:00:00 GMT 2016 Kchaney Flowering dogwood Cornus florida Flowers (None) 37.272280000000000 -85.891080000000000 63419
Thu Mar 24 00:00:00 GMT 2016 Kchaney Flowering dogwood Cornus florida Fruit (None) 37.272280000000000 -85.891080000000000 63420
Thu Mar 24 00:00:00 GMT 2016 sevoris17 Flowering dogwood Cornus florida Leaves Unfolding (None) 37.258923000000000 -85.878603000000000 63421
Thu Mar 24 00:00:00 GMT 2016 sevoris17 Flowering dogwood Cornus florida Leaves Changing Color (None) 37.258923000000000 -85.878603000000000 63422
Thu Mar 24 00:00:00 GMT 2016 sevoris17 Flowering dogwood Cornus florida Leaves Dropping (None) 37.258923000000000 -85.878603000000000 63423
Thu Mar 24 00:00:00 GMT 2016 sevoris17 Flowering dogwood Cornus florida Flowers (None) 37.258923000000000 -85.878603000000000 63424
Thu Mar 24 00:00:00 GMT 2016 sevoris17 Flowering dogwood Cornus florida Fruit (None) 37.258923000000000 -85.878603000000000 63425
Fri Mar 25 00:00:00 GMT 2016 kelci_adcock Flowering dogwood Cornus florida Leaves Unfolding (None) 40.000000000000000 -100.000000000000000 63455
Fri Mar 25 00:00:00 GMT 2016 kelci_adcock Flowering dogwood Cornus florida Leaves Unfolding (None) 40.000000000000000 -100.000000000000000 63457
Fri Mar 25 00:00:00 GMT 2016 kelci_adcock Flowering dogwood Cornus florida Leaves Unfolding (None) 40.000000000000000 -100.000000000000000 63459
Fri Mar 25 00:00:00 GMT 2016 kelci_adcock Flowering dogwood Cornus florida Leaves Changing Color (None) 40.000000000000000 -100.000000000000000 63460
Fri Mar 25 00:00:00 GMT 2016 kelci_adcock Flowering dogwood Cornus florida Leaves Changing Color (None) 40.000000000000000 -100.000000000000000 63466
Fri Mar 25 00:00:00 GMT 2016 kelci_adcock Flowering dogwood Cornus florida Leaves Changing Color (None) 40.000000000000000 -100.000000000000000 63468
Fri Mar 25 00:00:00 GMT 2016 kelci_adcock Flowering dogwood Cornus florida Leaves Dropping (None) 40.000000000000000 -100.000000000000000 63469
Fri Mar 25 00:00:00 GMT 2016 kelci_adcock Flowering dogwood Cornus florida Leaves Dropping (None) 40.000000000000000 -100.000000000000000 63475
Fri Mar 25 00:00:00 GMT 2016 kelci_adcock Flowering dogwood Cornus florida Leaves Dropping (None) 40.000000000000000 -100.000000000000000 63476
Fri Mar 25 00:00:00 GMT 2016 kelci_adcock Flowering dogwood Cornus florida Flowers (None) 40.000000000000000 -100.000000000000000 63479
Fri Mar 25 00:00:00 GMT 2016 kelci_adcock Flowering dogwood Cornus florida Flowers (None) 40.000000000000000 -100.000000000000000 63481
Fri Mar 25 00:00:00 GMT 2016 kelci_adcock Flowering dogwood Cornus florida Flowers (None) 40.000000000000000 -100.000000000000000 63483
Fri Mar 25 00:00:00 GMT 2016 kelci_adcock Flowering dogwood Cornus florida Fruit (None) 40.000000000000000 -100.000000000000000 63484
Fri Mar 25 00:00:00 GMT 2016 kelci_adcock Flowering dogwood Cornus florida Fruit (None) 40.000000000000000 -100.000000000000000 63487
Fri Mar 25 00:00:00 GMT 2016 kelci_adcock Flowering dogwood Cornus florida Fruit (None) 40.000000000000000 -100.000000000000000 63489
Fri Mar 25 00:00:00 GMT 2016 acfarmer Flowering dogwood Cornus florida Leaves Unfolding (None) 37.272280000000000 -85.891080000000000 63508
Fri Mar 25 00:00:00 GMT 2016 acfarmer Flowering dogwood Cornus florida Leaves Changing Color (None) 37.272280000000000 -85.891080000000000 63509
Fri Mar 25 00:00:00 GMT 2016 acfarmer Flowering dogwood Cornus florida Leaves Dropping (None) 37.272280000000000 -85.891080000000000 63510
Fri Mar 25 00:00:00 GMT 2016 acfarmer Flowering dogwood Cornus florida Flowers (Early) 37.272280000000000 -85.891080000000000 63511
Fri Mar 25 00:00:00 GMT 2016 acfarmer Flowering dogwood Cornus florida Fruit (None) 37.272280000000000 -85.891080000000000 63512
Tue Mar 15 00:00:00 GMT 2016 volk1430 Flowering dogwood Cornus florida Bud Burst 39.574799000000000 -95.111239000000000 63529
Fri Mar 25 00:00:00 GMT 2016 Kalexa Flowering dogwood Cornus florida Leaves Unfolding (Middle) 38.962330000000000 -95.236460000000000 63593
Fri Mar 25 00:00:00 GMT 2016 Kalexa Flowering dogwood Cornus florida Leaves Changing Color (None) 38.962330000000000 -95.236460000000000 63594
Fri Mar 25 00:00:00 GMT 2016 Kalexa Flowering dogwood Cornus florida Leaves Dropping (Middle) 38.962330000000000 -95.236460000000000 63595
Fri Mar 25 00:00:00 GMT 2016 Kalexa Flowering dogwood Cornus florida Flowers (Middle) 38.962330000000000 -95.236460000000000 63596
Fri Mar 25 00:00:00 GMT 2016 Kalexa Flowering dogwood Cornus florida Fruit (None) 38.962330000000000 -95.236460000000000 63597
Sat Mar 12 00:00:00 GMT 2016 birdshelli Flowering dogwood Cornus florida Bud Burst 34.003780000000000 -83.610620000000000 63622
Sat Mar 19 00:00:00 GMT 2016 birdshelli Flowering dogwood Cornus florida First Leaf 34.003780000000000 -83.610620000000000 63623
Sat Mar 26 00:00:00 GMT 2016 birdshelli Flowering dogwood Cornus florida All Leaves Unfolded 34.003780000000000 -83.610620000000000 63624
Sun Mar 27 00:00:00 GMT 2016 birdshelli Flowering dogwood Cornus florida First Flower 34.003780000000000 -83.610620000000000 63625
Tue Mar 29 00:00:00 GMT 2016 birdshelli Flowering dogwood Cornus florida Full Flower 34.003780000000000 -83.610620000000000 63626
Mon Mar 28 00:00:00 GMT 2016 kaylechaney Flowering dogwood Cornus florida Leaves Unfolding (Early) 37.270091000000000 -85.885878000000000 63633
Mon Mar 28 00:00:00 GMT 2016 kaylechaney Flowering dogwood Cornus florida Leaves Changing Color (None) 37.270091000000000 -85.885878000000000 63634
Mon Mar 28 00:00:00 GMT 2016 kaylechaney Flowering dogwood Cornus florida Leaves Dropping (None) 37.270091000000000 -85.885878000000000 63635
Mon Mar 28 00:00:00 GMT 2016 kaylechaney Flowering dogwood Cornus florida Flowers (None) 37.270091000000000 -85.885878000000000 63636
Mon Mar 28 00:00:00 GMT 2016 kaylechaney Flowering dogwood Cornus florida Fruit (None) 37.270091000000000 -85.885878000000000 63637
Tue Mar 29 00:00:00 GMT 2016 mcm205 Flowering dogwood Cornus florida First Leaf 39.111060000000000 -76.985360000000000 63643
Wed Feb 10 00:00:00 GMT 2016 hdonahue Flowering dogwood Cornus florida Bud Burst 39.168654000000000 -86.523201000000000 63753
Fri Mar 04 00:00:00 GMT 2016 hdonahue Flowering dogwood Cornus florida First Flower 39.168654000000000 -86.523201000000000 63754
Wed Mar 30 00:00:00 GMT 2016 hdonahue Flowering dogwood Cornus florida Full Flower 39.168654000000000 -86.523201000000000 63755
Tue Mar 29 00:00:00 GMT 2016 volk1430 Flowering dogwood Cornus florida First Flower 39.574799000000000 -95.111239000000000 63764
Mon Apr 04 00:00:00 GMT 2016 volk1430 Flowering dogwood Cornus florida Full Flower 39.574799000000000 -95.111239000000000 63765
Mon Mar 21 00:00:00 GMT 2016 egfeicke Flowering dogwood Cornus florida Bud Burst 39.165330000000000 -86.526390000000000 63790
Tue Apr 05 00:00:00 GMT 2016 egfeicke Flowering dogwood Cornus florida First Flower 39.165330000000000 -86.526390000000000 63791
Thu Mar 10 00:00:00 GMT 2016 jazajac Flowering dogwood Cornus florida Bud Burst 39.167019000000000 -86.513289000000000 63833
Sun Apr 10 00:00:00 GMT 2016 macdickm Flowering dogwood Cornus florida Leaves Unfolding (None) 39.169340000000000 -86.511283000000000 63917
Sun Apr 10 00:00:00 GMT 2016 macdickm Flowering dogwood Cornus florida Leaves Changing Color (None) 39.169340000000000 -86.511283000000000 63918
Sun Apr 10 00:00:00 GMT 2016 macdickm Flowering dogwood Cornus florida Leaves Dropping (None) 39.169340000000000 -86.511283000000000 63919
Sun Apr 10 00:00:00 GMT 2016 macdickm Flowering dogwood Cornus florida Flowers (Middle) 39.169340000000000 -86.511283000000000 63920
Sun Apr 10 00:00:00 GMT 2016 macdickm Flowering dogwood Cornus florida Fruit (None) 39.169340000000000 -86.511283000000000 63921
Sun Apr 10 00:00:00 GMT 2016 macdickm Flowering dogwood Cornus florida Leaves Unfolding (None) 39.169498000000000 -86.511197000000000 63922
Sun Apr 10 00:00:00 GMT 2016 macdickm Flowering dogwood Cornus florida Leaves Changing Color (None) 39.169498000000000 -86.511197000000000 63923
Sun Apr 10 00:00:00 GMT 2016 macdickm Flowering dogwood Cornus florida Leaves Dropping (None) 39.169498000000000 -86.511197000000000 63924
Sun Apr 10 00:00:00 GMT 2016 macdickm Flowering dogwood Cornus florida Flowers (Middle) 39.169498000000000 -86.511197000000000 63925
Sun Apr 10 00:00:00 GMT 2016 macdickm Flowering dogwood Cornus florida Fruit (None) 39.169498000000000 -86.511197000000000 63926
Thu Jan 21 00:00:00 GMT 2016 morrowm Flowering dogwood Cornus florida Bud Burst 39.170790000000000 -86.530040000000000 63929
Sat Mar 19 00:00:00 GMT 2016 morrowm Flowering dogwood Cornus florida First Flower 39.170790000000000 -86.530040000000000 63930
Sat Mar 26 00:00:00 GMT 2016 morrowm Flowering dogwood Cornus florida Full Flower 39.170790000000000 -86.530040000000000 63931
Fri Mar 11 00:00:00 GMT 2016 hbudwig Flowering dogwood Cornus florida Bud Burst 39.179820000000000 -86.510270000000000 63941
Mon Mar 21 00:00:00 GMT 2016 hbudwig Flowering dogwood Cornus florida First Flower 39.179820000000000 -86.510270000000000 63942
Fri Apr 01 00:00:00 GMT 2016 emaanyae Flowering dogwood Cornus florida First Leaf 39.165330000000000 -86.526390000000000 63950
Fri Mar 25 00:00:00 GMT 2016 emaanyae Flowering dogwood Cornus florida First Flower 39.165330000000000 -86.526390000000000 63951
Tue Mar 01 00:00:00 GMT 2016 ashhansbury Flowering dogwood Cornus florida Bud Burst 39.168200000000000 -86.519700000000000 63985
Tue Mar 08 00:00:00 GMT 2016 ashhansbury Flowering dogwood Cornus florida First Flower 39.168200000000000 -86.519700000000000 63986
Sun Mar 13 00:00:00 GMT 2016 ashhansbury Flowering dogwood Cornus florida Full Flower 39.168200000000000 -86.519700000000000 63987
Fri Apr 08 00:00:00 GMT 2016 Estella_Monica Flowering dogwood Cornus florida Leaves Unfolding (Late) 35.871915000000000 -78.746169000000000 64093
Fri Apr 08 00:00:00 GMT 2016 Estella_Monica Flowering dogwood Cornus florida Leaves Changing Color (Early) 35.871915000000000 -78.746169000000000 64094
Fri Apr 08 00:00:00 GMT 2016 Estella_Monica Flowering dogwood Cornus florida Leaves Dropping (None) 35.871915000000000 -78.746169000000000 64095
Fri Apr 08 00:00:00 GMT 2016 Estella_Monica Flowering dogwood Cornus florida Flowers (Middle) 35.871915000000000 -78.746169000000000 64096
Fri Apr 08 00:00:00 GMT 2016 Estella_Monica Flowering dogwood Cornus florida Fruit (None) 35.871915000000000 -78.746169000000000 64097
Mon Jan 18 00:00:00 GMT 2016 caseward Flowering dogwood Cornus florida Leaves Unfolding (None) 39.164353000000000 -86.516508000000000 64123
Mon Jan 18 00:00:00 GMT 2016 caseward Flowering dogwood Cornus florida Leaves Changing Color (None) 39.164353000000000 -86.516508000000000 64124
Mon Jan 18 00:00:00 GMT 2016 caseward Flowering dogwood Cornus florida Leaves Dropping (None) 39.164353000000000 -86.516508000000000 64125
Mon Jan 18 00:00:00 GMT 2016 caseward Flowering dogwood Cornus florida Flowers (None) 39.164353000000000 -86.516508000000000 64126
Mon Jan 18 00:00:00 GMT 2016 caseward Flowering dogwood Cornus florida Fruit (None) 39.164353000000000 -86.516508000000000 64127
Sun Apr 10 00:00:00 GMT 2016 juliluna Flowering dogwood Cornus florida Leaves Unfolding (None) 39.170857000000000 -86.514033000000000 64138
Sun Apr 10 00:00:00 GMT 2016 juliluna Flowering dogwood Cornus florida Leaves Changing Color (None) 39.170857000000000 -86.514033000000000 64139
Sun Apr 10 00:00:00 GMT 2016 juliluna Flowering dogwood Cornus florida Leaves Dropping (None) 39.170857000000000 -86.514033000000000 64140
Sun Apr 10 00:00:00 GMT 2016 juliluna Flowering dogwood Cornus florida Flowers (Middle) 39.170857000000000 -86.514033000000000 64141
Sun Apr 10 00:00:00 GMT 2016 juliluna Flowering dogwood Cornus florida Fruit (None) 39.170857000000000 -86.514033000000000 64142
Fri Feb 26 00:00:00 GMT 2016 juliluna Flowering dogwood Cornus florida Bud Burst 39.170857000000000 -86.514033000000000 64167
Wed Mar 23 00:00:00 GMT 2016 juliluna Flowering dogwood Cornus florida First Flower 39.170857000000000 -86.514033000000000 64168
Fri Mar 25 00:00:00 GMT 2016 juliluna Flowering dogwood Cornus florida Full Flower 39.170857000000000 -86.514033000000000 64169
Sat Feb 13 00:00:00 GMT 2016 elongbot Flowering dogwood Cornus florida Bud Burst 39.165330000000000 -86.526390000000000 64322
Sat Feb 13 00:00:00 GMT 2016 elongbots Flowering dogwood Cornus florida Bud Burst 39.165330000000000 -86.526390000000000 64328
Mon Mar 28 00:00:00 GMT 2016 caseward Flowering dogwood Cornus florida First Leaf 39.164345000000000 -86.516519000000000 64369
Mon Jan 18 00:00:00 GMT 2016 parkshi Flowering dogwood Cornus florida Bud Burst 39.157752000000000 -86.502571000000000 64397
Wed Mar 23 00:00:00 GMT 2016 wvadney Flowering dogwood Cornus florida Bud Burst 39.165395000000000 -86.524951000000000 64401
Mon Apr 11 00:00:00 GMT 2016 klangen Flowering dogwood Cornus florida Leaves Unfolding (Middle) 39.585500000000000 -85.084270000000000 64435
Mon Apr 11 00:00:00 GMT 2016 klangen Flowering dogwood Cornus florida Leaves Changing Color (None) 39.585500000000000 -85.084270000000000 64436
Mon Apr 11 00:00:00 GMT 2016 klangen Flowering dogwood Cornus florida Leaves Dropping (None) 39.585500000000000 -85.084270000000000 64437
Mon Apr 11 00:00:00 GMT 2016 klangen Flowering dogwood Cornus florida Flowers (Middle) 39.585500000000000 -85.084270000000000 64438
Mon Apr 11 00:00:00 GMT 2016 klangen Flowering dogwood Cornus florida Fruit (None) 39.585500000000000 -85.084270000000000 64439
Mon Mar 21 00:00:00 GMT 2016 haleylaine40 Flowering dogwood Cornus florida Bud Burst 35.803830000000000 -86.356270000000000 64525
Tue Apr 05 00:00:00 GMT 2016 haleylaine40 Flowering dogwood Cornus florida First Leaf 35.803830000000000 -86.356270000000000 64526
Tue Apr 12 00:00:00 GMT 2016 haleylaine40 Flowering dogwood Cornus florida All Leaves Unfolded 35.803830000000000 -86.356270000000000 64527
Fri Mar 25 00:00:00 GMT 2016 haleylaine40 Flowering dogwood Cornus florida First Flower 35.803830000000000 -86.356270000000000 64528
Tue Apr 05 00:00:00 GMT 2016 haleylaine40 Flowering dogwood Cornus florida Full Flower 35.803830000000000 -86.356270000000000 64529
Wed Apr 13 00:00:00 GMT 2016 atalhelm Flowering dogwood Cornus florida Leaves Unfolding (Middle) 35.903512000000000 -78.890805000000000 64581
Wed Apr 13 00:00:00 GMT 2016 atalhelm Flowering dogwood Cornus florida Leaves Changing Color (None) 35.903512000000000 -78.890805000000000 64582
Wed Apr 13 00:00:00 GMT 2016 atalhelm Flowering dogwood Cornus florida Leaves Dropping (None) 35.903512000000000 -78.890805000000000 64583
Wed Apr 13 00:00:00 GMT 2016 atalhelm Flowering dogwood Cornus florida Flowers (Late) 35.903512000000000 -78.890805000000000 64584
Wed Apr 13 00:00:00 GMT 2016 atalhelm Flowering dogwood Cornus florida Fruit (Early) 35.903512000000000 -78.890805000000000 64585
Thu Apr 21 00:00:00 GMT 2016 GCHardy Flowering dogwood Cornus florida Leaves Unfolding (Late) 39.211600000000000 -76.877640000000000 64916
Thu Apr 21 00:00:00 GMT 2016 GCHardy Flowering dogwood Cornus florida Leaves Changing Color (None) 39.211600000000000 -76.877640000000000 64917
Thu Apr 21 00:00:00 GMT 2016 GCHardy Flowering dogwood Cornus florida Leaves Dropping (None) 39.211600000000000 -76.877640000000000 64918
Thu Apr 21 00:00:00 GMT 2016 GCHardy Flowering dogwood Cornus florida Flowers (Middle) 39.211600000000000 -76.877640000000000 64919
Thu Apr 21 00:00:00 GMT 2016 GCHardy Flowering dogwood Cornus florida Fruit (None) 39.211600000000000 -76.877640000000000 64920
Sat Apr 23 00:00:00 GMT 2016 pennyhrdls Flowering dogwood Cornus florida Bud Burst 42.183340000000000 -71.196990000000000 65065
Mon Apr 25 00:00:00 GMT 2016 AEcklund Flowering dogwood Cornus florida Leaves Unfolding (Late) 40.117170000000000 -75.110560000000000 65154
Mon Apr 25 00:00:00 GMT 2016 AEcklund Flowering dogwood Cornus florida Leaves Changing Color (None) 40.117170000000000 -75.110560000000000 65155
Mon Apr 25 00:00:00 GMT 2016 AEcklund Flowering dogwood Cornus florida Leaves Dropping (Early) 40.117170000000000 -75.110560000000000 65156
Mon Apr 25 00:00:00 GMT 2016 AEcklund Flowering dogwood Cornus florida Flowers (Middle) 40.117170000000000 -75.110560000000000 65157
Mon Apr 25 00:00:00 GMT 2016 AEcklund Flowering dogwood Cornus florida Fruit (None) 40.117170000000000 -75.110560000000000 65158
Mon Apr 25 00:00:00 GMT 2016 katfadigan Flowering dogwood Cornus florida Leaves Unfolding (None) 40.131380000000000 -75.137030000000000 65159
Mon Apr 25 00:00:00 GMT 2016 katfadigan Flowering dogwood Cornus florida Leaves Changing Color (None) 40.131380000000000 -75.137030000000000 65160
Mon Apr 25 00:00:00 GMT 2016 katfadigan Flowering dogwood Cornus florida Leaves Dropping (None) 40.131380000000000 -75.137030000000000 65161
Mon Apr 25 00:00:00 GMT 2016 katfadigan Flowering dogwood Cornus florida Flowers (Late) 40.131380000000000 -75.137030000000000 65162
Mon Apr 25 00:00:00 GMT 2016 katfadigan Flowering dogwood Cornus florida Fruit (None) 40.131380000000000 -75.137030000000000 65163
Mon Apr 25 00:00:00 GMT 2016 allison_in_color Flowering dogwood Cornus florida Leaves Unfolding (Late) 40.117170000000000 -75.110560000000000 65220
Mon Apr 25 00:00:00 GMT 2016 allison_in_color Flowering dogwood Cornus florida Leaves Changing Color (None) 40.117170000000000 -75.110560000000000 65221
Mon Apr 25 00:00:00 GMT 2016 allison_in_color Flowering dogwood Cornus florida Leaves Dropping (None) 40.117170000000000 -75.110560000000000 65222
Mon Apr 25 00:00:00 GMT 2016 allison_in_color Flowering dogwood Cornus florida Flowers (Middle) 40.117170000000000 -75.110560000000000 65223
Mon Apr 25 00:00:00 GMT 2016 allison_in_color Flowering dogwood Cornus florida Fruit (None) 40.117170000000000 -75.110560000000000 65224
Wed Apr 20 00:00:00 GMT 2016 katfadigan Flowering dogwood Cornus florida Leaves Unfolding (Middle) 40.195500000000000 -75.110300000000000 65225
Wed Apr 20 00:00:00 GMT 2016 katfadigan Flowering dogwood Cornus florida Leaves Changing Color (None) 40.195500000000000 -75.110300000000000 65226
Wed Apr 20 00:00:00 GMT 2016 katfadigan Flowering dogwood Cornus florida Leaves Dropping (None) 40.195500000000000 -75.110300000000000 65227
Wed Apr 20 00:00:00 GMT 2016 katfadigan Flowering dogwood Cornus florida Flowers (Middle) 40.195500000000000 -75.110300000000000 65228
Wed Apr 20 00:00:00 GMT 2016 katfadigan Flowering dogwood Cornus florida Fruit (None) 40.195500000000000 -75.110300000000000 65229
Mon Apr 25 00:00:00 GMT 2016 Fowlerz74 Flowering dogwood Cornus florida Leaves Unfolding (Late) 40.249270000000000 -75.134060000000000 65287
Mon Apr 25 00:00:00 GMT 2016 Fowlerz74 Flowering dogwood Cornus florida Leaves Changing Color (Late) 40.249270000000000 -75.134060000000000 65288
Mon Apr 25 00:00:00 GMT 2016 Fowlerz74 Flowering dogwood Cornus florida Leaves Dropping (None) 40.249270000000000 -75.134060000000000 65289
Mon Apr 25 00:00:00 GMT 2016 Fowlerz74 Flowering dogwood Cornus florida Flowers (Early) 40.249270000000000 -75.134060000000000 65290
Mon Apr 25 00:00:00 GMT 2016 Fowlerz74 Flowering dogwood Cornus florida Fruit (None) 40.249270000000000 -75.134060000000000 65291
Mon Apr 25 00:00:00 GMT 2016 nikolinbica Flowering dogwood Cornus florida Leaves Unfolding (None) 42.104820000000000 -70.945320000000000 65323
Mon Apr 25 00:00:00 GMT 2016 nikolinbica Flowering dogwood Cornus florida Leaves Changing Color (None) 42.104820000000000 -70.945320000000000 65324
Mon Apr 25 00:00:00 GMT 2016 nikolinbica Flowering dogwood Cornus florida Leaves Dropping (None) 42.104820000000000 -70.945320000000000 65325
Mon Apr 25 00:00:00 GMT 2016 nikolinbica Flowering dogwood Cornus florida Flowers (Middle) 42.104820000000000 -70.945320000000000 65326
Mon Apr 25 00:00:00 GMT 2016 nikolinbica Flowering dogwood Cornus florida Fruit (None) 42.104820000000000 -70.945320000000000 65327
Mon Apr 25 00:00:00 GMT 2016 Marge212 Flowering dogwood Cornus florida Leaves Unfolding (None) 40.119830000000000 -75.125350000000000 65340
Mon Apr 25 00:00:00 GMT 2016 Marge212 Flowering dogwood Cornus florida Leaves Changing Color (None) 40.119830000000000 -75.125350000000000 65341
Mon Apr 25 00:00:00 GMT 2016 Marge212 Flowering dogwood Cornus florida Leaves Dropping (None) 40.119830000000000 -75.125350000000000 65342
Mon Apr 25 00:00:00 GMT 2016 Marge212 Flowering dogwood Cornus florida Flowers (Middle) 40.119830000000000 -75.125350000000000 65343
Mon Apr 25 00:00:00 GMT 2016 Marge212 Flowering dogwood Cornus florida Fruit (None) 40.119830000000000 -75.125350000000000 65344
Mon Apr 25 00:00:00 GMT 2016 Tiararomans Flowering dogwood Cornus florida Leaves Unfolding (Middle) 42.104820000000000 -70.945320000000000 65357
Mon Apr 25 00:00:00 GMT 2016 Tiararomans Flowering dogwood Cornus florida Leaves Changing Color (Late) 42.104820000000000 -70.945320000000000 65358
Mon Apr 25 00:00:00 GMT 2016 Tiararomans Flowering dogwood Cornus florida Leaves Dropping (Early) 42.104820000000000 -70.945320000000000 65359
Mon Apr 25 00:00:00 GMT 2016 Tiararomans Flowering dogwood Cornus florida Flowers (Middle) 42.104820000000000 -70.945320000000000 65360
Mon Apr 25 00:00:00 GMT 2016 Tiararomans Flowering dogwood Cornus florida Fruit (None) 42.104820000000000 -70.945320000000000 65361
Mon Apr 25 00:00:00 GMT 2016 katfadigan Flowering dogwood Cornus florida Leaves Unfolding (Late) 40.131380000000000 -75.137030000000000 65391
Mon Apr 25 00:00:00 GMT 2016 katfadigan Flowering dogwood Cornus florida Leaves Changing Color (None) 40.131380000000000 -75.137030000000000 65392
Mon Apr 25 00:00:00 GMT 2016 katfadigan Flowering dogwood Cornus florida Leaves Dropping (None) 40.131380000000000 -75.137030000000000 65393
Mon Apr 25 00:00:00 GMT 2016 katfadigan Flowering dogwood Cornus florida Flowers (Middle) 40.131380000000000 -75.137030000000000 65394
Mon Apr 25 00:00:00 GMT 2016 katfadigan Flowering dogwood Cornus florida Fruit (None) 40.131380000000000 -75.137030000000000 65395
Tue Apr 26 00:00:00 GMT 2016 Dbendler Flowering dogwood Cornus florida Leaves Unfolding (Middle) 40.119830000000000 -75.125350000000000 65521
Tue Apr 26 00:00:00 GMT 2016 Dbendler Flowering dogwood Cornus florida Leaves Changing Color (None) 40.119830000000000 -75.125350000000000 65522
Tue Apr 26 00:00:00 GMT 2016 Dbendler Flowering dogwood Cornus florida Leaves Dropping (None) 40.119830000000000 -75.125350000000000 65523
Tue Apr 26 00:00:00 GMT 2016 Dbendler Flowering dogwood Cornus florida Flowers (Middle) 40.119830000000000 -75.125350000000000 65524
Tue Apr 26 00:00:00 GMT 2016 Dbendler Flowering dogwood Cornus florida Fruit (None) 40.119830000000000 -75.125350000000000 65525
Sun Apr 03 00:00:00 GMT 2016 flyfish323 Flowering dogwood Cornus florida First Flower 39.575891000000000 -95.111840000000000 65628
Sat Apr 16 00:00:00 GMT 2016 flyfish323 Flowering dogwood Cornus florida Full Flower 39.575891000000000 -95.111840000000000 65629
Thu Apr 21 00:00:00 GMT 2016 jumana Flowering dogwood Cornus florida Leaves Unfolding (Middle) 36.924130000000000 -80.025040000000000 65946
Thu Apr 21 00:00:00 GMT 2016 jumana Flowering dogwood Cornus florida Leaves Changing Color (Middle) 36.924130000000000 -80.025040000000000 65947
Thu Apr 21 00:00:00 GMT 2016 jumana Flowering dogwood Cornus florida Leaves Dropping (Middle) 36.924130000000000 -80.025040000000000 65948
Thu Apr 21 00:00:00 GMT 2016 jumana Flowering dogwood Cornus florida Flowers (Late) 36.924130000000000 -80.025040000000000 65949
Thu Apr 21 00:00:00 GMT 2016 jumana Flowering dogwood Cornus florida Fruit (None) 36.924130000000000 -80.025040000000000 65950
Mon Mar 07 00:00:00 GMT 2016 mhenke Flowering dogwood Cornus florida Bud Burst 36.925057000000000 -80.021517000000000 66026
Fri Apr 01 00:00:00 GMT 2016 mhenke Flowering dogwood Cornus florida First Leaf 36.925057000000000 -80.021517000000000 66027
Fri Apr 15 00:00:00 GMT 2016 mhenke Flowering dogwood Cornus florida First Flower 36.925057000000000 -80.021517000000000 66028
Fri Apr 29 00:00:00 GMT 2016 mhenke Flowering dogwood Cornus florida Full Flower 36.925057000000000 -80.021517000000000 66029
Mon May 02 00:00:00 GMT 2016 pennyhrdls Flowering dogwood Cornus florida First Flower 42.183340000000000 -71.196990000000000 66112
Fri May 06 00:00:00 GMT 2016 cdevan Flowering dogwood Cornus florida All Leaves Unfolded 40.781780000000000 -74.172770000000000 66461
Sun Apr 24 00:00:00 GMT 2016 cdevan Flowering dogwood Cornus florida Full Flower 40.781780000000000 -74.172770000000000 66462
Mon Apr 18 00:00:00 GMT 2016 flowerpower1994 Flowering dogwood Cornus florida Bud Burst 39.572320000000000 -95.114940000000000 66568
Fri Apr 22 00:00:00 GMT 2016 flowerpower1994 Flowering dogwood Cornus florida First Flower 39.572320000000000 -95.114940000000000 66569
Mon May 09 00:00:00 GMT 2016 pennyhrdls Flowering dogwood Cornus florida Full Flower 42.183340000000000 -71.196990000000000 66581
Wed May 18 00:00:00 GMT 2016 pennyhrdls Flowering dogwood Cornus florida First Leaf 42.183340000000000 -71.196990000000000 67285
Thu May 19 00:00:00 GMT 2016 Susansachs Flowering dogwood Cornus florida Leaves Unfolding (None) 35.514064000000000 -83.013369000000000 67404
Thu May 19 00:00:00 GMT 2016 Susansachs Flowering dogwood Cornus florida Leaves Changing Color (None) 35.514064000000000 -83.013369000000000 67405
Thu May 19 00:00:00 GMT 2016 Susansachs Flowering dogwood Cornus florida Leaves Dropping (None) 35.514064000000000 -83.013369000000000 67406
Thu May 19 00:00:00 GMT 2016 Susansachs Flowering dogwood Cornus florida Flowers (Late) 35.514064000000000 -83.013369000000000 67407
Thu May 19 00:00:00 GMT 2016 Susansachs Flowering dogwood Cornus florida Fruit (None) 35.514064000000000 -83.013369000000000 67408
Thu May 26 00:00:00 GMT 2016 pennyhrdls Flowering dogwood Cornus florida All Leaves Unfolded 42.183340000000000 -71.196990000000000 67984
Wed Jun 08 00:00:00 GMT 2016 fulmertracy Flowering dogwood Cornus florida Leaves Unfolding (Late) 39.030390000000000 -83.932650000000000 68319
Wed Jun 08 00:00:00 GMT 2016 fulmertracy Flowering dogwood Cornus florida Leaves Changing Color (None) 39.030390000000000 -83.932650000000000 68320
Wed Jun 08 00:00:00 GMT 2016 fulmertracy Flowering dogwood Cornus florida Leaves Dropping (None) 39.030390000000000 -83.932650000000000 68321
Wed Jun 08 00:00:00 GMT 2016 fulmertracy Flowering dogwood Cornus florida Flowers (Late) 39.030390000000000 -83.932650000000000 68322
Wed Jun 08 00:00:00 GMT 2016 fulmertracy Flowering dogwood Cornus florida Fruit (None) 39.030390000000000 -83.932650000000000 68323
Sat Jul 09 00:00:00 GMT 2016 britkehrer Flowering dogwood Cornus florida Leaves Unfolding (Late) 38.909100000000000 -77.527550000000000 68724
Sat Jul 09 00:00:00 GMT 2016 britkehrer Flowering dogwood Cornus florida Leaves Changing Color (None) 38.909100000000000 -77.527550000000000 68725
Sat Jul 09 00:00:00 GMT 2016 britkehrer Flowering dogwood Cornus florida Leaves Dropping (None) 38.909100000000000 -77.527550000000000 68726
Sat Jul 09 00:00:00 GMT 2016 britkehrer Flowering dogwood Cornus florida Flowers (Late) 38.909100000000000 -77.527550000000000 68727
Sat Jul 09 00:00:00 GMT 2016 britkehrer Flowering dogwood Cornus florida Fruit (None) 38.909100000000000 -77.527550000000000 68728
Sat Jul 09 00:00:00 GMT 2016 britkehrer Flowering dogwood Cornus florida Leaves Unfolding (Late) 38.894398000000000 -77.503102000000000 68729
Sat Jul 09 00:00:00 GMT 2016 britkehrer Flowering dogwood Cornus florida Leaves Changing Color (None) 38.894398000000000 -77.503102000000000 68730
Sat Jul 09 00:00:00 GMT 2016 britkehrer Flowering dogwood Cornus florida Leaves Dropping (None) 38.894398000000000 -77.503102000000000 68731
Sat Jul 09 00:00:00 GMT 2016 britkehrer Flowering dogwood Cornus florida Flowers (Late) 38.894398000000000 -77.503102000000000 68732
Sat Jul 09 00:00:00 GMT 2016 britkehrer Flowering dogwood Cornus florida Fruit (None) 38.894398000000000 -77.503102000000000 68733
Mon Mar 14 00:00:00 GMT 2016 rainbowtrees Flowering dogwood Cornus florida Bud Burst 35.578051000000000 -82.586251000000000 69248
Wed Mar 30 00:00:00 GMT 2016 rainbowtrees Flowering dogwood Cornus florida First Leaf 35.578051000000000 -82.586251000000000 69249
Sun Apr 17 00:00:00 GMT 2016 rainbowtrees Flowering dogwood Cornus florida All Leaves Unfolded 35.578051000000000 -82.586251000000000 69250
Mon Mar 21 00:00:00 GMT 2016 rainbowtrees Flowering dogwood Cornus florida Full Flower 35.578051000000000 -82.586251000000000 69251
Fri Sep 02 00:00:00 GMT 2016 britkehrer Flowering dogwood Cornus florida First Ripe Fruit 38.894530000000000 -77.503220000000000 69618
Mon Sep 05 00:00:00 GMT 2016 britkehrer Flowering dogwood Cornus florida Leaves Unfolding (Late) 38.894530000000000 -77.503220000000000 69633
Mon Sep 05 00:00:00 GMT 2016 britkehrer Flowering dogwood Cornus florida Leaves Changing Color (None) 38.894530000000000 -77.503220000000000 69634
Mon Sep 05 00:00:00 GMT 2016 britkehrer Flowering dogwood Cornus florida Leaves Dropping (None) 38.894530000000000 -77.503220000000000 69635
Mon Sep 05 00:00:00 GMT 2016 britkehrer Flowering dogwood Cornus florida Flowers (None) 38.894530000000000 -77.503220000000000 69636
Mon Sep 05 00:00:00 GMT 2016 britkehrer Flowering dogwood Cornus florida Fruit (Early) 38.894530000000000 -77.503220000000000 69637
Sun Sep 11 00:00:00 GMT 2016 quincystiles Flowering dogwood Cornus florida Leaves Unfolding (Late) 40.000000000000000 -100.000000000000000 69718
Sun Sep 11 00:00:00 GMT 2016 quincystiles Flowering dogwood Cornus florida Leaves Changing Color (None) 40.000000000000000 -100.000000000000000 69719
Sun Sep 11 00:00:00 GMT 2016 quincystiles Flowering dogwood Cornus florida Leaves Dropping (None) 40.000000000000000 -100.000000000000000 69720
Sun Sep 11 00:00:00 GMT 2016 quincystiles Flowering dogwood Cornus florida Flowers (None) 40.000000000000000 -100.000000000000000 69721
Sun Sep 11 00:00:00 GMT 2016 quincystiles Flowering dogwood Cornus florida Fruit (None) 40.000000000000000 -100.000000000000000 69722
Sun Sep 11 00:00:00 GMT 2016 peggyjkent Flowering dogwood Cornus florida Bud Burst 38.696430000000000 -82.855290000000000 69752
Sun Sep 11 00:00:00 GMT 2016 peggyjkent Flowering dogwood Cornus florida First Ripe Fruit 38.696430000000000 -82.855290000000000 69753
Sun Sep 11 00:00:00 GMT 2016 peggyjkent Flowering dogwood Cornus florida Full Fruiting 38.696430000000000 -82.855290000000000 69754
Sun Sep 11 00:00:00 GMT 2016 peggyjkent Flowering dogwood Cornus florida 50% Color 38.696430000000000 -82.855290000000000 69755
Sun Sep 11 00:00:00 GMT 2016 peggyjkent Flowering dogwood Cornus florida 50% Leaf Fall 38.696430000000000 -82.855290000000000 69756
Mon Sep 19 00:00:00 GMT 2016 peggyjkent Flowering dogwood Cornus florida First Leaf 38.696430000000000 -82.855290000000000 69874
Mon Sep 19 00:00:00 GMT 2016 peggyjkent Flowering dogwood Cornus florida All Leaves Unfolded 38.696430000000000 -82.855290000000000 69875
Wed Sep 21 00:00:00 GMT 2016 aroyalartist Flowering dogwood Cornus florida Leaves Unfolding (Late) 35.564913000000000 -82.492058000000000 70020
Wed Sep 21 00:00:00 GMT 2016 aroyalartist Flowering dogwood Cornus florida Leaves Changing Color (None) 35.564913000000000 -82.492058000000000 70021
Wed Sep 21 00:00:00 GMT 2016 aroyalartist Flowering dogwood Cornus florida Leaves Dropping (Early) 35.564913000000000 -82.492058000000000 70022
Wed Sep 21 00:00:00 GMT 2016 aroyalartist Flowering dogwood Cornus florida Flowers (None) 35.564913000000000 -82.492058000000000 70023
Wed Sep 21 00:00:00 GMT 2016 aroyalartist Flowering dogwood Cornus florida Fruit (None) 35.564913000000000 -82.492058000000000 70024
Thu Sep 15 00:00:00 GMT 2016 britkehrer Flowering dogwood Cornus florida Full Fruiting 38.894530000000000 -77.503220000000000 70025
Wed Sep 21 00:00:00 GMT 2016 britkehrer Flowering dogwood Cornus florida Leaves Unfolding (Late) 38.894530000000000 -77.503220000000000 70026
Wed Sep 21 00:00:00 GMT 2016 britkehrer Flowering dogwood Cornus florida Leaves Changing Color (Early) 38.894530000000000 -77.503220000000000 70027
Wed Sep 21 00:00:00 GMT 2016 britkehrer Flowering dogwood Cornus florida Leaves Dropping (None) 38.894530000000000 -77.503220000000000 70028
Wed Sep 21 00:00:00 GMT 2016 britkehrer Flowering dogwood Cornus florida Flowers (None) 38.894530000000000 -77.503220000000000 70029
Wed Sep 21 00:00:00 GMT 2016 britkehrer Flowering dogwood Cornus florida Fruit (Middle) 38.894530000000000 -77.503220000000000 70030
Thu Sep 22 00:00:00 GMT 2016 Ltraci Flowering dogwood Cornus florida Leaves Unfolding (Late) 40.000000000000000 -100.000000000000000 70060
Thu Sep 22 00:00:00 GMT 2016 Ltraci Flowering dogwood Cornus florida Leaves Changing Color (Late) 40.000000000000000 -100.000000000000000 70061
Thu Sep 22 00:00:00 GMT 2016 Ltraci Flowering dogwood Cornus florida Leaves Dropping (Early) 40.000000000000000 -100.000000000000000 70062
Thu Sep 22 00:00:00 GMT 2016 Ltraci Flowering dogwood Cornus florida Flowers (Late) 40.000000000000000 -100.000000000000000 70063
Thu Sep 22 00:00:00 GMT 2016 Ltraci Flowering dogwood Cornus florida Fruit (Early) 40.000000000000000 -100.000000000000000 70064
Sun Sep 25 00:00:00 GMT 2016 westcreek Flowering dogwood Cornus florida Leaves Unfolding (Late) 41.386340000000000 -81.696396000000000 70087
Sun Sep 25 00:00:00 GMT 2016 westcreek Flowering dogwood Cornus florida Leaves Changing Color (Middle) 41.386340000000000 -81.696396000000000 70088
Sun Sep 25 00:00:00 GMT 2016 westcreek Flowering dogwood Cornus florida Leaves Dropping (None) 41.386340000000000 -81.696396000000000 70089
Sun Sep 25 00:00:00 GMT 2016 westcreek Flowering dogwood Cornus florida Flowers (None) 41.386340000000000 -81.696396000000000 70090
Sun Sep 25 00:00:00 GMT 2016 westcreek Flowering dogwood Cornus florida Fruit (Middle) 41.386340000000000 -81.696396000000000 70091
Fri Jul 01 00:00:00 GMT 2016 amdonovan10 Flowering dogwood Cornus florida Leaves Unfolding (Late) 38.890470000000000 -77.494600000000000 70536
Fri Jul 01 00:00:00 GMT 2016 amdonovan10 Flowering dogwood Cornus florida Leaves Changing Color (None) 38.890470000000000 -77.494600000000000 70537
Fri Jul 01 00:00:00 GMT 2016 amdonovan10 Flowering dogwood Cornus florida Leaves Dropping (None) 38.890470000000000 -77.494600000000000 70538
Fri Jul 01 00:00:00 GMT 2016 amdonovan10 Flowering dogwood Cornus florida Flowers (Late) 38.890470000000000 -77.494600000000000 70539
Fri Jul 01 00:00:00 GMT 2016 amdonovan10 Flowering dogwood Cornus florida Fruit (Middle) 38.890470000000000 -77.494600000000000 70540
Wed Oct 05 00:00:00 GMT 2016 AshevilleSchool_Asheville_School_Kehaya_reporter5 Flowering dogwood Cornus florida First Ripe Fruit 35.566279000000000 -82.621275000000000 70558
Sat Oct 08 00:00:00 GMT 2016 Megan1 Flowering dogwood Cornus florida Leaves Unfolding (Late) 28.042112000000000 -82.533432000000000 70601
Sat Oct 08 00:00:00 GMT 2016 Megan1 Flowering dogwood Cornus florida Leaves Changing Color (Early) 28.042112000000000 -82.533432000000000 70602
Sat Oct 08 00:00:00 GMT 2016 Megan1 Flowering dogwood Cornus florida Leaves Dropping (Early) 28.042112000000000 -82.533432000000000 70603
Sat Oct 08 00:00:00 GMT 2016 Megan1 Flowering dogwood Cornus florida Flowers (Late) 28.042112000000000 -82.533432000000000 70604
Sat Oct 08 00:00:00 GMT 2016 Megan1 Flowering dogwood Cornus florida Fruit (Early) 28.042112000000000 -82.533432000000000 70605
Thu Oct 06 00:00:00 GMT 2016 AshevilleSchool Flowering dogwood Cornus florida Bud Burst 35.567928000000000 -82.622123000000000 70627
Sun Oct 16 00:00:00 GMT 2016 Megan1 Flowering dogwood Cornus florida Leaves Unfolding (Late) 37.906275000000000 -90.699544000000000 70774
Sun Oct 16 00:00:00 GMT 2016 Megan1 Flowering dogwood Cornus florida Leaves Changing Color (Middle) 37.906275000000000 -90.699544000000000 70775
Sun Oct 16 00:00:00 GMT 2016 Megan1 Flowering dogwood Cornus florida Leaves Dropping (Early) 37.906275000000000 -90.699544000000000 70776
Sun Oct 16 00:00:00 GMT 2016 Megan1 Flowering dogwood Cornus florida Flowers (Late) 37.906275000000000 -90.699544000000000 70777
Sun Oct 16 00:00:00 GMT 2016 Megan1 Flowering dogwood Cornus florida Fruit (Middle) 37.906275000000000 -90.699544000000000 70778
Fri Sep 09 00:00:00 GMT 2016 bthomps1 Flowering dogwood Cornus florida Full Fruiting 38.195980000000000 -85.534280000000000 70820
Mon Oct 17 00:00:00 GMT 2016 bthomps1 Flowering dogwood Cornus florida 50% Color 38.195980000000000 -85.534280000000000 70821
Sat Oct 22 00:00:00 GMT 2016 AshevilleSchool Flowering dogwood Cornus florida 50% Color 35.567928000000000 -82.622123000000000 71065
Sat Oct 22 00:00:00 GMT 2016 AshevilleSchool Flowering dogwood Cornus florida 50% Leaf Fall 35.567928000000000 -82.622123000000000 71066
Tue Oct 25 00:00:00 GMT 2016 cilse Flowering dogwood Cornus florida 50% Color 35.206470000000000 -81.144820000000000 71124
Tue Oct 25 00:00:00 GMT 2016 cilse Flowering dogwood Cornus florida 50% Color 35.206470000000000 -81.144820000000000 71125
Tue Oct 25 00:00:00 GMT 2016 cilse Flowering dogwood Cornus florida 50% Color 35.206470000000000 -81.144820000000000 71126
Mon Oct 17 00:00:00 GMT 2016 rshuman Flowering dogwood Cornus florida Leaves Unfolding (None) 44.686760000000000 -73.719410000000000 71987
Mon Oct 17 00:00:00 GMT 2016 rshuman Flowering dogwood Cornus florida Leaves Changing Color (Middle) 44.686760000000000 -73.719410000000000 71988
Mon Oct 17 00:00:00 GMT 2016 rshuman Flowering dogwood Cornus florida Leaves Dropping (Middle) 44.686760000000000 -73.719410000000000 71989
Mon Oct 17 00:00:00 GMT 2016 rshuman Flowering dogwood Cornus florida Flowers (None) 44.686760000000000 -73.719410000000000 71990
Mon Oct 17 00:00:00 GMT 2016 rshuman Flowering dogwood Cornus florida Fruit (None) 44.686760000000000 -73.719410000000000 71991
Mon Oct 31 00:00:00 GMT 2016 rshuman Flowering dogwood Cornus florida Leaves Unfolding (Late) 44.709190000000000 -73.597910000000000 72020
Mon Oct 31 00:00:00 GMT 2016 rshuman Flowering dogwood Cornus florida Leaves Changing Color (Early) 44.709190000000000 -73.597910000000000 72021
Mon Oct 31 00:00:00 GMT 2016 rshuman Flowering dogwood Cornus florida Leaves Dropping (Early) 44.709190000000000 -73.597910000000000 72022
Mon Oct 31 00:00:00 GMT 2016 rshuman Flowering dogwood Cornus florida Flowers (None) 44.709190000000000 -73.597910000000000 72023
Mon Oct 31 00:00:00 GMT 2016 rshuman Flowering dogwood Cornus florida Fruit (None) 44.709190000000000 -73.597910000000000 72024
Thu Oct 27 00:00:00 GMT 2016 rshuman Flowering dogwood Cornus florida Leaves Unfolding (Late) 44.709190000000000 -73.597910000000000 72046
Thu Oct 27 00:00:00 GMT 2016 rshuman Flowering dogwood Cornus florida Leaves Changing Color (Early) 44.709190000000000 -73.597910000000000 72047
Thu Oct 27 00:00:00 GMT 2016 rshuman Flowering dogwood Cornus florida Leaves Dropping (Early) 44.709190000000000 -73.597910000000000 72048
Thu Oct 27 00:00:00 GMT 2016 rshuman Flowering dogwood Cornus florida Flowers (None) 44.709190000000000 -73.597910000000000 72049
Thu Oct 27 00:00:00 GMT 2016 rshuman Flowering dogwood Cornus florida Fruit (None) 44.709190000000000 -73.597910000000000 72050
Tue Nov 01 00:00:00 GMT 2016 MrHorambe Flowering dogwood Cornus florida Leaves Unfolding (Middle) 37.237000000000000 -79.440000000000000 72133
Tue Nov 01 00:00:00 GMT 2016 MrHorambe Flowering dogwood Cornus florida Leaves Changing Color (Late) 37.237000000000000 -79.440000000000000 72134
Tue Nov 01 00:00:00 GMT 2016 MrHorambe Flowering dogwood Cornus florida Leaves Dropping (Early) 37.237000000000000 -79.440000000000000 72135
Tue Nov 01 00:00:00 GMT 2016 MrHorambe Flowering dogwood Cornus florida Flowers (None) 37.237000000000000 -79.440000000000000 72136
Tue Nov 01 00:00:00 GMT 2016 MrHorambe Flowering dogwood Cornus florida Fruit (None) 37.237000000000000 -79.440000000000000 72137
Tue Nov 01 00:00:00 GMT 2016 MrHorambe Flowering dogwood Cornus florida Leaves Unfolding (Late) 37.237000000000000 -79.440000000000000 72156
Tue Nov 01 00:00:00 GMT 2016 MrHorambe Flowering dogwood Cornus florida Leaves Changing Color (Late) 37.237000000000000 -79.440000000000000 72157
Tue Nov 01 00:00:00 GMT 2016 MrHorambe Flowering dogwood Cornus florida Leaves Dropping (Early) 37.237000000000000 -79.440000000000000 72158
Tue Nov 01 00:00:00 GMT 2016 MrHorambe Flowering dogwood Cornus florida Flowers (None) 37.237000000000000 -79.440000000000000 72159
Tue Nov 01 00:00:00 GMT 2016 MrHorambe Flowering dogwood Cornus florida Fruit (None) 37.237000000000000 -79.440000000000000 72160
Thu Apr 14 00:00:00 GMT 2016 Audubon Flowering dogwood Cornus florida Bud Burst 40.545200000000000 -79.907400000000000 72208
Wed Apr 27 00:00:00 GMT 2016 Audubon Flowering dogwood Cornus florida First Leaf 40.545200000000000 -79.907400000000000 72209
Wed Apr 27 00:00:00 GMT 2016 Audubon Flowering dogwood Cornus florida All Leaves Unfolded 40.545200000000000 -79.907400000000000 72210
Wed Apr 27 00:00:00 GMT 2016 Audubon Flowering dogwood Cornus florida First Flower 40.545200000000000 -79.907400000000000 72211
Wed Apr 27 00:00:00 GMT 2016 Audubon Flowering dogwood Cornus florida Full Flower 40.545200000000000 -79.907400000000000 72212
Thu Sep 01 00:00:00 GMT 2016 Audubon Flowering dogwood Cornus florida First Ripe Fruit 40.545200000000000 -79.907400000000000 72213
Thu Sep 08 00:00:00 GMT 2016 Audubon Flowering dogwood Cornus florida Full Fruiting 40.545200000000000 -79.907400000000000 72214
Tue Oct 18 00:00:00 GMT 2016 Audubon Flowering dogwood Cornus florida 50% Color 40.545200000000000 -79.907400000000000 72215
Thu Oct 27 00:00:00 GMT 2016 Audubon Flowering dogwood Cornus florida 50% Leaf Fall 40.545200000000000 -79.907400000000000 72216
Fri Nov 04 00:00:00 GMT 2016 MrHorambe Flowering dogwood Cornus florida Leaves Unfolding (Late) 37.237000000000000 -79.440000000000000 72542
Fri Nov 04 00:00:00 GMT 2016 MrHorambe Flowering dogwood Cornus florida Leaves Changing Color (Late) 37.237000000000000 -79.440000000000000 72543
Fri Nov 04 00:00:00 GMT 2016 MrHorambe Flowering dogwood Cornus florida Leaves Dropping (Late) 37.237000000000000 -79.440000000000000 72544
Fri Nov 04 00:00:00 GMT 2016 MrHorambe Flowering dogwood Cornus florida Flowers (None) 37.237000000000000 -79.440000000000000 72545
Fri Nov 04 00:00:00 GMT 2016 MrHorambe Flowering dogwood Cornus florida Fruit (Early) 37.237000000000000 -79.440000000000000 72546
Wed Nov 02 00:00:00 GMT 2016 bthomps1 Flowering dogwood Cornus florida 50% Leaf Fall 38.195980000000000 -85.534280000000000 72644
Tue Nov 08 00:00:00 GMT 2016 cilse Flowering dogwood Cornus florida 50% Leaf Fall 35.206470000000000 -81.144820000000000 72736
Tue Oct 11 00:00:00 GMT 2016 valeriehunt214 Flowering dogwood Cornus florida 50% Color 35.186650000000000 -84.851640000000000 73004
Tue Oct 25 00:00:00 GMT 2016 esalesin Flowering dogwood Cornus florida 50% Color 39.165330000000000 -86.526390000000000 73326
Fri Nov 11 00:00:00 GMT 2016 esalesin Flowering dogwood Cornus florida 50% Leaf Fall 39.165330000000000 -86.526390000000000 73327
Tue Nov 01 00:00:00 GMT 2016 rtessaro Flowering dogwood Cornus florida 50% Color 39.175087000000000 -86.513343000000000 73332
Tue Nov 01 00:00:00 GMT 2016 rtessaro Flowering dogwood Cornus florida 50% Leaf Fall 39.175087000000000 -86.513343000000000 73333
Thu Oct 27 00:00:00 GMT 2016 bkanoy_MS_Gail_Walker_Garden_reporter24 Flowering dogwood Cornus florida 50% Color 35.968516000000000 -78.944390000000000 73702
Thu Nov 17 00:00:00 GMT 2016 bkanoy_MS_Gail_Walker_Garden_reporter24 Flowering dogwood Cornus florida 50% Leaf Fall 35.968516000000000 -78.944390000000000 73703
Mon Nov 21 00:00:00 GMT 2016 bkanoy_MS_Gail_Walker_Garden_reporter4 Flowering dogwood Cornus florida Bud Burst 35.968516000000000 -78.944390000000000 73822
Mon Nov 21 00:00:00 GMT 2016 bkanoy_MS_Gail_Walker_Garden_reporter4 Flowering dogwood Cornus florida 50% Leaf Fall 35.968516000000000 -78.944390000000000 73823
Mon Sep 26 00:00:00 GMT 2016 pdelmoral1 Flowering dogwood Cornus florida Leaves Unfolding (None) 40.925190000000000 -73.787640000000000 73828
Mon Sep 26 00:00:00 GMT 2016 pdelmoral1 Flowering dogwood Cornus florida Leaves Changing Color (Early) 40.925190000000000 -73.787640000000000 73829
Mon Sep 26 00:00:00 GMT 2016 pdelmoral1 Flowering dogwood Cornus florida Leaves Dropping (None) 40.925190000000000 -73.787640000000000 73830
Mon Sep 26 00:00:00 GMT 2016 pdelmoral1 Flowering dogwood Cornus florida Flowers (None) 40.925190000000000 -73.787640000000000 73831
Mon Sep 26 00:00:00 GMT 2016 pdelmoral1 Flowering dogwood Cornus florida Fruit (Middle) 40.925190000000000 -73.787640000000000 73832
Mon Nov 14 00:00:00 GMT 2016 pdelmoral1 Flowering dogwood Cornus florida Leaves Unfolding (None) 40.925190000000000 -73.787640000000000 73833
Mon Nov 14 00:00:00 GMT 2016 pdelmoral1 Flowering dogwood Cornus florida Leaves Changing Color (Middle) 40.925190000000000 -73.787640000000000 73834
Mon Nov 14 00:00:00 GMT 2016 pdelmoral1 Flowering dogwood Cornus florida Leaves Dropping (Middle) 40.925190000000000 -73.787640000000000 73835
Mon Nov 14 00:00:00 GMT 2016 pdelmoral1 Flowering dogwood Cornus florida Flowers (None) 40.925190000000000 -73.787640000000000 73836
Mon Nov 14 00:00:00 GMT 2016 pdelmoral1 Flowering dogwood Cornus florida Fruit (None) 40.925190000000000 -73.787640000000000 73837
Mon Nov 28 00:00:00 GMT 2016 pdelmoral1 Flowering dogwood Cornus florida Leaves Unfolding (None) 40.925190000000000 -73.787640000000000 74107
Mon Nov 28 00:00:00 GMT 2016 pdelmoral1 Flowering dogwood Cornus florida Leaves Changing Color (Late) 40.925190000000000 -73.787640000000000 74108
Mon Nov 28 00:00:00 GMT 2016 pdelmoral1 Flowering dogwood Cornus florida Leaves Dropping (Middle) 40.925190000000000 -73.787640000000000 74109
Mon Nov 28 00:00:00 GMT 2016 pdelmoral1 Flowering dogwood Cornus florida Flowers (None) 40.925190000000000 -73.787640000000000 74110
Mon Nov 28 00:00:00 GMT 2016 pdelmoral1 Flowering dogwood Cornus florida Fruit (None) 40.925190000000000 -73.787640000000000 74111
Tue Oct 11 00:00:00 GMT 2016 kirsten Flowering dogwood Cornus florida 50% Color 41.801850000000000 -72.921570000000000 74192
Fri Nov 11 00:00:00 GMT 2016 kirsten Flowering dogwood Cornus florida 50% Leaf Fall 41.801850000000000 -72.921570000000000 74193
Fri Mar 11 00:00:00 GMT 2016 Trailblazers Flowering dogwood Cornus florida Leaves Unfolding (Early) 36.193900000000000 -80.254040000000000 74452
Fri Mar 11 00:00:00 GMT 2016 Trailblazers Flowering dogwood Cornus florida Leaves Changing Color (None) 36.193900000000000 -80.254040000000000 74453
Fri Mar 11 00:00:00 GMT 2016 Trailblazers Flowering dogwood Cornus florida Leaves Dropping (None) 36.193900000000000 -80.254040000000000 74454
Fri Mar 11 00:00:00 GMT 2016 Trailblazers Flowering dogwood Cornus florida Flowers (None) 36.193900000000000 -80.254040000000000 74455
Fri Mar 11 00:00:00 GMT 2016 Trailblazers Flowering dogwood Cornus florida Fruit (None) 36.193900000000000 -80.254040000000000 74456
Thu Jan 26 00:00:00 GMT 2017 JDarling Flowering dogwood Cornus florida Leaves Unfolding (None) 35.983498000000000 -95.786641000000000 74578
Thu Jan 26 00:00:00 GMT 2017 JDarling Flowering dogwood Cornus florida Leaves Changing Color (None) 35.983498000000000 -95.786641000000000 74579
Thu Jan 26 00:00:00 GMT 2017 JDarling Flowering dogwood Cornus florida Leaves Dropping (None) 35.983498000000000 -95.786641000000000 74580
Thu Jan 26 00:00:00 GMT 2017 JDarling Flowering dogwood Cornus florida Flowers (None) 35.983498000000000 -95.786641000000000 74581
Thu Jan 26 00:00:00 GMT 2017 JDarling Flowering dogwood Cornus florida Fruit (None) 35.983498000000000 -95.786641000000000 74582
Tue Jan 31 00:00:00 GMT 2017 bkanoy_MS_Gail_Walker_Garden_reporter4 Flowering dogwood Cornus florida Leaves Unfolding (None) 35.969120000000000 -78.945410000000000 74599
Tue Jan 31 00:00:00 GMT 2017 bkanoy_MS_Gail_Walker_Garden_reporter4 Flowering dogwood Cornus florida Leaves Changing Color (None) 35.969120000000000 -78.945410000000000 74600
Tue Jan 31 00:00:00 GMT 2017 bkanoy_MS_Gail_Walker_Garden_reporter4 Flowering dogwood Cornus florida Leaves Dropping (None) 35.969120000000000 -78.945410000000000 74601
Tue Jan 31 00:00:00 GMT 2017 bkanoy_MS_Gail_Walker_Garden_reporter4 Flowering dogwood Cornus florida Flowers (None) 35.969120000000000 -78.945410000000000 74602
Tue Jan 31 00:00:00 GMT 2017 bkanoy_MS_Gail_Walker_Garden_reporter4 Flowering dogwood Cornus florida Fruit (None) 35.969120000000000 -78.945410000000000 74603
Wed May 18 00:00:00 GMT 2016 bkanoy_MS_Gail_Walker_Garden_reporter24 Flowering dogwood Cornus florida First Flower 35.968516000000000 -78.944390000000000 74691
Thu Aug 11 00:00:00 GMT 2016 bkanoy_MS_Gail_Walker_Garden_reporter24 Flowering dogwood Cornus florida Full Flower 35.968516000000000 -78.944390000000000 74692
Sat Oct 01 00:00:00 GMT 2016 bkanoy_MS_Gail_Walker_Garden_reporter24 Flowering dogwood Cornus florida First Ripe Fruit 35.968516000000000 -78.944390000000000 74693
Fri Nov 18 00:00:00 GMT 2016 bkanoy_MS_Gail_Walker_Garden_reporter24 Flowering dogwood Cornus florida Full Fruiting 35.968516000000000 -78.944390000000000 74694
Fri Dec 09 00:00:00 GMT 2016 bkanoy_MS_Gail_Walker_Garden_reporter24 Flowering dogwood Cornus florida 50% Color 35.968516000000000 -78.944390000000000 74695
Thu Jan 12 00:00:00 GMT 2017 bkanoy_MS_Gail_Walker_Garden_reporter24 Flowering dogwood Cornus florida 50% Leaf Fall 35.968516000000000 -78.944390000000000 74696
Tue Feb 21 00:00:00 GMT 2017 sc861162 Flowering dogwood Cornus florida Leaves Unfolding (Early) 35.917950000000000 -81.190230000000000 75033
Tue Feb 21 00:00:00 GMT 2017 sc861162 Flowering dogwood Cornus florida Leaves Changing Color (None) 35.917950000000000 -81.190230000000000 75034
Tue Feb 21 00:00:00 GMT 2017 sc861162 Flowering dogwood Cornus florida Leaves Dropping (None) 35.917950000000000 -81.190230000000000 75035
Tue Feb 21 00:00:00 GMT 2017 sc861162 Flowering dogwood Cornus florida Flowers (None) 35.917950000000000 -81.190230000000000 75036
Tue Feb 21 00:00:00 GMT 2017 sc861162 Flowering dogwood Cornus florida Fruit (None) 35.917950000000000 -81.190230000000000 75037
Mon Feb 27 00:00:00 GMT 2017 cilse Flowering dogwood Cornus florida Bud Burst 35.206470000000000 -81.144820000000000 75103
Wed Feb 22 00:00:00 GMT 2017 JStonewood_AHS_reporter3 Flowering dogwood Cornus florida Bud Burst 42.191230000000000 -122.700380000000000 75156
Wed Mar 15 00:00:00 GMT 2017 APES_project Flowering dogwood Cornus florida Leaves Unfolding (None) 36.018665000000000 -78.919941000000000 75481
Wed Mar 15 00:00:00 GMT 2017 APES_project Flowering dogwood Cornus florida Leaves Changing Color (None) 36.018665000000000 -78.919941000000000 75482
Wed Mar 15 00:00:00 GMT 2017 APES_project Flowering dogwood Cornus florida Leaves Dropping (None) 36.018665000000000 -78.919941000000000 75483
Wed Mar 15 00:00:00 GMT 2017 APES_project Flowering dogwood Cornus florida Flowers (Middle) 36.018665000000000 -78.919941000000000 75484
Wed Mar 15 00:00:00 GMT 2017 APES_project Flowering dogwood Cornus florida Fruit (None) 36.018665000000000 -78.919941000000000 75485
Wed Mar 15 00:00:00 GMT 2017 APES_project Flowering dogwood Cornus florida Leaves Unfolding (None) 36.018669000000000 -78.919949000000000 75486
Wed Mar 15 00:00:00 GMT 2017 APES_project Flowering dogwood Cornus florida Leaves Changing Color (None) 36.018669000000000 -78.919949000000000 75487
Wed Mar 15 00:00:00 GMT 2017 APES_project Flowering dogwood Cornus florida Leaves Dropping (Late) 36.018669000000000 -78.919949000000000 75488
Wed Mar 15 00:00:00 GMT 2017 APES_project Flowering dogwood Cornus florida Flowers (Middle) 36.018669000000000 -78.919949000000000 75489
Wed Mar 15 00:00:00 GMT 2017 APES_project Flowering dogwood Cornus florida Fruit (None) 36.018669000000000 -78.919949000000000 75490
Thu Mar 16 00:00:00 GMT 2017 Treesmith Flowering dogwood Cornus florida Leaves Unfolding (None) 36.019755000000000 -78.919288000000000 75577
Thu Mar 16 00:00:00 GMT 2017 Treesmith Flowering dogwood Cornus florida Leaves Changing Color (None) 36.019755000000000 -78.919288000000000 75578
Thu Mar 16 00:00:00 GMT 2017 Treesmith Flowering dogwood Cornus florida Leaves Dropping (None) 36.019755000000000 -78.919288000000000 75579
Thu Mar 16 00:00:00 GMT 2017 Treesmith Flowering dogwood Cornus florida Flowers (None) 36.019755000000000 -78.919288000000000 75580
Thu Mar 16 00:00:00 GMT 2017 Treesmith Flowering dogwood Cornus florida Fruit (None) 36.019755000000000 -78.919288000000000 75581
Mon Mar 20 00:00:00 GMT 2017 desireehuff Flowering dogwood Cornus florida Leaves Unfolding (None) 37.259620000000000 -85.881670000000000 75834
Mon Mar 20 00:00:00 GMT 2017 desireehuff Flowering dogwood Cornus florida Leaves Changing Color (None) 37.259620000000000 -85.881670000000000 75835
Mon Mar 20 00:00:00 GMT 2017 desireehuff Flowering dogwood Cornus florida Leaves Dropping (Late) 37.259620000000000 -85.881670000000000 75836
Mon Mar 20 00:00:00 GMT 2017 desireehuff Flowering dogwood Cornus florida Flowers (None) 37.259620000000000 -85.881670000000000 75837
Mon Mar 20 00:00:00 GMT 2017 desireehuff Flowering dogwood Cornus florida Fruit (None) 37.259620000000000 -85.881670000000000 75838
Mon Mar 20 00:00:00 GMT 2017 kalebtrent Flowering dogwood Cornus florida Leaves Unfolding (None) 37.272280000000000 -85.891080000000000 75854
Mon Mar 20 00:00:00 GMT 2017 kalebtrent Flowering dogwood Cornus florida Leaves Changing Color (None) 37.272280000000000 -85.891080000000000 75855
Mon Mar 20 00:00:00 GMT 2017 kalebtrent Flowering dogwood Cornus florida Leaves Dropping (Late) 37.272280000000000 -85.891080000000000 75856
Mon Mar 20 00:00:00 GMT 2017 kalebtrent Flowering dogwood Cornus florida Flowers (None) 37.272280000000000 -85.891080000000000 75857
Mon Mar 20 00:00:00 GMT 2017 kalebtrent Flowering dogwood Cornus florida Fruit (None) 37.272280000000000 -85.891080000000000 75858
Mon Mar 20 00:00:00 GMT 2017 CHatch22 Flowering dogwood Cornus florida Leaves Unfolding (Early) 37.259620000000000 -85.881670000000000 75859
Mon Mar 20 00:00:00 GMT 2017 CHatch22 Flowering dogwood Cornus florida Leaves Changing Color (None) 37.259620000000000 -85.881670000000000 75860
Mon Mar 20 00:00:00 GMT 2017 CHatch22 Flowering dogwood Cornus florida Leaves Dropping (None) 37.259620000000000 -85.881670000000000 75861
Mon Mar 20 00:00:00 GMT 2017 CHatch22 Flowering dogwood Cornus florida Flowers (None) 37.259620000000000 -85.881670000000000 75862
Mon Mar 20 00:00:00 GMT 2017 CHatch22 Flowering dogwood Cornus florida Fruit (None) 37.259620000000000 -85.881670000000000 75863
Mon Mar 20 00:00:00 GMT 2017 lilyjean73 Flowering dogwood Cornus florida Leaves Unfolding (None) 37.292310000000000 -85.950890000000000 75884
Mon Mar 20 00:00:00 GMT 2017 lilyjean73 Flowering dogwood Cornus florida Leaves Changing Color (None) 37.292310000000000 -85.950890000000000 75885
Mon Mar 20 00:00:00 GMT 2017 lilyjean73 Flowering dogwood Cornus florida Leaves Dropping (None) 37.292310000000000 -85.950890000000000 75886
Mon Mar 20 00:00:00 GMT 2017 lilyjean73 Flowering dogwood Cornus florida Flowers (None) 37.292310000000000 -85.950890000000000 75887
Mon Mar 20 00:00:00 GMT 2017 lilyjean73 Flowering dogwood Cornus florida Fruit (None) 37.292310000000000 -85.950890000000000 75888
Mon Mar 20 00:00:00 GMT 2017 swashburn57 Flowering dogwood Cornus florida Bud Burst 40.506360000000000 -79.894670000000000 75998
Wed Mar 22 00:00:00 GMT 2017 burnsky Flowering dogwood Cornus florida Leaves Unfolding (Middle) 34.315290000000000 -92.294880000000000 76181
Wed Mar 22 00:00:00 GMT 2017 burnsky Flowering dogwood Cornus florida Leaves Changing Color (None) 34.315290000000000 -92.294880000000000 76182
Wed Mar 22 00:00:00 GMT 2017 burnsky Flowering dogwood Cornus florida Leaves Dropping (None) 34.315290000000000 -92.294880000000000 76183
Wed Mar 22 00:00:00 GMT 2017 burnsky Flowering dogwood Cornus florida Flowers (Middle) 34.315290000000000 -92.294880000000000 76184
Wed Mar 22 00:00:00 GMT 2017 burnsky Flowering dogwood Cornus florida Fruit (None) 34.315290000000000 -92.294880000000000 76185
Wed Mar 22 00:00:00 GMT 2017 JamesKraatz Flowering dogwood Cornus florida Bud Burst 42.251352000000000 -85.603173000000000 76187
Fri Mar 24 00:00:00 GMT 2017 ggriffin411 Flowering dogwood Cornus florida Leaves Unfolding (None) 41.700710000000000 -72.694570000000000 76223
Fri Mar 24 00:00:00 GMT 2017 ggriffin411 Flowering dogwood Cornus florida Leaves Changing Color (None) 41.700710000000000 -72.694570000000000 76224
Fri Mar 24 00:00:00 GMT 2017 ggriffin411 Flowering dogwood Cornus florida Leaves Dropping (None) 41.700710000000000 -72.694570000000000 76225
Fri Mar 24 00:00:00 GMT 2017 ggriffin411 Flowering dogwood Cornus florida Flowers (None) 41.700710000000000 -72.694570000000000 76226
Fri Mar 24 00:00:00 GMT 2017 ggriffin411 Flowering dogwood Cornus florida Fruit (None) 41.700710000000000 -72.694570000000000 76227
Fri Mar 24 00:00:00 GMT 2017 desireehuff Flowering dogwood Cornus florida Leaves Unfolding (None) 37.259680000000000 -85.881480000000000 76247
Fri Mar 24 00:00:00 GMT 2017 desireehuff Flowering dogwood Cornus florida Leaves Changing Color (None) 37.259680000000000 -85.881480000000000 76248
Fri Mar 24 00:00:00 GMT 2017 desireehuff Flowering dogwood Cornus florida Leaves Dropping (Late) 37.259680000000000 -85.881480000000000 76249
Fri Mar 24 00:00:00 GMT 2017 desireehuff Flowering dogwood Cornus florida Flowers (Early) 37.259680000000000 -85.881480000000000 76250
Fri Mar 24 00:00:00 GMT 2017 desireehuff Flowering dogwood Cornus florida Fruit (None) 37.259680000000000 -85.881480000000000 76251
Fri Mar 24 00:00:00 GMT 2017 CHatch22 Flowering dogwood Cornus florida Leaves Unfolding (Early) 37.260904000000000 -85.877552000000000 76254
Fri Mar 24 00:00:00 GMT 2017 CHatch22 Flowering dogwood Cornus florida Leaves Changing Color (None) 37.260904000000000 -85.877552000000000 76255
Fri Mar 24 00:00:00 GMT 2017 CHatch22 Flowering dogwood Cornus florida Leaves Dropping (None) 37.260904000000000 -85.877552000000000 76256
Fri Mar 24 00:00:00 GMT 2017 CHatch22 Flowering dogwood Cornus florida Flowers (None) 37.260904000000000 -85.877552000000000 76257
Fri Mar 24 00:00:00 GMT 2017 CHatch22 Flowering dogwood Cornus florida Fruit (None) 37.260904000000000 -85.877552000000000 76258
Fri Mar 24 00:00:00 GMT 2017 lilyjean73 Flowering dogwood Cornus florida Leaves Unfolding (Early) 40.000000000000000 -100.000000000000000 76318
Fri Mar 24 00:00:00 GMT 2017 lilyjean73 Flowering dogwood Cornus florida Leaves Changing Color (None) 40.000000000000000 -100.000000000000000 76319
Fri Mar 24 00:00:00 GMT 2017 lilyjean73 Flowering dogwood Cornus florida Leaves Dropping (None) 40.000000000000000 -100.000000000000000 76320
Fri Mar 24 00:00:00 GMT 2017 lilyjean73 Flowering dogwood Cornus florida Flowers (None) 40.000000000000000 -100.000000000000000 76321
Fri Mar 24 00:00:00 GMT 2017 lilyjean73 Flowering dogwood Cornus florida Fruit (None) 40.000000000000000 -100.000000000000000 76322
Fri Mar 24 00:00:00 GMT 2017 kalebtrent Flowering dogwood Cornus florida Leaves Unfolding (Early) 40.000000000000000 -100.000000000000000 76323
Fri Mar 24 00:00:00 GMT 2017 kalebtrent Flowering dogwood Cornus florida Leaves Changing Color (None) 40.000000000000000 -100.000000000000000 76324
Fri Mar 24 00:00:00 GMT 2017 kalebtrent Flowering dogwood Cornus florida Leaves Dropping (Late) 40.000000000000000 -100.000000000000000 76325
Fri Mar 24 00:00:00 GMT 2017 kalebtrent Flowering dogwood Cornus florida Flowers (Early) 40.000000000000000 -100.000000000000000 76326
Fri Mar 24 00:00:00 GMT 2017 kalebtrent Flowering dogwood Cornus florida Fruit (None) 40.000000000000000 -100.000000000000000 76327
Fri Mar 24 00:00:00 GMT 2017 kenziebrooke2017 Flowering dogwood Cornus florida Leaves Unfolding (None) 37.259620000000000 -85.881670000000000 76333
Fri Mar 24 00:00:00 GMT 2017 kenziebrooke2017 Flowering dogwood Cornus florida Leaves Changing Color (None) 37.259620000000000 -85.881670000000000 76334
Fri Mar 24 00:00:00 GMT 2017 kenziebrooke2017 Flowering dogwood Cornus florida Leaves Dropping (None) 37.259620000000000 -85.881670000000000 76335
Fri Mar 24 00:00:00 GMT 2017 kenziebrooke2017 Flowering dogwood Cornus florida Flowers (None) 37.259620000000000 -85.881670000000000 76336
Fri Mar 24 00:00:00 GMT 2017 kenziebrooke2017 Flowering dogwood Cornus florida Fruit (None) 37.259620000000000 -85.881670000000000 76337
Sat Mar 25 00:00:00 GMT 2017 kenziebrooke2017 Flowering dogwood Cornus florida Leaves Unfolding (None) 37.259620000000000 -85.881670000000000 76380
Sat Mar 25 00:00:00 GMT 2017 kenziebrooke2017 Flowering dogwood Cornus florida Leaves Changing Color (None) 37.259620000000000 -85.881670000000000 76381
Sat Mar 25 00:00:00 GMT 2017 kenziebrooke2017 Flowering dogwood Cornus florida Leaves Dropping (None) 37.259620000000000 -85.881670000000000 76382
Sat Mar 25 00:00:00 GMT 2017 kenziebrooke2017 Flowering dogwood Cornus florida Flowers (None) 37.259620000000000 -85.881670000000000 76383
Sat Mar 25 00:00:00 GMT 2017 kenziebrooke2017 Flowering dogwood Cornus florida Fruit (None) 37.259620000000000 -85.881670000000000 76384
Sat Mar 25 00:00:00 GMT 2017 CAS-G Flowering dogwood Cornus florida Leaves Unfolding (None) 41.681890000000000 -72.599910000000000 76388
Sat Mar 25 00:00:00 GMT 2017 CAS-G Flowering dogwood Cornus florida Leaves Changing Color (None) 41.681890000000000 -72.599910000000000 76389
Sat Mar 25 00:00:00 GMT 2017 CAS-G Flowering dogwood Cornus florida Leaves Dropping (None) 41.681890000000000 -72.599910000000000 76390
Sat Mar 25 00:00:00 GMT 2017 CAS-G Flowering dogwood Cornus florida Flowers (None) 41.681890000000000 -72.599910000000000 76391
Sat Mar 25 00:00:00 GMT 2017 CAS-G Flowering dogwood Cornus florida Fruit (None) 41.681890000000000 -72.599910000000000 76392
Tue Mar 21 00:00:00 GMT 2017 cilse Flowering dogwood Cornus florida First Leaf 35.206470000000000 -81.144820000000000 76449
Tue Mar 28 00:00:00 GMT 2017 cilse Flowering dogwood Cornus florida All Leaves Unfolded 35.206470000000000 -81.144820000000000 76450
Tue Mar 28 00:00:00 GMT 2017 cilse Flowering dogwood Cornus florida First Flower 35.206470000000000 -81.144820000000000 76451
Tue Mar 28 00:00:00 GMT 2017 dmoxley Flowering dogwood Cornus florida Leaves Unfolding (Early) 39.178618000000000 -86.521652000000000 76471
Tue Mar 28 00:00:00 GMT 2017 dmoxley Flowering dogwood Cornus florida Leaves Changing Color (None) 39.178618000000000 -86.521652000000000 76472
Tue Mar 28 00:00:00 GMT 2017 dmoxley Flowering dogwood Cornus florida Leaves Dropping (None) 39.178618000000000 -86.521652000000000 76473
Tue Mar 28 00:00:00 GMT 2017 dmoxley Flowering dogwood Cornus florida Flowers (None) 39.178618000000000 -86.521652000000000 76474
Tue Mar 28 00:00:00 GMT 2017 dmoxley Flowering dogwood Cornus florida Fruit (None) 39.178618000000000 -86.521652000000000 76475
Thu Mar 30 00:00:00 GMT 2017 bkanoy_MS_Gail_Walker_Garden_reporter4 Flowering dogwood Cornus florida Bud Burst 35.968516000000000 -78.944390000000000 76499
Thu Mar 30 00:00:00 GMT 2017 bkanoy_MS_Gail_Walker_Garden_reporter4 Flowering dogwood Cornus florida All Leaves Unfolded 35.968516000000000 -78.944390000000000 76500
Thu Mar 30 00:00:00 GMT 2017 wheless18e Flowering dogwood Cornus florida Leaves Unfolding (Early) 35.905700000000000 -75.673580000000000 76513
Thu Mar 30 00:00:00 GMT 2017 wheless18e Flowering dogwood Cornus florida Leaves Changing Color (Middle) 35.905700000000000 -75.673580000000000 76514
Thu Mar 30 00:00:00 GMT 2017 wheless18e Flowering dogwood Cornus florida Leaves Dropping (Early) 35.905700000000000 -75.673580000000000 76515
Thu Mar 30 00:00:00 GMT 2017 wheless18e Flowering dogwood Cornus florida Flowers (Middle) 35.905700000000000 -75.673580000000000 76516
Thu Mar 30 00:00:00 GMT 2017 wheless18e Flowering dogwood Cornus florida Fruit (None) 35.905700000000000 -75.673580000000000 76517
Fri Mar 31 00:00:00 GMT 2017 bthomps1 Flowering dogwood Cornus florida Bud Burst 38.195980000000000 -85.534280000000000 76619
Fri Mar 31 00:00:00 GMT 2017 csibilia Flowering dogwood Cornus florida Leaves Unfolding (Early) 37.573806000000000 -77.540029000000000 76705
Fri Mar 31 00:00:00 GMT 2017 csibilia Flowering dogwood Cornus florida Leaves Changing Color (None) 37.573806000000000 -77.540029000000000 76706
Fri Mar 31 00:00:00 GMT 2017 csibilia Flowering dogwood Cornus florida Leaves Dropping (None) 37.573806000000000 -77.540029000000000 76707
Fri Mar 31 00:00:00 GMT 2017 csibilia Flowering dogwood Cornus florida Flowers (Early) 37.573806000000000 -77.540029000000000 76708
Fri Mar 31 00:00:00 GMT 2017 csibilia Flowering dogwood Cornus florida Fruit (None) 37.573806000000000 -77.540029000000000 76709
Tue Mar 28 00:00:00 GMT 2017 Scutacarus1964 Flowering dogwood Cornus florida Bud Burst 39.393920000000000 -101.063520000000000 76723
Sat Apr 01 00:00:00 GMT 2017 Scutacarus1964 Flowering dogwood Cornus florida First Leaf 39.393920000000000 -101.063520000000000 76724
Thu Feb 16 00:00:00 GMT 2017 smwhite1998 Flowering dogwood Cornus florida Bud Burst 39.165330000000000 -86.526390000000000 76766
Sun Feb 26 00:00:00 GMT 2017 smwhite1998 Flowering dogwood Cornus florida Bud Burst 39.165330000000000 -86.526390000000000 76769
Thu Mar 30 00:00:00 GMT 2017 smwhite1998 Flowering dogwood Cornus florida First Flower 39.165330000000000 -86.526390000000000 76770
Fri Mar 10 00:00:00 GMT 2017 naeilar Flowering dogwood Cornus florida Bud Burst 39.164925000000000 -86.522485000000000 76903
Fri Mar 24 00:00:00 GMT 2017 naeilar Flowering dogwood Cornus florida First Leaf 39.164925000000000 -86.522485000000000 76904
Wed Apr 05 00:00:00 GMT 2017 naeilar Flowering dogwood Cornus florida First Flower 39.164925000000000 -86.522485000000000 76905
Wed Apr 05 00:00:00 GMT 2017 mwinkler Flowering dogwood Cornus florida Leaves Unfolding (Middle) 37.578063590000000 -77.539942540000000 76964
Wed Apr 05 00:00:00 GMT 2017 mwinkler Flowering dogwood Cornus florida Leaves Changing Color (None) 37.578063590000000 -77.539942540000000 76965
Wed Apr 05 00:00:00 GMT 2017 mwinkler Flowering dogwood Cornus florida Leaves Dropping (None) 37.578063590000000 -77.539942540000000 76966
Wed Apr 05 00:00:00 GMT 2017 mwinkler Flowering dogwood Cornus florida Flowers (Middle) 37.578063590000000 -77.539942540000000 76967
Wed Apr 05 00:00:00 GMT 2017 mwinkler Flowering dogwood Cornus florida Fruit (None) 37.578063590000000 -77.539942540000000 76968
Fri Mar 24 00:00:00 GMT 2017 paigedougherty Flowering dogwood Cornus florida Bud Burst 39.171265000000000 -86.509282000000000 77006
Sat Apr 01 00:00:00 GMT 2017 paigedougherty Flowering dogwood Cornus florida First Leaf 39.171265000000000 -86.509282000000000 77007
Fri Feb 03 00:00:00 GMT 2017 paigedougherty Flowering dogwood Cornus florida Bud Burst 39.165520000000000 -86.517331000000000 77018
Sat Apr 01 00:00:00 GMT 2017 paigedougherty Flowering dogwood Cornus florida First Leaf 39.165520000000000 -86.517331000000000 77019
Thu Apr 06 00:00:00 GMT 2017 saraplotkin Flowering dogwood Cornus florida Bud Burst 39.175636000000000 -86.520934000000000 77020
Thu Mar 30 00:00:00 GMT 2017 saraplotkin Flowering dogwood Cornus florida Bud Burst 39.175932000000000 -86.519177000000000 77022
Tue Apr 04 00:00:00 GMT 2017 saraplotkin Flowering dogwood Cornus florida First Leaf 39.175932000000000 -86.519177000000000 77023
Mon Feb 27 00:00:00 GMT 2017 stczarne Flowering dogwood Cornus florida Bud Burst 39.167111000000000 -86.521296000000000 77070
Fri Mar 03 00:00:00 GMT 2017 stczarne Flowering dogwood Cornus florida First Flower 39.167111000000000 -86.521296000000000 77071
Wed Feb 15 00:00:00 GMT 2017 jcarbuck Flowering dogwood Cornus florida Bud Burst 39.184910000000000 -86.517450000000000 77088
Wed Mar 01 00:00:00 GMT 2017 jcarbuck Flowering dogwood Cornus florida First Leaf 39.184910000000000 -86.517450000000000 77089
Wed Mar 22 00:00:00 GMT 2017 jcarbuck Flowering dogwood Cornus florida All Leaves Unfolded 39.184910000000000 -86.517450000000000 77090
Wed Mar 22 00:00:00 GMT 2017 jcarbuck Flowering dogwood Cornus florida First Flower 39.184910000000000 -86.517450000000000 77091
Wed Feb 15 00:00:00 GMT 2017 jcarbuck Flowering dogwood Cornus florida Bud Burst 39.184910000000000 -86.517450000000000 77093
Wed Feb 01 00:00:00 GMT 2017 jcarbuck Flowering dogwood Cornus florida Bud Burst 39.184910000000000 -86.517450000000000 77094
Wed Mar 01 00:00:00 GMT 2017 jcarbuck Flowering dogwood Cornus florida First Leaf 39.184910000000000 -86.517450000000000 77095
Wed Mar 22 00:00:00 GMT 2017 jcarbuck Flowering dogwood Cornus florida All Leaves Unfolded 39.184910000000000 -86.517450000000000 77096
Wed Mar 22 00:00:00 GMT 2017 jcarbuck Flowering dogwood Cornus florida First Flower 39.184910000000000 -86.517450000000000 77097
Thu Feb 23 00:00:00 GMT 2017 silverygold9 Flowering dogwood Cornus florida Bud Burst 39.167060000000000 -86.512620000000000 77113
Tue Mar 28 00:00:00 GMT 2017 silverygold9 Flowering dogwood Cornus florida First Leaf 39.167060000000000 -86.512620000000000 77114
Thu Feb 23 00:00:00 GMT 2017 silverygold9 Flowering dogwood Cornus florida Bud Burst 39.167060000000000 -86.512620000000000 77115
Thu Feb 23 00:00:00 GMT 2017 racheltheresa Flowering dogwood Cornus florida Bud Burst 39.170292000000000 -86.520250000000000 77203
Sat Apr 08 00:00:00 GMT 2017 malayden Flowering dogwood Cornus florida Leaves Unfolding (Late) 40.000000000000000 -100.000000000000000 77240
Sat Apr 08 00:00:00 GMT 2017 malayden Flowering dogwood Cornus florida Leaves Changing Color (Middle) 40.000000000000000 -100.000000000000000 77241
Sat Apr 08 00:00:00 GMT 2017 malayden Flowering dogwood Cornus florida Leaves Dropping (Early) 40.000000000000000 -100.000000000000000 77242
Sat Apr 08 00:00:00 GMT 2017 malayden Flowering dogwood Cornus florida Flowers (Late) 40.000000000000000 -100.000000000000000 77243
Sat Apr 08 00:00:00 GMT 2017 malayden Flowering dogwood Cornus florida Fruit (Middle) 40.000000000000000 -100.000000000000000 77244
Tue Apr 11 00:00:00 GMT 2017 bkanoy_MS_Gail_Walker_Garden_reporter4 Flowering dogwood Cornus florida Full Flower 35.968516000000000 -78.944390000000000 77455
Sat Feb 25 00:00:00 GMT 2017 cadenny Flowering dogwood Cornus florida Bud Burst 39.174048000000000 -86.516342000000000 77593
Fri Mar 31 00:00:00 GMT 2017 ml3im Flowering dogwood Cornus florida Leaves Unfolding (Early) 37.575289000000000 -77.539279000000000 77902
Fri Mar 31 00:00:00 GMT 2017 ml3im Flowering dogwood Cornus florida Leaves Changing Color (Early) 37.575289000000000 -77.539279000000000 77903
Fri Mar 31 00:00:00 GMT 2017 ml3im Flowering dogwood Cornus florida Leaves Dropping (None) 37.575289000000000 -77.539279000000000 77904
Fri Mar 31 00:00:00 GMT 2017 ml3im Flowering dogwood Cornus florida Flowers (Early) 37.575289000000000 -77.539279000000000 77905
Fri Mar 31 00:00:00 GMT 2017 ml3im Flowering dogwood Cornus florida Fruit (None) 37.575289000000000 -77.539279000000000 77906
Fri Apr 14 00:00:00 GMT 2017 AshevilleSchool Flowering dogwood Cornus florida Bud Burst 35.566279000000000 -82.621275000000000 77945
Fri Apr 14 00:00:00 GMT 2017 AshevilleSchool Flowering dogwood Cornus florida First Leaf 35.566279000000000 -82.621275000000000 77946
Fri Apr 14 00:00:00 GMT 2017 AshevilleSchool_Asheville_School_Kehaya_reporter5 Flowering dogwood Cornus florida All Leaves Unfolded 35.566279000000000 -82.621275000000000 77979
Fri Apr 14 00:00:00 GMT 2017 Scutacarus1964 Flowering dogwood Cornus florida All Leaves Unfolded 39.393920000000000 -101.063520000000000 77986
Fri Apr 07 00:00:00 GMT 2017 dk Flowering dogwood Cornus florida Bud Burst 39.583130000000000 -76.999340000000000 78375
Tue Apr 11 00:00:00 GMT 2017 dk Flowering dogwood Cornus florida First Leaf 39.583130000000000 -76.999340000000000 78376
Sun Apr 16 00:00:00 GMT 2017 dk Flowering dogwood Cornus florida All Leaves Unfolded 39.583130000000000 -76.999340000000000 78377
Fri Apr 14 00:00:00 GMT 2017 BasyauGarden Flowering dogwood Cornus florida First Flower 40.714820000000000 -74.318900000000000 78411
Mon Apr 17 00:00:00 GMT 2017 shetdog1 Flowering dogwood Cornus florida Leaves Unfolding (Middle) 40.115325000000000 -75.113719000000000 78463
Mon Apr 17 00:00:00 GMT 2017 shetdog1 Flowering dogwood Cornus florida Leaves Changing Color (None) 40.115325000000000 -75.113719000000000 78464
Mon Apr 17 00:00:00 GMT 2017 shetdog1 Flowering dogwood Cornus florida Leaves Dropping (None) 40.115325000000000 -75.113719000000000 78465
Mon Apr 17 00:00:00 GMT 2017 shetdog1 Flowering dogwood Cornus florida Flowers (Middle) 40.115325000000000 -75.113719000000000 78466
Mon Apr 17 00:00:00 GMT 2017 shetdog1 Flowering dogwood Cornus florida Fruit (None) 40.115325000000000 -75.113719000000000 78467
Sun Apr 02 00:00:00 GMT 2017 jwlm2018 Flowering dogwood Cornus florida Leaves Unfolding (Middle) 36.018500000000000 -78.920400000000000 78503
Sun Apr 02 00:00:00 GMT 2017 jwlm2018 Flowering dogwood Cornus florida Leaves Changing Color (None) 36.018500000000000 -78.920400000000000 78504
Sun Apr 02 00:00:00 GMT 2017 jwlm2018 Flowering dogwood Cornus florida Leaves Dropping (None) 36.018500000000000 -78.920400000000000 78505
Sun Apr 02 00:00:00 GMT 2017 jwlm2018 Flowering dogwood Cornus florida Flowers (Middle) 36.018500000000000 -78.920400000000000 78506
Sun Apr 02 00:00:00 GMT 2017 jwlm2018 Flowering dogwood Cornus florida Fruit (None) 36.018500000000000 -78.920400000000000 78507
Mon Mar 27 00:00:00 GMT 2017 jwlm2018 Flowering dogwood Cornus florida Leaves Unfolding (None) 36.018500000000000 -78.920400000000000 78508
Mon Mar 27 00:00:00 GMT 2017 jwlm2018 Flowering dogwood Cornus florida Leaves Changing Color (None) 36.018500000000000 -78.920400000000000 78509
Mon Mar 27 00:00:00 GMT 2017 jwlm2018 Flowering dogwood Cornus florida Leaves Dropping (None) 36.018500000000000 -78.920400000000000 78510
Mon Mar 27 00:00:00 GMT 2017 jwlm2018 Flowering dogwood Cornus florida Flowers (Early) 36.018500000000000 -78.920400000000000 78511
Mon Mar 27 00:00:00 GMT 2017 jwlm2018 Flowering dogwood Cornus florida Fruit (None) 36.018500000000000 -78.920400000000000 78512
Tue Apr 18 00:00:00 GMT 2017 jwlm2018 Flowering dogwood Cornus florida Leaves Unfolding (None) 36.018500000000000 -78.920400000000000 78535
Tue Apr 18 00:00:00 GMT 2017 jwlm2018 Flowering dogwood Cornus florida Leaves Changing Color (None) 36.018500000000000 -78.920400000000000 78536
Tue Apr 18 00:00:00 GMT 2017 jwlm2018 Flowering dogwood Cornus florida Leaves Dropping (None) 36.018500000000000 -78.920400000000000 78537
Tue Apr 18 00:00:00 GMT 2017 jwlm2018 Flowering dogwood Cornus florida Flowers (None) 36.018500000000000 -78.920400000000000 78538
Tue Apr 18 00:00:00 GMT 2017 jwlm2018 Flowering dogwood Cornus florida Fruit (None) 36.018500000000000 -78.920400000000000 78539
Fri Apr 14 00:00:00 GMT 2017 bthomps1 Flowering dogwood Cornus florida First Leaf 38.195980000000000 -85.534280000000000 78568
Tue Apr 18 00:00:00 GMT 2017 bthomps1 Flowering dogwood Cornus florida First Flower 38.195980000000000 -85.534280000000000 78569
Tue Apr 18 00:00:00 GMT 2017 paodanielsen Flowering dogwood Cornus florida Leaves Unfolding (Late) 34.744137000000000 -79.486608000000000 78711
Tue Apr 18 00:00:00 GMT 2017 paodanielsen Flowering dogwood Cornus florida Leaves Changing Color (Middle) 34.744137000000000 -79.486608000000000 78712
Tue Apr 18 00:00:00 GMT 2017 paodanielsen Flowering dogwood Cornus florida Leaves Dropping (Early) 34.744137000000000 -79.486608000000000 78713
Tue Apr 18 00:00:00 GMT 2017 paodanielsen Flowering dogwood Cornus florida Flowers (Middle) 34.744137000000000 -79.486608000000000 78714
Tue Apr 18 00:00:00 GMT 2017 paodanielsen Flowering dogwood Cornus florida Fruit (None) 34.744137000000000 -79.486608000000000 78715
Wed Mar 01 00:00:00 GMT 2017 SWang_15 Flowering dogwood Cornus florida Bud Burst 37.578620000000000 -77.539170000000000 78911
Mon Mar 13 00:00:00 GMT 2017 SWang_15 Flowering dogwood Cornus florida First Leaf 37.578620000000000 -77.539170000000000 78912
Mon Mar 20 00:00:00 GMT 2017 SWang_15 Flowering dogwood Cornus florida All Leaves Unfolded 37.578620000000000 -77.539170000000000 78913
Wed Mar 22 00:00:00 GMT 2017 SWang_15 Flowering dogwood Cornus florida First Flower 37.578620000000000 -77.539170000000000 78914
Tue Mar 28 00:00:00 GMT 2017 SWang_15 Flowering dogwood Cornus florida Full Flower 37.578620000000000 -77.539170000000000 78915
Wed Apr 05 00:00:00 GMT 2017 SWang_15 Flowering dogwood Cornus florida First Ripe Fruit 37.578620000000000 -77.539170000000000 78916
Sat Apr 08 00:00:00 GMT 2017 SWang_15 Flowering dogwood Cornus florida Full Fruiting 37.578620000000000 -77.539170000000000 78917
Wed Apr 12 00:00:00 GMT 2017 SWang_15 Flowering dogwood Cornus florida 50% Color 37.578620000000000 -77.539170000000000 78918
Mon Apr 10 00:00:00 GMT 2017 SWang_15 Flowering dogwood Cornus florida 50% Leaf Fall 37.578620000000000 -77.539170000000000 78919
Wed Mar 15 00:00:00 GMT 2017 desta Flowering dogwood Cornus florida Leaves Unfolding (Late) 36.018400000000000 -78.920000000000000 78992
Wed Mar 15 00:00:00 GMT 2017 desta Flowering dogwood Cornus florida Leaves Changing Color (None) 36.018400000000000 -78.920000000000000 78993
Wed Mar 15 00:00:00 GMT 2017 desta Flowering dogwood Cornus florida Leaves Dropping (None) 36.018400000000000 -78.920000000000000 78994
Wed Mar 15 00:00:00 GMT 2017 desta Flowering dogwood Cornus florida Flowers (None) 36.018400000000000 -78.920000000000000 78995
Wed Mar 15 00:00:00 GMT 2017 desta Flowering dogwood Cornus florida Fruit (None) 36.018400000000000 -78.920000000000000 78996
Thu Apr 06 00:00:00 GMT 2017 akshaysri00 Flowering dogwood Cornus florida Leaves Unfolding (Late) 36.019158000000000 -78.919371000000000 78997
Thu Apr 06 00:00:00 GMT 2017 akshaysri00 Flowering dogwood Cornus florida Leaves Changing Color (None) 36.019158000000000 -78.919371000000000 78998
Thu Apr 06 00:00:00 GMT 2017 akshaysri00 Flowering dogwood Cornus florida Leaves Dropping (None) 36.019158000000000 -78.919371000000000 78999
Thu Apr 06 00:00:00 GMT 2017 akshaysri00 Flowering dogwood Cornus florida Flowers (Middle) 36.019158000000000 -78.919371000000000 79000
Thu Apr 06 00:00:00 GMT 2017 akshaysri00 Flowering dogwood Cornus florida Fruit (None) 36.019158000000000 -78.919371000000000 79001
Thu Apr 06 00:00:00 GMT 2017 akshaysri00 Flowering dogwood Cornus florida Leaves Unfolding (Late) 36.019158000000000 -78.919371000000000 79002
Thu Apr 06 00:00:00 GMT 2017 akshaysri00 Flowering dogwood Cornus florida Leaves Changing Color (None) 36.019158000000000 -78.919371000000000 79003
Thu Apr 06 00:00:00 GMT 2017 akshaysri00 Flowering dogwood Cornus florida Leaves Dropping (None) 36.019158000000000 -78.919371000000000 79004
Thu Apr 06 00:00:00 GMT 2017 akshaysri00 Flowering dogwood Cornus florida Flowers (Middle) 36.019158000000000 -78.919371000000000 79005
Thu Apr 06 00:00:00 GMT 2017 akshaysri00 Flowering dogwood Cornus florida Fruit (None) 36.019158000000000 -78.919371000000000 79006
Thu Mar 16 00:00:00 GMT 2017 patel18a Flowering dogwood Cornus florida Bud Burst 36.017880000000000 -78.921170000000000 79050
Thu Mar 16 00:00:00 GMT 2017 patel18a Flowering dogwood Cornus florida First Leaf 36.017880000000000 -78.921170000000000 79051
Sat Apr 01 00:00:00 GMT 2017 patel18a Flowering dogwood Cornus florida All Leaves Unfolded 36.017880000000000 -78.921170000000000 79052
Sat Apr 01 00:00:00 GMT 2017 patel18a Flowering dogwood Cornus florida First Flower 36.017880000000000 -78.921170000000000 79053
Thu Apr 06 00:00:00 GMT 2017 patel18a Flowering dogwood Cornus florida Full Flower 36.017880000000000 -78.921170000000000 79054
Fri Apr 07 00:00:00 GMT 2017 patel18a Flowering dogwood Cornus florida First Ripe Fruit 36.017880000000000 -78.921170000000000 79055
Wed Apr 19 00:00:00 GMT 2017 patel18a Flowering dogwood Cornus florida Full Fruiting 36.017880000000000 -78.921170000000000 79056
Wed Apr 05 00:00:00 GMT 2017 patel18a Flowering dogwood Cornus florida 50% Color 36.017880000000000 -78.921170000000000 79057
Fri Apr 21 00:00:00 GMT 2017 BasyauGarden Flowering dogwood Cornus florida Full Flower 40.714820000000000 -74.318900000000000 79251
Fri Apr 21 00:00:00 GMT 2017 Scutacarus1964 Flowering dogwood Cornus florida First Flower 39.393920000000000 -101.063520000000000 79364
Wed Apr 19 00:00:00 GMT 2017 etn5026 Flowering dogwood Cornus florida Leaves Unfolding (Middle) 40.115550000000000 -75.110300000000000 79406
Wed Apr 19 00:00:00 GMT 2017 etn5026 Flowering dogwood Cornus florida Leaves Changing Color (None) 40.115550000000000 -75.110300000000000 79407
Wed Apr 19 00:00:00 GMT 2017 etn5026 Flowering dogwood Cornus florida Leaves Dropping (None) 40.115550000000000 -75.110300000000000 79408
Wed Apr 19 00:00:00 GMT 2017 etn5026 Flowering dogwood Cornus florida Flowers (None) 40.115550000000000 -75.110300000000000 79409
Wed Apr 19 00:00:00 GMT 2017 etn5026 Flowering dogwood Cornus florida Fruit (None) 40.115550000000000 -75.110300000000000 79410
Mon Apr 17 00:00:00 GMT 2017 salemno Flowering dogwood Cornus florida Leaves Unfolding (Middle) 40.115490000000000 -75.110290000000000 79424
Mon Apr 17 00:00:00 GMT 2017 salemno Flowering dogwood Cornus florida Leaves Changing Color (None) 40.115490000000000 -75.110290000000000 79425
Mon Apr 17 00:00:00 GMT 2017 salemno Flowering dogwood Cornus florida Leaves Dropping (None) 40.115490000000000 -75.110290000000000 79426
Mon Apr 17 00:00:00 GMT 2017 salemno Flowering dogwood Cornus florida Flowers (Middle) 40.115490000000000 -75.110290000000000 79427
Mon Apr 17 00:00:00 GMT 2017 salemno Flowering dogwood Cornus florida Fruit (None) 40.115490000000000 -75.110290000000000 79428
Sun Apr 23 00:00:00 GMT 2017 Biol120A2017 Flowering dogwood Cornus florida Leaves Unfolding (None) 40.070641000000000 -75.107671000000000 79504
Sun Apr 23 00:00:00 GMT 2017 Biol120A2017 Flowering dogwood Cornus florida Leaves Changing Color (None) 40.070641000000000 -75.107671000000000 79505
Sun Apr 23 00:00:00 GMT 2017 Biol120A2017 Flowering dogwood Cornus florida Leaves Dropping (None) 40.070641000000000 -75.107671000000000 79506
Sun Apr 23 00:00:00 GMT 2017 Biol120A2017 Flowering dogwood Cornus florida Flowers (Middle) 40.070641000000000 -75.107671000000000 79507
Sun Apr 23 00:00:00 GMT 2017 Biol120A2017 Flowering dogwood Cornus florida Fruit (None) 40.070641000000000 -75.107671000000000 79508
Mon Apr 24 00:00:00 GMT 2017 reilly19 Flowering dogwood Cornus florida Leaves Unfolding (Middle) 40.202950000000000 -75.112840000000000 79795
Mon Apr 24 00:00:00 GMT 2017 reilly19 Flowering dogwood Cornus florida Leaves Changing Color (None) 40.202950000000000 -75.112840000000000 79796
Mon Apr 24 00:00:00 GMT 2017 reilly19 Flowering dogwood Cornus florida Leaves Dropping (None) 40.202950000000000 -75.112840000000000 79797
Mon Apr 24 00:00:00 GMT 2017 reilly19 Flowering dogwood Cornus florida Flowers (Middle) 40.202950000000000 -75.112840000000000 79798
Mon Apr 24 00:00:00 GMT 2017 reilly19 Flowering dogwood Cornus florida Fruit (None) 40.202950000000000 -75.112840000000000 79799
Mon Apr 24 00:00:00 GMT 2017 kaitlyn8 Flowering dogwood Cornus florida Leaves Unfolding (Early) 40.127187000000000 -75.118614000000000 79873
Mon Apr 24 00:00:00 GMT 2017 kaitlyn8 Flowering dogwood Cornus florida Leaves Changing Color (None) 40.127187000000000 -75.118614000000000 79874
Mon Apr 24 00:00:00 GMT 2017 kaitlyn8 Flowering dogwood Cornus florida Leaves Dropping (None) 40.127187000000000 -75.118614000000000 79875
Mon Apr 24 00:00:00 GMT 2017 kaitlyn8 Flowering dogwood Cornus florida Flowers (Early) 40.127187000000000 -75.118614000000000 79876
Mon Apr 24 00:00:00 GMT 2017 kaitlyn8 Flowering dogwood Cornus florida Fruit (None) 40.127187000000000 -75.118614000000000 79877
Thu Apr 20 00:00:00 GMT 2017 JamesKraatz Flowering dogwood Cornus florida First Leaf 42.251352000000000 -85.603173000000000 79994
Tue Apr 25 00:00:00 GMT 2017 pennyhrdls Flowering dogwood Cornus florida Bud Burst 42.183340000000000 -71.196990000000000 80467

*All downloadable materials require the free Adobe Reader.